[[{"header":{"parameterUnit":"m.s-1","parameterCategory":1,"la1":30.6,"la2":28.766,"lo1":-90.7593,"lo2":-88.6598,"dy":0.0162,"dx":0.0183,"nx":116,"ny":114,"refTime":"2024-06-14T18:00:00:Z","depth":0,"parameterNumber":2,"parameterNumberName":"U-component_of_WINDS"},"data":[0.0,0.0,0.0,0.0,0.0,0.0,0.0,0.0,0.0,0.0,0.0,0.0,0.0,0.0,0.0,0.0,0.0,0.0,0.0,0.0,0.0,0.0,0.0,0.0,0.0,0.0,0.0,0.0,0.0,0.0,0.0,0.0,0.0,0.0,0.0,0.0,0.0,0.0,0.0,0.0,0.0,0.0,0.0,0.0,0.0,0.0,0.0,0.0,0.0,0.0,0.0,0.0,0.0,0.0,0.0,0.0,0.0,0.0,0.0,0.0,0.0,0.0,0.0,0.0,0.0,0.0,0.0,0.0,0.0,0.0,0.0,0.0,0.0,0.0,0.0,0.0,0.0,0.0,0.0,0.0,0.0,0.0,0.0,0.0,0.0,0.0,0.0,0.0,0.0,0.0,0.0,0.0,0.0,0.0,0.0,0.0,0.0,0.0,0.0,0.0,0.0,0.0,0.0,0.0,0.0,0.0,0.0,0.0,0.0,0.0,0.0,0.0,0.0,0.0,0.0,0.0,0.0,0.0,0.0,0.0,0.0,0.0,0.0,0.0,0.0,0.0,0.0,0.0,0.0,0.0,0.0,0.0,0.0,0.0,0.0,0.0,0.0,0.0,0.0,0.0,0.0,0.0,0.0,0.0,0.0,0.0,0.0,0.0,0.0,0.0,0.0,0.0,0.0,0.0,0.0,0.0,0.0,0.0,0.0,0.0,0.0,0.0,0.0,0.0,0.0,0.0,0.0,0.0,0.0,0.0,0.0,0.0,0.0,0.0,0.0,0.0,0.0,0.0,0.0,0.0,0.0,0.0,0.0,0.0,0.0,0.0,0.0,0.0,0.0,0.0,0.0,0.0,0.0,0.0,0.0,0.0,0.0,0.0,0.0,0.0,0.0,0.0,0.0,0.0,0.0,0.0,0.0,0.0,0.0,0.0,0.0,0.0,0.0,0.0,0.0,0.0,0.0,0.0,0.0,0.0,0.0,0.0,0.0,0.0,0.0,0.0,0.0,0.0,0.0,0.0,0.0,0.0,0.0,0.0,0.0,0.0,0.0,0.0,0.0,0.0,0.0,0.0,0.0,0.0,0.0,0.0,0.0,0.0,0.0,0.0,0.0,0.0,0.0,0.0,0.0,0.0,0.0,0.0,0.0,0.0,0.0,0.0,0.0,0.0,0.0,0.0,0.0,0.0,0.0,0.0,0.0,0.0,0.0,0.0,0.0,0.0,0.0,0.0,0.0,0.0,0.0,0.0,0.0,0.0,0.0,0.0,0.0,0.0,0.0,0.0,0.0,0.0,0.0,0.0,0.0,0.0,0.0,0.0,0.0,0.0,0.0,0.0,0.0,0.0,0.0,0.0,0.0,0.0,0.0,0.0,0.0,0.0,0.0,0.0,0.0,0.0,0.0,0.0,0.0,0.0,0.0,0.0,0.0,0.0,0.0,0.0,0.0,0.0,0.0,0.0,0.0,0.0,0.0,0.0,0.0,0.0,0.0,0.0,0.0,0.0,0.0,0.0,0.0,0.0,0.0,0.0,0.0,0.0,0.0,0.0,0.0,0.0,0.0,0.0,0.0,0.0,0.0,0.0,0.0,0.0,0.0,0.0,0.0,0.0,0.0,0.0,0.0,0.0,0.0,0.0,0.0,0.0,0.0,0.0,0.0,0.0,0.0,0.0,0.0,0.0,0.0,0.0,0.0,0.0,0.0,0.0,0.0,0.0,0.0,0.0,0.0,0.0,0.0,0.0,0.0,0.0,0.0,0.0,0.0,0.0,0.0,0.0,0.0,0.0,0.0,0.0,0.0,0.0,0.0,0.0,0.0,0.0,0.0,0.0,0.0,0.0,0.0,0.0,0.0,0.0,0.0,0.0,0.0,0.0,0.0,0.0,0.0,0.0,0.0,0.0,0.0,0.0,0.0,0.0,0.0,0.0,0.0,0.0,0.0,0.0,0.0,0.0,0.0,0.0,0.0,0.0,0.0,0.0,0.0,0.0,0.0,0.0,0.0,0.0,0.0,0.0,0.0,0.0,0.0,0.0,0.0,0.0,0.0,0.0,0.0,0.0,0.0,0.0,0.0,0.0,0.0,0.0,0.0,0.0,0.0,0.0,0.0,0.0,0.0,0.0,0.0,0.0,0.0,0.0,0.0,0.0,0.0,0.0,0.0,0.0,0.0,0.0,0.0,0.0,0.0,0.0,0.0,0.0,0.0,0.0,0.0,0.0,0.0,0.0,0.0,0.0,0.0,0.0,0.0,0.0,0.0,0.0,0.0,0.0,0.0,0.0,0.0,0.0,0.0,0.0,0.0,0.0,0.0,0.0,0.0,0.0,0.0,0.0,0.0,0.0,0.0,0.0,0.0,0.0,0.0,0.0,0.0,0.0,0.0,0.0,0.0,0.0,0.0,0.0,0.0,0.0,0.0,0.0,0.0,0.0,0.0,0.0,0.0,0.0,0.0,0.0,0.0,0.0,0.0,0.0,0.0,0.0,0.0,0.0,0.0,0.0,0.0,0.0,0.0,0.0,0.0,0.0,0.0,0.0,0.0,0.0,0.0,0.0,0.0,0.0,0.0,0.0,0.0,0.0,0.0,0.0,0.0,0.0,0.0,0.0,0.0,0.0,0.0,0.0,0.0,0.0,0.0,0.0,0.0,0.0,0.0,0.0,0.0,0.0,0.0,0.0,0.0,0.0,0.0,0.0,0.0,0.0,0.0,0.0,0.0,0.0,0.0,0.0,0.0,0.0,0.0,0.0,0.0,0.0,0.0,0.0,0.0,0.0,0.0,0.0,0.0,0.0,0.0,0.0,0.0,0.0,0.0,0.0,0.0,0.0,0.0,0.0,0.0,0.0,0.0,0.0,0.0,0.0,0.0,0.0,0.0,0.0,0.0,0.0,0.0,0.0,0.0,0.0,0.0,0.0,0.0,0.0,0.0,0.0,0.0,0.0,0.0,0.0,0.0,0.0,0.0,0.0,0.0,0.0,0.0,0.0,0.0,0.0,0.0,0.0,0.0,0.0,0.0,0.0,0.0,0.0,0.0,0.0,0.0,0.0,0.0,0.0,0.0,0.0,0.0,0.0,0.0,0.0,0.0,0.0,0.0,0.0,0.0,0.0,0.0,0.0,0.0,0.0,0.0,0.0,0.0,0.0,0.0,0.0,0.0,0.0,0.0,0.0,0.0,0.0,0.0,0.0,0.0,0.0,0.0,0.0,0.0,0.0,0.0,0.0,0.0,0.0,0.0,0.0,0.0,0.0,0.0,0.0,0.0,0.0,0.0,0.0,0.0,0.0,0.0,0.0,0.0,0.0,0.0,0.0,0.0,0.0,0.0,0.0,0.0,0.0,0.0,0.0,0.0,0.0,0.0,0.0,0.0,0.0,0.0,0.0,0.0,0.0,0.0,0.0,0.0,0.0,0.0,0.0,0.0,0.0,0.0,0.0,0.0,0.0,0.0,0.0,0.0,0.0,0.0,0.0,0.0,0.0,0.0,0.0,0.0,0.0,0.0,0.0,0.0,0.0,0.0,0.0,0.0,0.0,0.0,0.0,0.0,0.0,0.0,0.0,0.0,0.0,0.0,0.0,0.0,0.0,0.0,0.0,0.0,0.0,0.0,0.0,0.0,0.0,0.0,0.0,0.0,0.0,0.0,0.0,0.0,0.0,0.0,0.0,0.0,0.0,0.0,0.0,0.0,0.0,0.0,0.0,0.0,0.0,0.0,0.0,0.0,0.0,0.0,0.0,0.0,0.0,0.0,0.0,0.0,0.0,0.0,0.0,0.0,0.0,0.0,0.0,0.0,0.0,0.0,0.0,0.0,0.0,0.0,0.0,0.0,0.0,0.0,0.0,0.0,0.0,0.0,0.0,0.0,0.0,0.0,0.0,0.0,0.0,0.0,0.0,0.0,0.0,0.0,0.0,0.0,0.0,0.0,0.0,0.0,0.0,0.0,0.0,0.0,0.0,0.0,0.0,0.0,0.0,0.0,0.0,0.0,0.0,0.0,0.0,0.0,0.0,0.0,0.0,0.0,0.0,0.0,0.0,0.0,0.0,0.0,0.0,0.0,0.0,0.0,0.0,0.0,0.0,0.0,0.0,0.0,0.0,0.0,0.0,0.0,0.0,0.0,0.0,0.0,0.0,0.0,0.0,0.0,0.0,0.0,0.0,0.0,0.0,0.0,0.0,0.0,0.0,0.0,0.0,0.0,0.0,0.0,0.0,0.0,0.0,0.0,0.0,0.0,0.0,0.0,0.0,0.0,0.0,0.0,0.0,0.0,0.0,0.0,0.0,0.0,0.0,0.0,0.0,0.0,0.0,0.0,0.0,0.0,0.0,0.0,0.0,0.0,0.0,0.0,0.0,0.0,0.0,0.0,0.0,0.0,0.0,0.0,0.0,0.0,0.0,0.0,0.0,0.0,0.0,0.0,0.0,0.0,0.0,0.0,0.0,0.0,0.0,0.0,0.0,0.0,0.0,0.0,0.0,0.0,0.0,0.0,0.0,0.0,0.0,0.0,0.0,0.0,0.0,0.0,0.0,0.0,0.0,0.0,0.0,0.0,0.0,0.0,0.0,0.0,0.0,0.0,0.0,0.0,0.0,0.0,0.0,0.0,0.0,0.0,0.0,0.0,0.0,0.0,0.0,0.0,0.0,0.0,0.0,0.0,0.0,0.0,0.0,0.0,0.0,0.0,0.0,0.0,0.0,0.0,0.0,0.0,0.0,0.0,0.0,0.0,0.0,0.0,0.0,0.0,0.0,0.0,0.0,0.0,0.0,0.0,0.0,0.0,0.0,0.0,0.0,0.0,0.0,0.0,0.0,0.0,0.0,0.0,0.0,0.0,0.0,0.0,0.0,0.0,0.0,0.0,0.0,0.0,0.0,0.0,0.0,0.0,0.0,0.0,0.0,0.0,0.0,0.0,0.0,0.0,0.0,0.0,0.0,0.0,0.0,0.0,0.0,0.0,0.0,0.0,0.0,0.0,0.0,0.0,0.0,0.0,0.0,0.0,0.0,0.0,0.0,0.0,0.0,0.0,0.0,0.0,0.0,0.0,0.0,0.0,0.0,0.0,0.0,0.0,0.0,0.0,0.0,0.0,0.0,0.0,0.0,0.0,0.0,0.0,0.0,0.0,0.0,0.0,0.0,0.0,0.0,0.0,0.0,0.0,0.0,0.0,0.0,0.0,0.0,0.0,0.0,0.0,0.0,0.0,0.0,0.0,0.0,0.0,0.0,0.0,0.0,0.0,0.0,0.0,0.0,0.0,0.0,0.0,0.0,0.0,0.0,0.0,0.0,0.0,0.0,0.0,0.0,0.0,0.0,0.0,0.0,0.0,0.0,0.0,0.0,0.0,0.0,0.0,0.0,0.0,0.0,0.0,0.0,0.0,0.0,0.0,0.0,0.0,0.0,0.0,0.0,0.0,0.0,0.0,0.0,0.0,0.0,0.0,0.0,0.0,0.0,0.0,0.0,0.0,0.0,0.0,0.0,0.0,0.0,0.0,0.0,0.0,0.0,0.0,0.0,0.0,0.0,0.0,0.0,0.0,0.0,0.0,0.0,0.0,0.0,0.0,0.0,0.0,0.0,0.0,0.0,0.0,0.0,0.0,0.0,0.0,0.0,0.0,0.0,0.0,0.0,0.0,0.0,0.0,0.0,0.0,0.0,0.0,0.0,0.0,0.0,0.0,0.0,0.0,0.0,0.0,0.0,0.0,0.0,0.0,0.0,0.0,0.0,0.0,0.0,0.0,0.0,0.0,0.0,0.0,0.0,0.0,0.0,0.0,0.0,0.0,0.0,0.0,0.0,0.0,0.0,0.0,0.0,0.0,0.0,0.0,0.0,0.0,0.0,0.0,0.0,0.0,0.0,0.0,0.0,0.0,0.0,0.0,0.0,0.0,0.0,0.0,0.0,0.0,0.0,0.0,0.0,0.0,0.0,0.0,0.0,0.0,0.0,0.0,0.0,0.0,0.0,0.0,0.0,0.0,0.0,0.0,0.0,0.0,0.0,0.0,0.0,0.0,0.0,0.0,0.0,0.0,0.0,0.0,0.0,0.0,0.0,0.0,0.0,0.0,0.0,0.0,0.0,0.0,0.0,-0.6194,0.0,0.0,0.0,0.0,0.0,0.0,0.0,0.0,0.0,0.0,0.0,0.0,0.0,0.0,0.0,0.0,0.0,0.0,0.0,0.0,0.0,0.0,0.0,0.0,-0.5578,-0.5724,-0.5789,-0.5849,-0.5854,-0.5794,0.0,0.0,0.0,0.0,0.0,-0.534,-0.5246,-0.5268,-0.5421,-0.5421,-0.5561,-0.5784,-0.56,-0.5316,-0.4931,0.0,0.0,0.0,0.0,0.0,0.0,0.0,0.0,0.0,0.0,0.0,0.0,0.0,0.0,0.0,0.0,0.0,0.0,0.0,0.0,0.0,0.0,0.0,0.0,0.0,0.0,0.0,0.0,0.0,0.0,0.0,0.0,0.0,0.0,0.0,0.0,0.0,0.0,0.0,0.0,0.0,0.0,0.0,0.0,0.0,0.0,0.0,0.0,0.0,0.0,0.0,0.0,0.0,0.0,0.0,0.0,0.0,0.0,0.0,0.0,0.0,0.0,0.0,0.0,0.0,0.0,0.0,0.0,0.0,0.0,0.0,-0.6681,0.0,0.0,0.0,0.0,0.0,0.0,0.0,0.0,0.0,0.0,0.0,0.0,0.0,0.0,0.0,0.0,0.0,0.0,0.0,0.0,0.0,-0.5277,-0.5463,-0.5746,-0.5953,-0.5991,-0.6072,-0.6096,-0.5975,-0.5926,0.0,0.0,-0.5605,-0.5545,-0.5567,-0.5534,-0.5681,-0.5996,-0.6078,-0.6295,-0.6601,-0.6581,-0.6293,-0.5752,-0.5388,0.0,0.0,0.0,0.0,0.0,0.0,0.0,0.0,0.0,0.0,0.0,0.0,0.0,0.0,0.0,0.0,0.0,0.0,0.0,0.0,0.0,0.0,0.0,0.0,0.0,0.0,0.0,0.0,0.0,0.0,0.0,0.0,0.0,0.0,0.0,0.0,0.0,0.0,0.0,0.0,0.0,0.0,0.0,0.0,0.0,0.0,0.0,0.0,0.0,0.0,0.0,0.0,0.0,0.0,0.0,0.0,0.0,0.0,0.0,0.0,0.0,0.0,0.0,-1.0132,-1.0282,-1.0413,-1.036,-1.0409,-1.0424,-0.8744,-0.7991,-0.7901,0.0,0.0,0.0,0.0,0.0,0.0,0.0,0.0,0.0,0.0,0.0,0.0,0.0,0.0,0.0,0.0,0.0,0.0,0.0,0.0,-0.537,-0.5784,-0.5969,-0.6143,-0.6325,-0.629,-0.626,-0.6243,-0.6024,-0.5893,-0.5882,-0.5746,-0.5735,-0.5855,-0.5947,-0.6116,-0.6341,-0.6811,-0.7149,-0.7349,-0.7349,-0.73,-0.7203,-0.6467,-0.6118,-0.6074,0.0,0.0,0.0,0.0,0.0,0.0,0.0,0.0,0.0,0.0,0.0,0.0,0.0,0.0,0.0,0.0,0.0,0.0,0.0,0.0,0.0,0.0,0.0,0.0,0.0,0.0,0.0,0.0,0.0,0.0,0.0,0.0,0.0,0.0,0.0,0.0,0.0,0.0,0.0,0.0,0.0,-0.7516,-0.7757,0.0,0.0,0.0,0.0,0.0,0.0,0.0,0.0,0.0,0.0,0.0,0.0,0.0,-1.037,-1.0282,-1.0629,-1.0866,-1.1002,-1.1262,-1.1454,-1.1578,-1.146,-1.1423,-1.1423,-1.1025,0.0,-0.9703,-0.9228,0.0,0.0,0.0,0.0,0.0,0.0,0.0,0.0,0.0,0.0,0.0,0.0,0.0,0.0,0.0,0.0,0.0,0.0,0.0,0.0,0.0,-0.6236,-0.6486,-0.6725,-0.6823,-0.6752,-0.6486,-0.6431,-0.629,-0.6018,-0.5958,-0.5986,-0.6129,-0.6225,-0.6542,-0.7121,-0.7693,-0.8044,-0.8117,-0.8117,-0.8117,-0.81,-0.7671,-0.7176,-0.6664,-0.6159,0.0,0.0,0.0,0.0,0.0,0.0,0.0,0.0,0.0,0.0,0.0,0.0,0.0,0.0,0.0,0.0,0.0,0.0,0.0,0.0,0.0,0.0,0.0,0.0,0.0,0.0,0.0,0.0,0.0,0.0,0.0,0.0,0.0,0.0,0.0,0.0,0.0,0.0,0.0,-0.8125,-0.8701,-0.8683,-0.8865,-0.8834,0.0,0.0,0.0,0.0,0.0,0.0,0.0,0.0,0.0,-1.1426,-1.1794,-1.2056,-1.2128,-1.2528,-1.277,-1.2836,-1.3045,-1.3095,-1.3069,-1.301,-1.2938,-1.2812,-1.2788,-1.2462,-1.1878,-1.0607,-0.9724,-0.9142,0.0,0.0,0.0,0.0,-0.8635,-0.8714,0.0,0.0,0.0,0.0,0.0,0.0,0.0,0.0,0.0,0.0,0.0,0.0,-0.6236,-0.6562,-0.6866,-0.7143,-0.7273,-0.7202,-0.6845,-0.679,-0.6594,-0.6236,-0.6189,-0.6227,-0.638,-0.6681,-0.722,-0.7975,-0.8481,-0.8742,-0.8769,-0.8769,-0.8769,-0.8764,-0.8649,-0.8155,-0.739,-0.6844,-0.6473,-0.6165,0.0,0.0,0.0,0.0,0.0,0.0,0.0,0.0,0.0,0.0,0.0,0.0,0.0,0.0,0.0,0.0,0.0,0.0,0.0,0.0,0.0,0.0,0.0,0.0,0.0,0.0,0.0,0.0,0.0,0.0,0.0,0.0,0.0,0.0,0.0,0.0,0.0,-0.9361,-0.9869,-0.9669,-1.0073,-1.0086,0.0,0.0,0.0,0.0,0.0,0.0,-1.1762,-1.2006,-1.2372,-1.2888,-1.3166,-1.3452,-1.3627,-1.3966,-1.415,-1.4183,-1.4299,-1.4312,-1.4238,-1.4204,-1.4122,-1.3964,-1.3889,-1.3777,-1.3443,-1.1862,-1.0964,-1.0515,-1.0095,-0.9891,-0.9812,-1.0017,-1.0107,-1.0171,0.0,0.0,0.0,0.0,0.0,0.0,0.0,0.0,0.0,0.0,0.0,-0.6116,-0.6703,-0.7007,-0.7302,-0.7633,-0.7568,-0.7468,-0.7446,-0.6915,-0.659,-0.6569,-0.6402,-0.6391,-0.6569,-0.7531,-0.8246,-0.8748,-0.8981,-0.9125,-0.9269,-0.9269,-0.9269,-0.9264,-0.9114,-0.8878,-0.8459,-0.7752,-0.7317,-0.7046,-0.6192,0.0,0.0,0.0,0.0,0.0,0.0,0.0,0.0,0.0,0.0,0.0,0.0,0.0,0.0,0.0,0.0,0.0,0.0,0.0,0.0,0.0,0.0,0.0,0.0,0.0,0.0,0.0,0.0,0.0,0.0,0.0,0.0,0.0,0.0,0.0,0.0,0.0,0.0,-1.0826,-1.1504,0.0,0.0,0.0,0.0,-1.1301,-1.1857,-1.2438,-1.2894,-1.3295,-1.3668,-1.403,-1.415,-1.4238,-1.4251,-1.4278,-1.4353,-1.4489,-1.4496,-1.4525,-1.4654,-1.4557,-1.4482,-1.4462,-1.4183,-1.4098,-1.4023,-1.3214,-1.2428,-1.1686,-1.1319,-1.0945,-1.0592,-1.1055,-1.1222,-1.1315,0.0,0.0,0.0,0.0,0.0,-0.5036,-0.519,-0.5272,-0.5377,-0.5545,-0.5962,-0.6396,-0.6872,-0.7368,-0.7761,-0.7988,-0.8047,-0.7964,-0.7655,-0.7257,-0.7089,-0.7164,-0.6899,-0.7024,-0.7614,-0.8372,-0.8905,-0.9267,-0.9552,-0.9645,-0.9612,-0.9612,-0.9606,-0.9536,-0.9497,-0.9405,-0.9267,-0.8437,-0.7867,-0.7482,-0.6844,-0.6314,0.0,0.0,0.0,0.0,0.0,0.0,0.0,0.0,0.0,0.0,0.0,0.0,0.0,0.0,0.0,0.0,0.0,0.0,0.0,0.0,0.0,0.0,0.0,0.0,0.0,0.0,0.0,0.0,0.0,0.0,0.0,0.0,0.0,0.0,0.0,0.0,0.0,-1.1823,-1.2467,0.0,-1.1938,-1.2271,-1.2617,-1.2813,-1.3295,-1.3783,-1.4275,-1.4407,-1.4584,-1.478,-1.4936,-1.5011,-1.5011,-1.5113,-1.514,-1.5188,-1.5188,-1.5167,-1.5167,-1.5011,-1.4896,-1.4794,-1.459,-1.4448,-1.4326,-1.3973,-1.3457,-1.2829,-1.2682,-1.2456,-1.2179,-1.2348,-1.24,-1.2414,0.0,0.0,0.0,0.0,-0.4944,-0.5067,-0.5245,-0.5337,-0.5507,-0.5761,-0.6238,-0.672,-0.7259,-0.7777,-0.8155,-0.8394,-0.8454,-0.8323,-0.7964,-0.7727,-0.7562,-0.7519,-0.741,-0.772,-0.8491,-0.9017,-0.9449,-0.9726,-1.0125,-1.0218,-1.0025,-1.0136,-1.0097,-0.9949,-0.9905,-0.9829,-0.9748,-0.9111,-0.8562,-0.8042,-0.747,-0.6986,-0.6573,0.0,0.0,0.0,0.0,0.0,0.0,0.0,0.0,0.0,0.0,0.0,0.0,0.0,0.0,0.0,0.0,0.0,0.0,0.0,0.0,0.0,0.0,0.0,0.0,0.0,0.0,0.0,0.0,0.0,0.0,0.0,0.0,0.0,0.0,0.0,-1.2732,-1.2739,-1.3397,-1.3634,-1.3085,-1.3437,-1.3804,-1.4061,-1.4401,-1.4753,-1.5099,-1.5167,-1.5242,-1.5337,-1.5438,-1.5486,-1.5486,-1.5539,-1.5593,-1.5593,-1.5593,-1.5539,-1.5438,-1.5384,-1.5255,-1.5113,-1.4957,-1.4801,-1.4652,-1.4509,-1.4156,-1.3695,-1.3587,-1.3403,-1.3186,-1.3186,-1.3152,-1.3146,0.0,0.0,0.0,-0.4969,-0.4998,-0.5099,-0.5354,-0.5392,-0.5649,-0.6314,-0.6623,-0.7078,-0.7826,-0.8204,-0.8519,-0.8787,-0.8688,-0.8568,-0.8465,-0.8304,-0.8005,-0.7575,-0.7966,-0.8503,-0.9139,-0.9545,-0.9938,-1.0255,-1.0776,-1.0838,-1.047,-1.0832,-1.0832,-1.0424,-1.0304,-1.0184,-1.0058,-0.9818,-0.9447,-0.891,-0.8073,-0.7725,-0.7616,0.0,0.0,0.0,0.0,0.0,0.0,0.0,0.0,0.0,0.0,0.0,0.0,0.0,0.0,0.0,0.0,0.0,0.0,0.0,0.0,0.0,0.0,0.0,0.0,0.0,0.0,0.0,0.0,0.0,0.0,0.0,0.0,0.0,-1.2166,-1.2792,-1.3336,-1.3599,-1.4275,-1.4597,-1.4163,-1.4516,-1.4835,-1.503,-1.5173,-1.5269,-1.5425,-1.5574,-1.5607,-1.5607,-1.5607,-1.5607,-1.5607,-1.5607,-1.5607,-1.5607,-1.5607,-1.5607,-1.5607,-1.56,-1.5519,-1.5418,-1.5262,-1.512,-1.4977,-1.4821,-1.4539,-1.4299,-1.3937,-1.372,-1.3592,-1.3599,-1.3546,-1.339,0.0,0.0,-0.4787,-0.4852,-0.5023,-0.5212,-0.5365,-0.5442,-0.5675,-0.6241,-0.6676,-0.7204,-0.7832,-0.8269,-0.8739,-0.9257,-0.9001,-0.898,-0.9302,-0.8762,-0.854,-0.8796,-0.9649,-1.0263,-1.0536,-1.0934,-1.1231,-1.1433,-1.1687,-1.1705,-1.1486,-1.1609,-1.1561,-1.135,-1.1314,-1.1278,-1.1225,-1.0958,-1.0762,-1.051,-0.9086,-0.8246,-0.7821,0.0,0.0,0.0,0.0,0.0,0.0,0.0,0.0,0.0,0.0,0.0,0.0,0.0,0.0,0.0,0.0,0.0,0.0,0.0,0.0,0.0,0.0,0.0,0.0,0.0,0.0,0.0,0.0,0.0,0.0,0.0,0.0,-1.3078,-1.3037,-1.377,-1.4421,-1.4719,-1.5133,-1.5296,-1.5221,-1.5276,-1.5452,-1.5649,-1.5697,-1.5786,-1.5886,-1.5934,-1.5961,-1.5961,-1.5961,-1.5961,-1.5961,-1.5961,-1.5961,-1.5961,-1.5961,-1.5961,-1.5954,-1.5845,-1.582,-1.5772,-1.5574,-1.5493,-1.5438,-1.5167,-1.5011,-1.4889,-1.4373,-1.3971,-1.3754,-1.3905,-1.3851,-1.3639,0.0,-0.4717,-0.4812,-0.4885,-0.5061,-0.5245,-0.537,-0.5453,-0.5734,-0.641,-0.6955,-0.7516,-0.8121,-0.8682,-0.9125,-0.9446,-0.9304,-0.9264,-0.949,-0.9179,-0.9342,-1.0084,-1.0699,-1.1137,-1.135,-1.1644,-1.1859,-1.1988,-1.2239,-1.2233,-1.1994,-1.2158,-1.2115,-1.1877,-1.1822,-1.1791,-1.1779,-1.1564,-1.1405,-1.1213,-1.0222,-0.9521,-0.8955,-0.8626,-0.8465,-0.8379,-0.8096,-0.7966,-0.7927,-0.7927,0.0,0.0,0.0,0.0,0.0,0.0,0.0,0.0,0.0,0.0,0.0,0.0,0.0,0.0,0.0,0.0,0.0,0.0,0.0,0.0,0.0,0.0,0.0,0.0,-1.3512,-1.4122,-1.4312,-1.4679,-1.5059,-1.5466,-1.5622,-1.5757,-1.5818,-1.5825,-1.5859,-1.599,-1.5996,-1.6015,-1.6171,-1.6178,-1.6205,-1.6266,-1.6266,-1.6266,-1.6266,-1.6266,-1.6239,-1.6178,-1.6178,-1.6144,-1.6076,-1.6037,-1.5962,0.0,-1.5764,-1.5696,-1.558,-1.5445,-1.5296,0.0,0.0,0.0,0.0,0.0,-1.3939,-1.3693,0.0,-0.4806,-0.4874,-0.4993,-0.5132,-0.5267,-0.5392,-0.5469,-0.582,-0.6692,-0.7301,-0.791,-0.8541,-0.9182,-0.9567,-0.955,-0.9599,-0.9584,-0.9452,-0.9738,-1.0392,-1.138,-1.139,-1.1538,-1.1851,-1.1987,-1.2111,-1.2235,-1.2609,-1.2609,-1.2235,-1.2609,-1.2609,-1.2229,-1.2105,-1.2049,-1.2043,-1.1913,-1.1714,-1.1518,-1.1475,-1.1063,-1.0449,-0.9921,-0.9775,-0.9819,-0.9565,-0.9274,-0.8987,-0.9005,0.0,0.0,0.0,0.0,0.0,0.0,0.0,0.0,0.0,0.0,0.0,0.0,0.0,0.0,0.0,0.0,0.0,0.0,0.0,0.0,0.0,0.0,0.0,0.0,-1.4563,-1.5194,-1.5553,-1.5459,-1.5452,-1.5881,-1.5928,-1.599,-1.609,-1.611,-1.611,-1.613,-1.613,-1.6191,-1.6327,0.0,0.0,0.0,0.0,-1.6524,-1.6524,-1.6524,-1.6456,-1.6334,-1.6334,-1.6252,-1.611,-1.611,-1.6071,-1.5928,-1.5928,-1.5805,-1.5641,-1.5621,-1.5486,-1.5174,-1.4862,-1.4532,-1.4333,-1.4156,-1.3939,-1.3693,0.0,-0.4895,-0.4998,-0.5132,-0.5272,-0.5398,-0.5475,-0.5578,-0.5941,-0.6703,-0.7222,-0.7829,-0.8585,-0.9042,-0.9559,-1.0291,-1.0078,-1.0174,-1.0765,-1.1171,-1.1607,-1.2069,-1.2447,-1.2722,-1.2922,-1.3035,-1.3121,-1.3155,-1.3238,-1.3238,-1.3155,-1.3238,-1.3238,-1.3148,-1.3121,-1.3108,-1.3095,-1.2948,-1.2896,-1.2809,-1.2416,-1.1611,-1.0645,-1.0516,-1.0557,-1.0613,-1.0132,-1.0088,-1.0235,-1.0187,-0.9961,-0.97,-0.9686,-0.9393,0.0,0.0,0.0,0.0,0.0,0.0,0.0,0.0,0.0,0.0,0.0,0.0,0.0,0.0,0.0,0.0,0.0,0.0,0.0,-1.4417,-1.5053,-1.5581,-1.5833,-1.5974,-1.6076,-1.6042,-1.6035,-1.6096,-1.6252,-1.6266,-1.6313,-1.6429,-1.6435,-1.6449,-1.6476,-1.6483,-1.649,-1.6524,-1.6524,-1.6524,-1.6524,-1.6524,-1.651,-1.6483,0.0,0.0,-1.6266,-1.6266,-1.6185,-1.6035,-1.6035,-1.6022,-1.5988,-1.5915,-1.5635,-1.5323,-1.4856,-1.466,-1.4579,-1.4353,-1.4292,-1.4292,-0.5099,-0.5148,-0.5214,-0.5288,-0.5377,-0.5459,-0.5497,-0.572,-0.6154,-0.6858,-0.7538,-0.8158,-0.8686,-0.9206,-0.9633,-0.9916,-1.0071,-1.0511,-1.1348,-1.1809,-1.2264,-1.2712,-1.3024,-1.3214,-1.3288,-1.3437,-1.3512,-1.3512,-1.3587,-1.362,-1.362,-1.3546,-1.3512,-1.3512,-1.3437,-1.3403,-1.3397,-1.3322,-1.3241,-1.3186,-1.2854,-1.2316,-1.1688,-1.1475,-1.1453,-1.1454,-1.1087,-1.1025,-1.1087,-1.097,-1.0731,-1.0465,-1.045,-1.0157,-0.9764,0.0,0.0,0.0,0.0,0.0,0.0,0.0,0.0,0.0,0.0,0.0,0.0,0.0,0.0,-1.3139,0.0,0.0,-1.4801,-1.5323,-1.573,-1.6022,-1.6171,-1.6259,-1.6252,-1.6096,-1.6212,-1.63,-1.6307,-1.6374,-1.6442,-1.6466,-1.6524,-1.6558,-1.6581,-1.6707,-1.6781,-1.6856,-1.6931,-1.6971,-1.6971,-1.6897,-1.6822,-1.6754,-1.6673,-1.6506,-1.6415,-1.6341,-1.6266,-1.6191,-1.6117,-1.6083,-1.6069,-1.5969,-1.5813,-1.5594,-1.5221,-1.4984,-1.4828,-1.4604,-1.4468,-1.4387,-0.5403,-0.5447,-0.5452,-0.543,-0.5464,-0.5518,-0.554,-0.5863,-0.6328,-0.6948,-0.7777,-0.8431,-0.8754,-0.9333,-0.9607,-0.942,-1.0024,-1.0778,-1.1647,-1.2128,-1.263,-1.3193,-1.3336,-1.3403,-1.3403,-1.3553,-1.3585,-1.3585,-1.3727,-1.3795,-1.3795,-1.368,-1.3612,-1.3585,-1.3498,-1.3431,-1.3403,-1.3403,-1.3329,-1.3248,-1.3098,-1.2908,-1.2732,-1.2349,-1.2166,-1.2125,-1.1932,-1.1748,-1.1558,-1.1463,-1.124,-1.0961,-1.0988,-1.0846,-1.0541,-1.0089,-0.99,0.0,0.0,0.0,0.0,0.0,0.0,0.0,0.0,-1.2386,-1.2751,-1.3499,-1.3919,-1.4309,-1.4856,-1.5323,-1.571,-1.6103,-1.6273,-1.6381,-1.6469,-1.6402,-1.6286,-1.6103,-1.632,-1.6442,-1.6361,-1.6483,-1.6578,-1.6605,-1.6639,-1.6707,-1.6777,-1.6985,-1.7121,-1.7236,-1.7358,-1.7419,-1.7419,-1.7297,-1.7161,-1.7019,-1.6897,-1.6689,-1.6564,-1.6449,-1.6368,-1.63,-1.6151,-1.6083,-1.6076,-1.5996,-1.5928,-1.5881,-1.5588,-1.5316,-1.5031,-1.4848,-1.4618,-1.4401,0.0,-0.5572,-0.5637,-0.5508,-0.5497,-0.5545,-0.5653,-0.5919,-0.627,-0.6771,-0.7496,-0.815,-0.8653,-0.906,-0.9388,-0.9727,-1.0402,-1.1164,-1.2002,-1.2433,-1.2888,-1.3356,-1.339,-1.3403,-1.3403,-1.3553,-1.3585,-1.3585,-1.3727,-1.3795,-1.3795,-1.3781,-1.3707,-1.3585,-1.3572,-1.3526,-1.3403,-1.3403,-1.339,-1.3363,-1.3248,-1.3105,-1.2941,-1.2576,-1.2372,-1.2244,-1.2132,-1.1805,-1.1436,-1.1552,-1.1389,-1.12,-1.1301,-1.1226,-1.1063,-1.0711,-1.0305,-1.0069,-1.04,-1.0887,-1.1436,-1.2149,-1.2366,-1.2786,0.0,-1.4312,-1.4258,-1.5004,-1.5262,-1.5492,-1.5872,-1.6083,-1.6266,-1.6442,-1.6483,-1.6463,-1.6347,-1.6429,-1.6395,-1.6117,-1.6232,-1.6374,-1.649,-1.6581,-1.673,-1.6917,-1.7046,-1.7127,-1.7141,-1.729,-1.7378,-1.7392,-1.7412,-1.7419,-1.7419,-1.7405,-1.7317,-1.7168,-1.7154,-1.6998,-1.6669,-1.6655,-1.6506,-1.63,-1.6151,-1.6083,-1.6083,-1.6062,-1.6024,-1.5901,-1.5867,-1.5622,-1.533,-1.5045,-1.4835,-1.4647,0.0,-0.5605,-0.5675,-0.5621,-0.5615,-0.5632,-0.568,-0.593,-0.6281,-0.6792,-0.7321,-0.7864,-0.8408,-0.8737,-0.907,-0.943,-1.0202,-1.1002,-1.1755,-1.2386,-1.2889,-1.3383,-1.3403,-1.3403,-1.3403,-1.3553,-1.3585,-1.3585,-1.3727,-1.3842,-1.3973,-1.3842,-1.3768,-1.3707,-1.3626,-1.3546,-1.3403,-1.3403,-1.3403,-1.3376,-1.3186,-1.3057,-1.2962,-1.2528,-1.2176,-1.1877,-1.1728,-1.1587,0.0,-1.1232,-1.111,-1.1063,-1.1247,-1.1158,-1.0995,-1.0745,-1.0738,-1.0982,-1.1658,-1.2155,-1.2562,-1.3139,-1.3614,-1.4122,-1.486,-1.5025,-1.5215,-1.5703,-1.5988,-1.6191,-1.6313,-1.6537,-1.672,0.0,-1.6856,-1.689,-1.6829,-1.6646,-1.6476,-1.6354,-1.632,-1.6368,-1.651,-1.6608,-1.6797,-1.7087,-1.7161,-1.7229,-1.7317,-1.7412,-1.75,-1.75,-1.7629,-1.7684,-1.7684,-1.7595,-1.7473,-1.7324,-1.7236,-1.7087,-1.6883,-1.6736,-1.654,-1.6307,-1.6239,-1.6164,-1.6083,-1.6083,-1.6092,-1.603,-1.5935,-1.573,-1.5458,-1.5208,-1.4943,-1.4708,0.0,-0.5254,-0.5396,-0.5663,-0.5691,-0.5691,-0.5691,-0.593,-0.6251,-0.6689,-0.7174,-0.7715,-0.8235,-0.8492,-0.875,-0.9036,-0.9815,-1.0629,-1.1347,-1.2097,-1.2766,-1.3261,-1.3315,-1.3356,-1.3397,-1.3553,-1.3585,-1.3585,-1.3727,-1.3919,-1.4112,-1.3869,-1.3795,-1.3788,-1.3653,-1.3546,-1.3403,-1.3403,-1.3403,-1.3376,-1.3166,-1.3009,-1.2854,-1.2447,-1.1986,-1.1545,-1.143,-1.126,-1.1056,-1.0846,-1.0765,-1.0759,-1.0968,-1.0934,-1.0874,-1.0961,-1.1402,-1.1945,-1.2515,-1.3003,-1.3478,-1.3923,-1.4597,-1.5113,-1.5241,-1.5499,-1.5832,-1.609,-1.6313,-1.6476,-1.6517,-1.6741,-1.6931,-1.6971,-1.71,-1.7175,-1.7141,-1.6815,-1.6558,-1.6469,-1.6334,-1.63,-1.6449,-1.6588,-1.6804,-1.7114,-1.7209,-1.7324,-1.7473,-1.7629,-1.7704,-1.7704,-1.7812,-1.7915,-1.7915,-1.7758,-1.7629,-1.7426,-1.7331,-1.7182,-1.7032,-1.6784,-1.656,-1.6368,-1.6368,-1.6259,-1.6083,-1.613,-1.6466,-1.6906,-1.6201,-1.6474,-1.7176,-1.6423,-1.5552,-1.4821,0.0,0.0,-0.4634,-0.553,-0.5691,-0.5691,-0.5691,-0.593,-0.6154,-0.6287,-0.6999,-0.7715,-0.8235,-0.8423,-0.8554,-0.871,-0.9379,-1.013,-1.0887,-1.1667,-1.239,-1.2989,-1.3146,-1.3247,-1.3397,-1.3553,-1.3585,-1.3585,-1.3727,-1.3919,-1.4112,-1.3869,-1.3795,-1.3788,-1.3653,-1.3546,-1.3403,-1.3403,-1.3403,-1.339,-1.3268,-1.2996,-1.2665,-1.2406,-1.1918,-1.1396,-1.1396,-1.0928,-1.0363,-1.046,-1.0412,-1.0324,-1.0466,-1.0609,-1.0833,-1.155,-1.2325,-1.2894,-1.2583,-1.3152,-1.3923,-1.4518,-1.5012,-1.5472,-1.5813,-1.6003,-1.611,-1.6273,-1.6307,-1.6361,-1.6497,-1.6601,-1.6757,-1.6958,-1.71,-1.7148,-1.7005,-1.6842,-1.6588,-1.6347,-1.6185,-1.6151,0.0,-1.6527,-1.6815,-1.6978,-1.7249,-1.7426,-1.7575,-1.7772,-1.786,-1.786,-1.7915,-1.7915,-1.7915,-1.786,-1.7792,-1.7595,-1.7433,-1.7331,-1.7175,-1.6831,-1.6615,-1.6517,-1.6517,-1.6347,-1.6096,-1.6239,-1.7399,-1.892,-1.6864,-1.8313,-2.1288,-1.9238,-1.7026,-1.501,0.0,0.0,0.0,-0.4723,-0.5285,-0.5691,-0.5691,-0.5774,-0.5953,-0.6259,-0.7026,0.0,0.0,0.0,0.0,0.0,-0.942,-1.0053,-1.0609,-1.1348,-1.1993,-1.2494,-1.2887,-1.3139,-1.3247,-1.3397,-1.3478,-1.3478,-1.3526,-1.3627,-1.3777,-1.368,-1.366,-1.3653,-1.3605,-1.3546,-1.3403,-1.3403,-1.3403,-1.337,-1.3017,-1.282,-1.2638,-1.2176,-1.1577,-1.1036,0.0,-1.0507,-1.0089,-1.0066,-1.0012,-1.0019,-1.027,-1.0385,-1.0616,-1.1516,-1.2298,-1.2915,-1.341,-1.4055,-1.4685,-1.5086,-1.5445,-1.5757,-1.601,-1.6123,-1.6246,-1.63,-1.6307,-1.6327,-1.6374,-1.6503,-1.668,-1.6937,-1.71,-1.7209,-1.7263,-1.7141,-1.6897,-1.6497,-1.6402,0.0,0.0,0.0,0.0,-1.7087,-1.7216,-1.7419,-1.7772,-1.7846,-1.7915,-1.7915,-1.7915,-1.7915,-1.7915,-1.7915,-1.7792,-1.7595,-1.7392,-1.7243,-1.7182,-1.6992,-1.6761,-1.6524,-1.6524,-1.6354,-1.6083,-1.6137,-1.6572,-1.7062,-1.6374,-1.6834,-1.7736,-1.6913,-1.6046,-1.5437,0.0,0.0,0.0,0.0,0.0,0.0,0.0,0.0,0.0,0.0,0.0,0.0,0.0,0.0,0.0,0.0,0.0,-0.9774,-1.0222,-1.0812,-1.1389,-1.1945,-1.2281,-1.2494,-1.2691,-1.2739,-1.284,-1.3003,-1.3003,-1.3166,-1.3464,-1.3417,-1.3417,-1.3464,-1.341,-1.3336,-1.3241,-1.3186,-1.3159,-1.3119,-1.2571,-1.2341,-1.2233,-1.1692,-1.1144,0.0,-1.0426,-1.0109,-0.9839,-0.9713,-0.9734,-0.9876,-1.0181,-1.0643,-1.1219,-1.1901,-1.2618,-1.3403,-1.4306,-1.4835,-1.5228,-1.5628,-1.5872,-1.6029,-1.6069,-1.6117,-1.6117,-1.6008,-1.5947,-1.5872,-1.5771,-1.5872,-1.6117,-1.6585,-1.6822,-1.706,-1.7378,-1.729,-1.7087,-1.6795,-1.6615,-1.6551,0.0,0.0,0.0,-1.7087,-1.7263,-1.7507,-1.7902,-1.7915,-1.7915,-1.7915,-1.7915,-1.7915,-1.7915,-1.7915,-1.7758,-1.7507,-1.7365,-1.7216,-1.7114,-1.7073,-1.6863,-1.6524,-1.6639,-1.649,-1.6171,-1.6218,-1.6656,-1.7199,-1.6457,-1.692,-1.7918,-1.7049,-1.7058,-1.7537,0.0,0.0,0.0,0.0,0.0,0.0,0.0,0.0,0.0,0.0,0.0,0.0,0.0,0.0,0.0,0.0,0.0,0.0,-0.9731,-1.0086,-1.0621,-1.1301,-1.1362,-1.1511,-1.1766,-1.1658,-1.1843,-1.2264,-1.2277,-1.2562,-1.3152,-1.3016,-1.303,-1.3152,-1.3016,-1.2955,-1.2941,-1.2752,-1.2645,-1.2591,-1.1996,-1.1678,-1.1545,-1.107,-1.063,-1.0263,-1.0076,-0.9825,-0.9591,-0.9469,-0.9646,-0.9964,-1.0283,-1.1362,-1.2549,-1.2693,-1.341,-1.4299,-1.5181,-1.5438,-1.5594,-1.6164,-1.6307,-1.6266,-1.6103,-1.5996,-1.5792,-1.5452,-1.5255,-1.5045,-1.4701,-1.4841,-1.5208,-1.5927,-1.6327,-1.6748,-1.7338,-1.7311,-1.7216,0.0,0.0,0.0,0.0,0.0,0.0,-1.6992,0.0,-1.7649,-1.786,-1.7915,-1.7936,-1.7936,-1.7936,-1.7936,-1.7936,-1.7915,-1.7724,-1.7433,-1.7426,-1.727,-1.6998,-1.7121,-1.6944,-1.6551,-1.6836,-1.6714,-1.632,-1.6456,-1.7625,-1.9175,-1.725,-1.8686,-2.1661,-1.9676,-1.9967,-2.1039,0.0,0.0,0.0,0.0,0.0,0.0,0.0,0.0,0.0,0.0,0.0,0.0,0.0,0.0,0.0,0.0,0.0,0.0,-0.9342,-0.9846,-1.0274,-1.058,-1.1023,-1.1342,-1.1497,-1.1644,-1.1793,-1.1945,-1.206,-1.2234,-1.2383,-1.2349,-1.2349,-1.2383,-1.2343,-1.2329,-1.2315,-1.2128,-1.2023,-1.1983,-1.1531,-1.1349,-1.1246,-1.0907,-1.0568,-1.0263,-1.0076,-0.9825,-0.9652,-0.9951,-1.0548,-1.1233,-1.1647,-1.2189,-1.2747,-1.3342,-1.3998,-1.4674,-1.535,-1.5776,-1.6117,-1.6273,-1.6307,-1.6239,-1.6024,-1.571,-1.5438,-1.5147,-1.4787,-1.4434,-1.4086,-1.4563,-1.5153,-1.5513,-1.6307,0.0,-1.7365,-1.7575,0.0,-1.7236,0.0,-1.7182,-1.6998,-1.7141,0.0,0.0,-1.7311,-1.7473,-1.7902,-1.7968,-1.8036,-1.8036,-1.8036,-1.8036,-1.8036,-1.797,-1.7772,-1.7534,-1.7473,-1.7324,-1.7134,-1.7066,-1.691,-1.6635,-1.6653,-1.651,-1.6313,-1.6347,-1.7515,-1.9198,-1.8794,-2.0081,-2.2099,-2.1465,-2.1389,-2.1697,0.0,0.0,0.0,0.0,0.0,0.0,0.0,0.0,0.0,0.0,0.0,0.0,0.0,0.0,0.0,0.0,0.0,0.0,0.0,-0.9528,-0.9812,-1.0066,-1.0337,-1.0582,-1.0765,-1.0867,-1.1009,-1.124,-1.1328,-1.1513,-1.1703,-1.1703,-1.1703,-1.1703,-1.1703,-1.1703,-1.1696,-1.1504,-1.1408,0.0,0.0,-1.0812,-1.0778,-1.0439,-1.0222,-1.0066,-0.9947,-1.0109,-1.0473,-1.0989,-1.1626,-1.2277,-1.2657,-1.3112,-1.3592,-1.4251,-1.4721,-1.5215,-1.5817,-1.6209,-1.6439,-1.6422,-1.6354,-1.6164,-1.5643,-1.5282,-1.4923,-1.4275,-1.3982,-1.3654,-1.3152,-1.3729,-1.4421,-1.4855,0.0,0.0,-1.7344,-1.7623,-1.7758,0.0,-1.765,0.0,-1.7568,-1.765,-1.7738,0.0,-1.767,-1.7704,-1.7948,-1.8111,-1.8158,-1.8091,-1.8091,-1.8057,-1.7989,-1.7956,-1.7758,-1.7494,-1.746,-1.7311,-1.71,-1.7154,-1.7019,-1.6696,0.0,-1.6598,-1.6402,-1.6402,-1.7012,-1.7926,-1.8084,-1.8702,-1.9593,-1.9494,-1.9919,-2.0634,0.0,0.0,0.0,0.0,0.0,0.0,0.0,0.0,0.0,0.0,0.0,0.0,0.0,0.0,0.0,0.0,0.0,0.0,0.0,0.0,-0.9383,-0.9747,-0.968,-0.9724,-0.9981,-0.9879,-1.0046,-1.0432,-1.0453,-1.0696,-1.1077,-1.1077,-1.1077,-1.1077,-1.1077,-1.1077,-1.107,-1.086,-1.0792,-1.0759,-1.0385,-1.0215,-1.0188,0.0,-0.9792,-0.9792,-0.9792,-1.046,-1.1396,-1.202,-1.2662,-1.3207,-1.3505,-1.4082,-1.4713,-1.5147,-1.5472,-1.5769,-1.6374,-1.6581,-1.6662,-1.6506,-1.6402,-1.6042,-1.5147,-1.476,-1.4272,-1.3173,-1.2989,-1.2793,-1.2166,-1.2752,-1.3573,-1.4197,0.0,-1.6374,-1.729,-1.7609,-1.7868,-1.8233,-1.8133,-1.8134,-1.8301,-1.8199,-1.8179,-1.8301,-1.8213,-1.8145,-1.8124,-1.8267,-1.8287,-1.8124,-1.8111,-1.8023,-1.7915,-1.7915,-1.7724,-1.7453,-1.7433,-1.7277,-1.7019,-1.7256,-1.7307,-1.7197,0.0,0.0,-1.7385,-1.7399,-1.7306,-1.7171,-1.7625,-1.7603,-1.7389,-1.7657,-1.8808,-2.0175,0.0,0.0,0.0,0.0,0.0,0.0,0.0,0.0,0.0,0.0,-0.6294,-0.6933,0.0,0.0,0.0,0.0,0.0,0.0,0.0,0.0,0.0,-0.9456,-0.9666,-0.9778,-0.9832,-0.9927,-1.0015,-1.0096,-1.0256,-1.039,-1.0465,-1.0465,-1.0465,-1.0465,-1.0465,-1.0465,-1.0458,-1.0238,-1.017,-1.0157,-0.9954,-0.9903,-0.9897,-0.9812,0.0,0.0,-0.9792,-1.0224,-1.0948,-1.1667,-1.2786,-1.4016,-1.4568,-1.4957,-1.5316,-1.569,-1.5915,-1.6083,-1.6429,-1.6581,-1.6662,-1.6506,-1.632,-1.5886,-1.4938,-1.4241,-1.3545,-1.2752,-1.2305,-1.1986,-1.1742,-1.2528,-1.3451,-1.4183,-1.5194,-1.6303,-1.7277,-1.7982,-1.8321,0.0,-1.8642,-1.8811,-1.8321,0.0,0.0,0.0,0.0,-1.8409,-1.8287,-1.8409,-1.8423,-1.8287,-1.8158,-1.8023,-1.7915,-1.7915,-1.7772,-1.7554,-1.7426,-1.7324,-1.7154,-1.7087,-1.7997,-1.9659,-1.9608,0.0,-2.1875,-2.2138,-2.1943,-2.1687,-2.3678,-2.4257,-2.4212,-2.5853,-2.65,-2.6597,0.0,0.0,0.0,0.0,0.0,0.0,0.0,-0.2534,-0.3832,-0.5278,-0.5962,-0.668,-0.7562,-0.7933,-0.8211,0.0,0.0,0.0,0.0,0.0,0.0,-0.9496,-0.9639,-0.9717,-0.9792,-0.9859,-0.99,-0.99,0.0,-1.0039,-1.0039,-1.0039,-1.0039,-1.0039,-1.0039,-1.0039,-1.0039,-0.9934,-0.99,-0.9893,-0.9819,-0.9792,-0.9792,-0.9792,0.0,0.0,-0.9879,-1.0292,-1.088,-1.1394,-1.2549,-1.3838,-1.4516,-1.5045,-1.5452,-1.5676,-1.5961,-1.6246,-1.6463,-1.6581,-1.6662,-1.6506,-1.6123,-1.5479,-1.4451,-1.3756,-1.3003,-1.2043,-1.1839,-1.1689,-1.1206,-1.2155,-1.308,-1.3397,-1.4421,-1.5574,-1.6781,-1.742,-1.788,-1.8289,-1.861,-1.8735,0.0,0.0,0.0,0.0,0.0,-1.8586,-1.8386,-1.8423,-1.8389,-1.8321,-1.8091,-1.799,-1.7915,-1.7915,-1.7792,-1.7595,-1.744,-1.7338,-1.7242,-1.8323,-1.9338,-2.0375,-2.1432,0.0,-2.3023,-2.3118,-2.2985,-2.277,-2.3859,-2.4236,-2.4214,-2.5026,-2.5941,-2.6779,0.0,0.0,0.0,0.0,0.0,0.0,0.0,-0.1591,-0.2557,-0.4506,-0.5465,-0.6388,-0.7561,-0.7995,-0.8325,0.0,0.0,0.0,0.0,0.0,0.0,0.0,0.0,-0.9707,-0.9792,0.0,0.0,0.0,-0.9792,0.0,0.0,0.0,0.0,0.0,-0.9792,-0.9792,-0.9792,-0.9792,-0.9792,0.0,0.0,-0.9839,0.0,0.0,0.0,0.0,0.0,-1.0272,-1.0732,-1.1165,-1.202,-1.3051,-1.3797,-1.4624,-1.535,-1.5492,-1.5886,-1.6252,-1.6429,-1.6533,-1.6666,-1.6612,-1.6061,-1.5226,-1.4164,-1.3453,-1.2642,-1.1489,-1.1531,-1.1572,-1.1035,-1.1838,-1.2643,-1.2826,-1.3731,-1.4965,-1.6424,-1.702,-1.7659,0.0,-1.8811,0.0,-1.898,0.0,0.0,0.0,0.0,0.0,-1.8586,-1.8409,-1.8321,-1.8321,-1.8023,-1.8129,-1.8626,-1.8626,-1.8775,-1.9151,-1.8953,-1.8791,-1.8765,-2.0426,-2.1351,-2.1829,-2.3536,0.0,0.0,-2.4418,-2.4068,-2.3472,-2.3869,-2.3819,-2.3443,-2.367,-2.4779,-2.613,0.0,0.0,0.0,0.0,0.0,0.0,0.0,-0.1195,-0.2092,-0.2382,-0.4568,-0.6141,-0.6255,-0.75,-0.8342,0.0,0.0,0.0,0.0,0.0,0.0,0.0,0.0,0.0,0.0,0.0,0.0,0.0,0.0,0.0,0.0,0.0,0.0,0.0,0.0,0.0,-0.9792,-0.9792,0.0,0.0,0.0,0.0,0.0,0.0,0.0,0.0,0.0,-0.9846,-1.0001,-1.0711,-1.1158,-1.154,-1.2257,-1.3654,-1.5112,-1.535,-1.5649,-1.601,-1.6252,-1.6435,-1.6612,-1.6968,-1.639,-1.553,-1.4565,-1.3604,-1.2634,-1.1676,-1.137,-1.1316,-1.1556,-1.1804,-1.2288,-1.318,-1.3874,-1.4976,-1.6772,-1.788,-1.8536,-1.881,0.0,0.0,-1.9683,0.0,0.0,0.0,0.0,0.0,-1.8742,-1.8477,-1.8321,-1.8321,-1.8023,-1.8909,-2.0984,-2.0984,-2.2063,-2.4145,-2.3759,-2.3566,-2.3529,-2.3369,-2.438,-2.6271,-2.6538,0.0,0.0,-2.9048,-2.7831,-2.5993,-2.8011,-2.7554,-2.6022,-2.7723,-2.8329,-2.832,0.0,0.0,0.0,0.0,0.0,0.0,0.0,-0.0445,-0.1123,-0.2001,-0.3864,-0.5417,-0.6141,-0.7508,-0.8389,-0.8515,0.0,0.0,0.0,0.0,0.0,0.0,0.0,0.0,0.0,0.0,-0.9927,-0.9927,0.0,0.0,0.0,0.0,0.0,0.0,0.0,0.0,0.0,-0.9792,0.0,0.0,0.0,0.0,0.0,0.0,0.0,0.0,0.0,0.0,-1.0127,-1.0305,-1.065,-1.107,-1.128,-1.2361,-1.3694,-1.4421,-1.5243,-1.5993,-1.6141,-1.6732,-1.7292,-1.712,-1.6565,-1.5729,-1.4671,-1.3728,-1.2765,-1.1736,-1.1695,-1.1818,-1.1607,-1.1803,-1.2193,-1.2856,-1.3191,-1.4025,-1.5918,-1.6524,-1.7299,-1.8696,-1.9216,0.0,0.0,0.0,0.0,0.0,0.0,0.0,-1.9864,-1.9213,-1.8831,-1.8831,-1.8524,-1.8798,-1.9728,-2.0756,-2.1743,-2.2711,-2.2443,-2.3001,-2.4202,-2.3856,-2.4901,-2.6947,-2.8297,0.0,0.0,-2.9586,-2.8994,-2.8171,-2.888,-2.8613,-2.7951,-2.8701,-2.885,-2.862,0.0,0.0,0.0,0.0,0.0,0.0,0.0,0.0,-0.0353,-0.135,-0.3173,-0.4699,-0.5551,-0.7238,-0.8393,-0.8557,-0.8846,0.0,0.0,0.0,0.0,0.0,0.0,0.0,0.0,0.0,-1.0042,-1.0082,-1.027,0.0,0.0,0.0,0.0,0.0,0.0,0.0,0.0,0.0,0.0,0.0,0.0,0.0,0.0,0.0,0.0,0.0,0.0,0.0,0.0,0.0,0.0,-1.0698,-1.0622,-1.1324,-1.2388,-1.3507,-1.4757,-1.5774,-1.5967,-1.6813,-1.7528,-1.7331,-1.6773,-1.6025,-1.4892,-1.4005,-1.3094,-1.2023,-1.2096,-1.216,-1.1731,-1.1929,-1.2298,-1.2646,-1.2997,-1.3835,-1.5679,-1.5959,-1.6724,-1.8618,0.0,0.0,0.0,0.0,0.0,0.0,0.0,0.0,0.0,-1.9541,-1.9312,-1.9454,-1.9173,-1.9346,-2.001,-2.1743,-2.2938,-2.3647,-2.3971,-2.4919,-2.631,-2.6033,-2.6743,-2.8193,0.0,0.0,0.0,-2.9634,-2.9513,-2.9501,-2.932,-2.9248,-2.9236,-2.9163,-2.897,-2.8729,0.0,0.0,0.0,0.0,0.0,0.0,0.0,0.0,0.0,-0.0031,-0.2393,-0.4111,-0.4111,-0.65,-0.8213,-0.8483,-0.8743,0.0,0.0,0.0,0.0,0.0,0.0,0.0,0.0,0.0,-1.0096,-1.0308,-1.0419,-1.0487,-1.0487,0.0,0.0,0.0,0.0,0.0,0.0,0.0,0.0,0.0,0.0,0.0,0.0,0.0,0.0,0.0,0.0,0.0,0.0,0.0,0.0,0.0,0.0,-1.0714,-1.1467,-1.2816,-1.409,-1.5227,-1.5743,-1.639,-1.7037,-1.7567,-1.7134,-1.6349,-1.5399,-1.4532,-1.3626,-1.2767,-1.2422,-1.2227,-1.2034,-1.2326,-1.2635,-1.2676,-1.3634,-1.4922,-1.6484,-1.6838,-1.7468,0.0,0.0,0.0,0.0,0.0,0.0,0.0,0.0,0.0,-1.882,-1.9195,-1.9605,-2.006,-1.9945,-2.0938,-2.3056,-2.479,-2.6796,-2.9146,-3.0605,-3.1279,-3.132,-3.1055,-3.0934,0.0,0.0,0.0,0.0,-2.9912,-2.9791,-2.9791,-2.9791,-2.9791,-2.9755,-2.9501,-2.9236,-2.897,0.0,0.0,0.0,0.0,0.0,0.0,0.0,0.0,0.0,0.0,-0.1593,-0.3091,-0.4013,-0.5693,-0.7197,-0.8389,-0.8528,0.0,0.0,0.0,0.0,0.0,0.0,0.0,0.0,-1.0073,-1.0331,-1.0582,-1.0698,-1.0853,-1.0982,-1.0744,-1.0541,0.0,0.0,0.0,0.0,0.0,0.0,0.0,0.0,0.0,0.0,0.0,0.0,0.0,0.0,0.0,0.0,0.0,0.0,0.0,0.0,0.0,0.0,-1.1516,-1.3094,-1.4797,-1.4912,-1.581,-1.6608,-1.6279,-1.612,-1.5776,-1.4759,-1.4297,-1.3818,-1.2812,-1.2716,-1.2799,-1.2573,-1.2631,-1.3021,-1.3923,-1.4377,-1.5232,-1.6957,-1.7351,0.0,-1.9559,-2.0714,0.0,0.0,0.0,0.0,0.0,0.0,0.0,-2.2481,-2.2662,-2.1756,-1.9567,-1.9344,-2.0344,-2.2463,-2.4182,-2.6461,-2.9221,-2.9083,-3.0041,-3.1846,-2.9618,0.0,0.0,0.0,0.0,0.0,-2.9984,-2.9791,-2.9791,-2.9791,-2.9574,-2.9272,-2.9369,-2.9127,-2.8729,0.0,0.0,0.0,0.0,0.0,0.0,0.0,0.0,0.0,0.0,-0.1208,-0.2597,-0.395,-0.5242,-0.6646,-0.8228,-0.7912,0.0,0.0,0.0,0.0,0.0,0.0,0.0,-0.9873,-1.0154,-1.048,-1.0887,-1.1009,-1.1192,-1.137,-1.1145,-1.0853,-1.0575,-1.0487,0.0,0.0,0.0,0.0,0.0,0.0,0.0,0.0,0.0,0.0,0.0,0.0,0.0,0.0,0.0,0.0,0.0,0.0,0.0,0.0,0.0,-1.2373,-1.3892,-1.4072,-1.5131,-1.6045,-1.5534,-1.5519,-1.5448,-1.45,-1.4179,-1.3852,-1.2958,-1.2958,-1.3031,-1.277,-1.293,-1.335,-1.4156,-1.4585,-1.5377,-1.6947,-1.7502,0.0,-1.9903,0.0,0.0,0.0,0.0,0.0,0.0,0.0,0.0,-2.5225,-2.534,-2.4283,-2.2114,-2.2102,-2.2753,-2.3992,-2.5643,-2.739,-2.9221,-2.9301,-3.0298,-3.1952,-3.003,0.0,0.0,0.0,0.0,0.0,-3.0177,-2.9948,-2.9948,-2.9948,-2.9755,-2.9465,-2.9417,-2.92,-2.8886,0.0,0.0,0.0,0.0,0.0,0.0,0.0,0.0,0.0,0.0,-0.1179,-0.2524,-0.3943,-0.5093,-0.6337,-0.7811,0.0,0.0,0.0,0.0,0.0,0.0,0.0,0.0,-0.9984,-1.0209,-1.0621,-1.1213,-1.1376,-1.1511,-1.1644,-1.1638,-1.1313,-1.0752,-1.0738,-1.0595,0.0,0.0,0.0,0.0,0.0,0.0,0.0,0.0,0.0,0.0,0.0,0.0,0.0,0.0,0.0,0.0,0.0,0.0,0.0,0.0,0.0,0.0,0.0,-1.4337,-1.5264,-1.5098,-1.5194,-1.5179,-1.446,-1.4091,0.0,-1.3197,-1.3108,-1.3023,-1.2759,-1.3208,-1.3681,-1.3777,-1.4522,-1.552,-1.6744,-1.751,0.0,0.0,0.0,0.0,0.0,0.0,0.0,0.0,0.0,0.0,-2.7316,-2.7316,-2.733,-2.73,-2.7657,-2.7618,-2.7197,-2.8457,-2.9254,-2.9469,-3.1035,-3.1783,-3.186,-3.1783,0.0,0.0,0.0,0.0,0.0,-3.0431,-3.0214,-3.0214,-3.0214,-3.0202,-3.0129,-2.9622,-2.9405,-2.9308,0.0,0.0,0.0,0.0,0.0,0.0,0.0,0.0,0.0,0.0,-0.1179,-0.25,-0.379,-0.4201,-0.4933,0.0,0.0,0.0,0.0,0.0,0.0,0.0,0.0,0.0,-0.9984,-1.031,-1.0738,-1.1335,-1.1599,-1.1918,-1.2291,-1.2182,-1.187,-1.1367,-1.1287,-1.1002,0.0,0.0,0.0,0.0,0.0,0.0,0.0,0.0,0.0,0.0,0.0,-0.9994,0.0,0.0,0.0,0.0,0.0,0.0,0.0,0.0,-1.1378,-1.2147,-1.2123,0.0,-1.3642,-1.3604,-1.3728,-1.379,0.0,-1.3449,-1.3451,-1.3149,-1.3206,-1.3433,-1.3776,-1.3957,-1.4403,-1.5489,-1.5983,-1.6641,-1.79,-1.9304,0.0,0.0,0.0,0.0,0.0,0.0,0.0,0.0,0.0,-2.8833,-3.0384,-3.0418,-3.1307,-3.312,-3.3101,-3.175,-2.9032,-2.8695,-2.9608,-3.1783,-3.1578,-3.1814,-3.2381,-3.179,0.0,0.0,0.0,0.0,-3.0962,-3.0431,-3.0214,-3.0214,-3.0214,-3.0081,-2.9876,-2.9755,-2.9453,-2.9091,0.0,0.0,0.0,0.0,0.0,0.0,0.0,0.0,0.0,0.0,0.0,-0.2251,-0.2962,-0.354,0.0,0.0,0.0,0.0,0.0,0.0,0.0,0.0,0.0,-0.9893,-1.0116,-1.0378,-1.0819,-1.1497,-1.1685,-1.2023,-1.2501,-1.2359,-1.2047,-1.157,-1.1246,-1.0989,0.0,0.0,0.0,0.0,0.0,0.0,0.0,0.0,0.0,0.0,-0.9819,-0.9886,0.0,-1.0076,-1.0195,-1.0295,0.0,0.0,0.0,0.0,-1.1019,-1.1541,-1.189,-1.2629,-1.3316,-1.3338,-1.3563,-1.3693,-1.3506,-1.3352,-1.3223,-1.3011,-1.3189,-1.3549,-1.3969,-1.4253,-1.4781,-1.5878,-1.6357,-1.7237,-1.8996,0.0,0.0,0.0,0.0,0.0,0.0,0.0,0.0,0.0,0.0,-3.2662,-3.3552,-3.3583,-3.4234,-3.5553,-3.4935,-3.3679,-3.1783,-3.1144,-3.1612,-3.302,-3.2287,-3.2181,-3.2594,-3.1782,-3.1469,0.0,0.0,0.0,-3.0793,-3.0515,-3.025,-3.0033,-3.0165,-3.0045,-2.9791,-2.9791,-2.9622,-2.9344,0.0,0.0,0.0,0.0,0.0,0.0,0.0,0.0,0.0,0.0,0.0,0.0,0.0,0.0,0.0,0.0,0.0,0.0,0.0,0.0,0.0,0.0,-0.994,-1.0046,-1.0378,-1.048,-1.0894,-1.1617,-1.178,-1.2121,-1.2535,-1.2461,-1.2149,-1.1626,-1.105,-1.0813,-1.0914,0.0,0.0,0.0,0.0,0.0,0.0,0.0,0.0,0.0,0.0,0.0,0.0,-1.031,-1.0358,-1.0356,-1.0436,0.0,0.0,0.0,0.0,0.0,-1.2146,-1.3026,-1.3668,-1.3598,-1.3898,-1.4168,-1.3945,-1.3547,-1.3173,-1.2994,-1.3262,-1.3663,-1.4066,-1.4546,-1.513,-1.5926,-1.6584,-1.7783,-1.9941,-2.2416,-2.4666,0.0,0.0,0.0,0.0,0.0,0.0,0.0,0.0,-3.6759,-3.6233,-3.6233,-3.6233,-3.6233,-3.5216,-3.4647,-3.4596,-3.406,-3.3727,-3.3498,-3.2967,-3.2742,-3.2639,-3.1969,-3.1607,-3.153,0.0,0.0,-3.066,-3.0727,-3.0361,-2.9876,-3.0182,-3.0059,-2.9791,-2.9791,-2.9767,-2.967,0.0,0.0,0.0,0.0,0.0,0.0,0.0,0.0,0.0,0.0,0.0,0.0,0.0,0.0,0.0,0.0,0.0,0.0,0.0,0.0,0.0,-1.0426,-1.029,-1.0412,-1.0799,-1.0704,-1.1016,-1.1759,-1.2081,-1.2386,-1.2659,-1.2929,-1.2596,-1.1739,-1.1307,-1.1043,-1.0921,-1.1077,0.0,0.0,0.0,0.0,0.0,0.0,0.0,0.0,0.0,0.0,0.0,-0.992,-1.0161,-1.0463,-1.0349,0.0,0.0,0.0,0.0,0.0,-1.2718,-1.3522,-1.4002,-1.3526,-1.3804,-1.4168,-1.3945,-1.3839,-1.3766,-1.3742,-1.3904,-1.4302,-1.5122,-1.5455,-1.5991,-1.7117,-1.8192,-1.9338,0.0,0.0,0.0,0.0,0.0,0.0,0.0,0.0,0.0,0.0,0.0,-3.7139,-3.6788,-3.6761,-3.6761,-3.6761,-3.6401,-3.6041,-3.5802,-3.431,-3.3549,-3.3498,-3.3392,-3.3225,-3.2997,-3.2894,-3.2566,-3.2069,0.0,-3.139,-3.0978,-3.116,-3.0827,-3.018,-3.045,-3.024,-2.9791,-2.9791,-2.9658,-2.9417,0.0,0.0,0.0,0.0,0.0,0.0,0.0,0.0,0.0,0.0,0.0,0.0,0.0,0.0,0.0,0.0,0.0,0.0,0.0,0.0,-1.0772,-1.0887,-1.0907,-1.09,-1.0914,-1.1036,-1.1409,-1.2081,-1.2379,-1.2678,-1.2963,-1.2779,-1.2345,-1.1665,-1.1363,-1.1159,-1.107,-1.1226,-1.1335,0.0,0.0,0.0,0.0,0.0,0.0,0.0,0.0,0.0,0.0,0.0,-1.0256,-1.0517,-1.063,0.0,0.0,0.0,0.0,0.0,-1.2411,-1.3168,-1.369,-1.3901,-1.4497,-1.5055,-1.4935,-1.4684,-1.4505,-1.4603,-1.4692,-1.4935,-1.5545,-1.604,-1.6828,-1.8282,0.0,-2.0714,0.0,0.0,0.0,0.0,0.0,0.0,0.0,0.0,0.0,0.0,0.0,0.0,-3.6885,-3.6885,-3.6805,-3.6672,-3.6433,-3.6126,-3.5832,-3.4873,-3.4398,-3.4398,-3.4081,-3.3858,-3.3716,-3.3146,-3.2834,-3.2686,0.0,-3.2041,-3.1709,-3.1619,-3.1156,-3.0449,-3.0725,-3.0502,-3.0007,-3.0204,-3.013,-3.0007,0.0,0.0,0.0,0.0,0.0,0.0,0.0,0.0,0.0,0.0,0.0,0.0,0.0,0.0,0.0,0.0,0.0,0.0,0.0,-0.9742,-1.0887,-1.1104,-1.126,-1.1314,-1.1232,-1.1416,-1.1809,-1.2447,-1.2637,-1.2881,-1.32,-1.2637,-1.2155,-1.1708,-1.1402,-1.1288,-1.1261,-1.1376,-1.1477,0.0,0.0,0.0,0.0,0.0,0.0,0.0,0.0,0.0,0.0,0.0,0.0,0.0,0.0,0.0,0.0,-1.1588,-1.141,-1.1318,-1.2298,-1.2924,-1.3464,-1.4277,-1.5041,-1.569,-1.5943,-1.5584,-1.5252,-1.5561,-1.5634,-1.5732,-1.6097,-1.6844,0.0,-1.9273,-2.0198,-2.1788,0.0,0.0,0.0,0.0,0.0,0.0,0.0,0.0,0.0,0.0,0.0,0.0,-3.6885,-3.6885,-3.6794,-3.6513,-3.6219,-3.5925,-3.5578,-3.5338,-3.5191,-3.5191,-3.4716,-3.4465,-3.4386,-3.3499,-3.3162,-3.3262,-3.2981,-3.2686,-3.2405,-3.226,-3.169,-3.0927,-3.1164,-3.0964,-3.0478,-3.059,-3.0702,-3.0789,0.0,0.0,0.0,0.0,0.0,0.0,0.0,0.0,0.0,0.0,0.0,0.0,0.0,0.0,0.0,0.0,0.0,0.0,0.0,-0.9726,-1.0656,-1.0914,-1.1104,-1.1533,-1.2176,-1.1938,-1.2162,-1.2955,-1.2793,-1.2881,-1.3207,-1.2847,-1.2461,-1.2057,-1.1721,-1.1504,-1.1375,-1.1389,-1.1477,-1.1606,-1.1443,0.0,0.0,0.0,0.0,0.0,0.0,0.0,0.0,0.0,0.0,0.0,0.0,0.0,-1.1977,-1.2178,-1.2096,-1.2136,-1.3059,-1.3431,-1.3744,-1.4476,-1.4854,-1.5324,-1.6334,-1.6146,-1.5959,-1.6803,-1.6974,-1.7039,-1.7234,-1.8312,-1.9338,-1.9957,-2.0751,-2.2261,0.0,0.0,0.0,0.0,0.0,0.0,0.0,0.0,0.0,0.0,0.0,0.0,-3.6885,-3.6885,-3.6794,-3.6513,-3.6219,-3.5925,-3.5578,-3.5338,-3.5191,-3.5191,-3.5138,-3.5004,-3.4738,-3.4352,-3.4069,-3.385,-3.3564,-3.3162,-3.2724,-3.3175,-3.2724,-3.1756,-3.2013,-3.1797,-3.1275,-3.0802,-3.1064,-3.1642,0.0,0.0,0.0,0.0,0.0,0.0,0.0,0.0,0.0,0.0,0.0,0.0,0.0,0.0,0.0,0.0,0.0,0.0,0.0,-1.0188,-1.0691,-1.0907,-1.1232,-1.1619,-1.1999,-1.2162,-1.2522,-1.3132,-1.3132,-1.3112,-1.3077,-1.2827,-1.2402,-1.1911,-1.1766,-1.1638,-1.1531,-1.1531,-1.1619,-1.1692,-1.1491,0.0,0.0,0.0,0.0,0.0,0.0,0.0,0.0,0.0,-1.0749,-1.1326,-1.1458,-1.1863,-1.2297,-1.2298,-1.2174,-1.2094,-1.2588,-1.3409,-1.416,-1.4427,-1.526,-1.6105,-1.659,-1.6844,-1.7185,-1.8087,-1.8184,-1.8168,-1.8347,-1.8948,-1.9597,-2.0133,-2.097,-2.2498,0.0,0.0,0.0,0.0,0.0,0.0,0.0,0.0,0.0,0.0,0.0,0.0,-3.6885,-3.6885,-3.6727,-3.6246,-3.6126,-3.5845,-3.5364,-3.5244,-3.5191,-3.5191,-3.5191,-3.5137,-3.5017,-3.4536,-3.4379,-3.4424,-3.3947,-3.3646,-3.3429,-3.3326,-3.2875,-3.2284,-3.2249,-3.2398,-3.2579,-3.1861,-3.1877,-3.2247,0.0,0.0,0.0,0.0,0.0,0.0,0.0,0.0,0.0,0.0,0.0,0.0,0.0,0.0,0.0,0.0,0.0,0.0,-0.9828,-1.0305,-1.059,-1.0833,-1.1185,-1.1502,-1.1786,-1.223,-1.2657,-1.3146,-1.3349,-1.3322,-1.3064,-1.2827,-1.2469,-1.207,-1.1965,-1.1877,-1.1823,-1.1728,-1.1705,-1.1773,-1.1558,-1.1369,0.0,0.0,0.0,0.0,0.0,0.0,0.0,0.0,-1.0871,-1.1419,-1.1679,-1.2096,-1.2501,-1.2427,-1.2418,-1.2483,-1.2613,-1.3514,-1.4452,-1.4678,-1.5642,-1.6625,-1.7109,-1.7551,-1.8079,-1.9037,-1.9094,-1.9045,-1.9281,-1.9524,0.0,0.0,-2.1108,0.0,0.0,0.0,0.0,0.0,0.0,0.0,0.0,0.0,0.0,0.0,0.0,0.0,0.0,-3.6805,-3.658,-3.6086,-3.5979,-3.5698,-3.5204,-3.5191,-3.5191,-3.5191,-3.5097,-3.5057,-3.5044,-3.4549,-3.4429,-3.4603,-3.4108,-3.3935,-3.3964,-3.3552,-3.3189,-3.2849,-3.2453,-3.2689,-3.3204,-3.2458,-3.2411,-3.2681,0.0,0.0,0.0,0.0,0.0,0.0,0.0,0.0,0.0,0.0,0.0,0.0,0.0,0.0,0.0,0.0,0.0,0.0,-0.9815,-0.9984,-1.0218,-1.0664,-1.0833,-1.1185,-1.1773,-1.2128,-1.2547,-1.3003,-1.3403,-1.3464,-1.32,-1.2868,-1.2686,-1.2665,-1.2264,-1.2186,-1.2264,-1.1922,-1.1793,-1.178,-1.1681,-1.1531,-1.1362,0.0,0.0,0.0,0.0,0.0,0.0,0.0,-1.1117,-1.1596,-1.2141,-1.2449,-1.2604,-1.2596,-1.2979,-1.3402,-1.3402,-1.3888,-1.4573,-1.5333,-1.5918,-1.6649,-1.79,-1.8231,-1.8493,-1.9581,-1.9654,-1.9638,-2.0003,-2.012,0.0,-2.0539,0.0,0.0,0.0,0.0,0.0,0.0,0.0,0.0,0.0,0.0,0.0,0.0,0.0,0.0,0.0,-3.6647,-3.6366,-3.6086,-3.5778,-3.5485,-3.5204,-3.5191,-3.5191,-3.5191,-3.491,-3.4815,-3.4802,-3.4456,-3.4322,-3.4295,-3.4015,-3.4055,-3.4295,-3.4002,-3.3694,-3.3364,-3.2812,-3.2791,-3.2937,-3.2392,-3.2541,-3.2973,0.0,0.0,0.0,0.0,0.0,0.0,0.0,0.0,0.0,0.0,0.0,0.0,0.0,0.0,0.0,0.0,0.0,0.0,-0.973,-0.9961,-1.0123,-1.0399,-1.0725,-1.0961,-1.1171,-1.1671,-1.2291,-1.3003,-1.3132,-1.3057,-1.2861,-1.2733,-1.2562,-1.2264,-1.2338,-1.2223,-1.1922,-1.1834,-1.1793,-1.1793,-1.1746,-1.1613,-1.1369,0.0,0.0,0.0,0.0,0.0,0.0,0.0,0.0,0.0,-1.2012,-1.2661,-1.3164,-1.2572,-1.2881,-1.3353,-1.3059,-1.388,-1.4919,-1.5398,-1.6674,-1.8027,-1.8598,-1.889,-1.9289,-2.0372,-2.0543,-2.0502,-2.0442,-2.0442,0.0,0.0,0.0,0.0,0.0,0.0,0.0,0.0,0.0,0.0,0.0,0.0,0.0,0.0,0.0,0.0,0.0,-3.6647,-3.6366,-3.6086,-3.5778,-3.5485,-3.5204,-3.5191,-3.5191,-3.5191,-3.511,-3.4963,-3.4802,-3.4242,-3.4015,-3.4015,-3.3921,-3.3935,-3.4015,-3.3921,-3.3694,-3.3364,-3.3213,-3.321,-3.3253,-3.2904,-3.2874,-3.2946,0.0,0.0,0.0,0.0,0.0,0.0,0.0,0.0,0.0,0.0,0.0,-0.0062,0.0,0.0,0.0,0.0,0.0,0.0,-0.97,-0.9879,-1.0049,-1.0383,-1.0622,-1.0874,-1.1171,-1.1705,-1.221,-1.2642,-1.2758,-1.2698,-1.2556,-1.2638,-1.2583,-1.2338,-1.2576,-1.2467,-1.2057,-1.204,-1.1908,-1.1793,-1.1793,-1.1685,-1.1545,0.0,0.0,0.0,0.0,0.0,0.0,0.0,0.0,0.0,-1.1994,-1.2507,-1.2921,-1.2694,-1.3124,-1.3709,-1.3739,-1.4695,-1.5837,-1.6341,-1.7526,-1.8744,-1.9459,-1.981,-2.0169,-2.0958,-2.1007,-2.0901,-2.0815,-2.0751,0.0,0.0,0.0,0.0,0.0,0.0,0.0,0.0,0.0,0.0,0.0,0.0,0.0,0.0,0.0,0.0,0.0,-3.65,-3.6193,-3.5912,-3.5605,-3.5378,-3.5191,-3.5191,-3.5137,-3.5017,-3.5017,-3.4803,-3.4402,-3.4162,-3.3921,-3.3708,-3.3948,-3.4002,-3.3895,-3.4015,-3.3801,-3.3414,-3.3414,-3.3334,-3.3213,-3.304,-3.2973,-3.3009,0.0,0.0,0.0,0.0,0.0,0.0,0.0,0.0,0.0,0.0,0.0,-0.0123,0.0,0.0,0.0,0.0,0.0,0.0,0.0,-0.9805,-1.0008,-1.0473,-1.0555,-1.0928,-1.1647,-1.2047,-1.2182,-1.2077,-1.2325,-1.2406,-1.2298,-1.2576,-1.2672,-1.2679,-1.2868,-1.2752,-1.2433,-1.2291,-1.2054,-1.1732,-1.1746,-1.1746,-1.1705,-1.1457,0.0,0.0,0.0,0.0,0.0,0.0,0.0,0.0,-1.2027,-1.2215,-1.2192,-1.284,-1.3571,-1.4326,-1.4946,-1.591,-1.6922,-1.7746,-1.8412,-1.9175,-2.0353,-2.0759,-2.1032,-2.1319,-2.1178,-2.1007,-2.1116,-2.101,-2.1007,0.0,0.0,0.0,0.0,0.0,0.0,0.0,0.0,0.0,0.0,0.0,0.0,0.0,0.0,0.0,0.0,-3.6193,-3.5912,-3.5631,-3.5351,-3.5191,-3.5191,-3.5191,-3.5057,-3.4855,-3.4829,-3.4521,-3.3935,-3.4175,-3.3975,-3.3494,-3.4068,-3.4148,-3.3908,-3.4202,-3.3961,-3.3414,-3.3414,-3.3253,-3.3013,-3.2986,-3.2973,-3.2973,0.0,0.0,0.0,0.0,0.0,0.0,0.0,0.0,0.0,0.0,0.0,0.0,0.0,0.0,0.0,0.0,0.0,0.0,0.0,-0.99,-1.0116,-1.048,-1.1063,-1.1558,-1.1996,-1.1945,-1.1874,-1.184,-1.2067,-1.2241,-1.2291,-1.2467,-1.2549,-1.2556,-1.2712,-1.2442,-1.1928,-1.1823,-1.1586,-1.1349,-1.1436,-1.1416,-1.1322,-1.1076,-1.0968,0.0,0.0,0.0,0.0,0.0,0.0,0.0,-1.2184,-1.2435,-1.2605,-1.2515,-1.3287,-1.4245,-1.4492,-1.5359,-1.6485,-1.7802,-1.9053,-2.0117,-2.0722,-2.0937,-2.1124,-2.1343,-2.1319,-2.1278,-2.1319,-2.1295,0.0,0.0,0.0,0.0,0.0,0.0,0.0,0.0,0.0,0.0,0.0,0.0,0.0,0.0,0.0,0.0,-3.6166,-3.5885,-3.5698,-3.5578,-3.5351,-3.5191,-3.5191,-3.5191,-3.5164,0.0,-3.4922,-3.4576,-3.4229,-3.4055,-3.3908,-3.3801,-3.4162,-3.4148,-3.3908,-3.4202,-3.3961,-3.3414,-3.3414,-3.3374,-3.3293,-3.3066,-3.2973,-3.2735,0.0,0.0,0.0,0.0,0.0,0.0,0.0,0.0,0.0,0.0,0.0,0.0,0.0,0.0,0.0,0.0,0.0,0.0,0.0,-0.9934,-1.0245,-1.0825,-1.1396,-1.1762,-1.185,-1.1769,-1.1658,-1.1619,-1.1701,-1.1928,-1.2227,-1.2474,-1.2651,-1.2725,-1.2725,-1.2354,-1.1786,-1.1644,-1.1402,-1.1084,-1.1301,-1.1336,-1.1179,-1.0968,-1.0826,-1.0671,-1.0473,0.0,0.0,0.0,0.0,0.0,0.0,0.0,-1.2435,-1.2507,-1.3149,-1.3945,-1.4597,-1.5626,-1.6942,-1.855,-1.9573,-2.0279,-2.0645,-2.0864,-2.1043,-2.1222,-2.1319,-2.1384,-2.1384,-2.1384,0.0,0.0,0.0,0.0,0.0,0.0,0.0,0.0,0.0,0.0,0.0,0.0,0.0,0.0,0.0,-3.6006,-3.5872,-3.5712,-3.5565,-3.5431,-3.5271,-3.5191,-3.5191,-3.5191,-3.5057,-3.4776,-3.4763,-3.4536,-3.4108,-3.3801,-3.3748,-3.3895,-3.4189,-3.4148,-3.3908,-3.4202,-3.3961,-3.3414,-3.3414,-3.3414,-3.3387,-3.324,-3.3187,-3.3011,0.0,0.0,0.0,0.0,0.0,0.0,0.0,0.0,0.0,0.0,0.0,0.0,0.0,0.0,0.0,0.0,0.0,0.0,0.0,-0.9981,-1.0393,-1.1132,-1.1531,-1.1665,-1.1586,-1.1552,-1.1491,-1.1389,-1.1389,-1.1723,-1.2295,-1.2556,-1.28,-1.303,-1.2779,-1.2348,-1.1857,-1.157,-1.1225,-1.0853,-1.1111,-1.1124,-1.1029,-1.0813,-1.0623,-1.0439,-1.029,-1.032,-1.0527,-1.1317,0.0,0.0,0.0,0.0,-1.2046,-1.2524,-1.297,-1.3522,-1.4622,-1.5999,-1.7559,-1.9232,-1.99,-2.0193,-2.0474,-2.0686,-2.0918,-2.1043,-2.1213,-2.1343,-2.1384,0.0,0.0,0.0,0.0,0.0,0.0,0.0,0.0,0.0,0.0,0.0,0.0,0.0,0.0,0.0,0.0,-3.5644,-3.4965,-3.5285,-3.5232,-3.461,-3.498,-3.5191,-3.5191,-3.5151,-3.4897,-3.4469,-3.467,-3.4456,-3.3881,-3.3668,-3.3681,-3.3908,-3.4242,-3.4202,-3.3908,-3.4202,-3.3961,-3.3414,-3.3414,-3.3414,-3.3364,-3.3,-3.2849,-3.2749,0.0,0.0,0.0,0.0,0.0,0.0,0.0,0.0,0.0,0.0,0.0,-0.0123,0.0,0.0,0.0,0.0,0.0,0.0,-0.9731,0.0,0.0,-1.0928,-1.128,-1.1443,-1.1423,-1.1329,-1.1315,-1.1389,-1.1389,-1.1952,-1.3057,-1.2684,-1.2752,-1.3166,-1.2718,-1.2345,-1.2023,-1.1286,-1.0819,-1.0548,-1.0492,-1.0451,-1.041,-1.0197,-1.0197,-1.029,-1.0103,-1.0357,-1.0806,-1.1414,-1.1544,0.0,0.0,0.0,-1.1849,-1.2038,-1.2475,-1.3018,-1.365,-1.5569,-1.7632,-1.8801,-1.9631,-2.0117,-2.0312,-2.0499,-2.0677,0.0,-2.1035,-2.1205,-2.136,0.0,0.0,0.0,0.0,0.0,0.0,0.0,0.0,0.0,0.0,0.0,0.0,0.0,0.0,0.0,-3.5311,-3.4424,-3.234,-3.4173,-3.4319,-3.2226,-3.4121,-3.5191,-3.5191,-3.495,-3.491,-3.507,-3.487,-3.4456,-3.3895,-3.4108,-3.4082,-3.3921,-3.4469,-3.4389,-3.3908,-3.4202,-3.3961,-3.3414,-3.3414,-3.3414,-3.315,-3.1328,-3.0621,-3.0103,0.0,0.0,0.0,0.0,0.0,0.0,0.0,0.0,0.0,0.0,0.0,-0.0401,0.0,0.0,0.0,0.0,0.0,0.0,-0.9821,-1.0215,0.0,-1.0894,-1.1043,-1.111,-1.111,-1.0995,-1.0989,-1.111,-1.1056,-1.1755,-1.3207,-1.2928,-1.322,-1.4014,-1.3227,-1.2712,-1.2372,-1.134,-1.0738,-1.048,-1.0337,-1.0778,-1.1361,-1.0392,-1.0559,-1.1247,-1.0249,-1.0149,-1.0605,-1.114,-1.1408,-1.158,-1.2001,0.0,0.0,0.0,-1.2199,-1.2823,-1.4265,-1.5602,-1.7015,-1.859,-1.9224,-1.9557,-1.9938,-2.0166,-2.0353,-2.0515,-2.0702,-2.0913,0.0,0.0,0.0,0.0,0.0,0.0,0.0,0.0,0.0,0.0,0.0,0.0,0.0,0.0,0.0,0.0,-3.2823,-3.1427,-3.1681,-3.148,-3.1468,-3.1681,-3.2704,-3.3843,-3.5191,-3.491,-3.475,-3.4696,-3.4576,-3.4376,-3.4135,-3.4429,-3.4402,-3.4148,-3.4402,-3.4282,-3.3895,-3.4028,-3.3814,-3.3414,-3.3414,-3.3414,-3.3314,-3.2347,-3.1227,-2.99,0.0,0.0,0.0,0.0,0.0,0.0,0.0,0.0,0.0,0.0,0.0,0.0,0.0,0.0,0.0,0.0,0.0,0.0,-0.936,0.0,0.0,0.0,-1.0759,-1.0765,-1.0658,-1.061,-1.065,-1.0799,-1.0765,-1.164,-1.3288,-1.3295,-1.3899,-1.5031,-1.3905,-1.3193,-1.2766,-1.1611,-1.1009,-1.0819,-1.0842,-1.1458,-1.2301,-1.1471,-1.18,-1.2523,-1.0974,-1.0542,-1.0743,0.0,0.0,0.0,0.0,0.0,0.0,0.0,0.0,-1.2572,-1.4399,-1.5221,-1.6023,-1.7851,-1.8541,-1.8915,-1.9459,-1.976,-1.9987,0.0,-2.0369,-2.0572,0.0,0.0,0.0,0.0,0.0,0.0,0.0,0.0,0.0,0.0,0.0,0.0,0.0,0.0,0.0,0.0,-3.0239,-2.8791,-2.9918,-2.8887,-2.8812,-2.9869,-3.0456,-3.1903,-3.4215,-3.4675,-3.4683,-3.4322,-3.4469,-3.4509,-3.4442,-3.4736,-3.475,-3.4549,-3.4549,-3.4376,-3.4108,-3.4028,-3.3814,-3.3521,-3.344,-3.305,-3.2548,-3.1982,-3.0406,-2.8416,0.0,0.0,0.0,0.0,0.0,0.0,0.0,0.0,0.0,0.0,0.0,0.0,-0.1451,-0.2619,-0.4063,-0.5651,-0.5927,0.0,0.0,0.0,0.0,0.0,0.0,0.0,-1.0038,-1.0229,-1.0403,-1.0514,-1.0765,-1.1813,-1.3572,-1.3885,-1.4726,-1.5954,-1.4618,-1.3744,-1.3132,-1.2176,-1.1739,-1.1785,-1.2137,-1.2316,-1.2532,-1.3775,-1.4241,-1.4013,-1.2596,-1.1975,0.0,0.0,0.0,0.0,0.0,-1.1922,-1.1815,0.0,0.0,0.0,-1.2962,-1.3855,-1.4784,-1.6121,-1.7339,-1.8355,-1.8899,-1.9289,-1.9646,-2.0003,-2.0136,0.0,0.0,0.0,0.0,0.0,0.0,0.0,0.0,0.0,0.0,0.0,0.0,0.0,0.0,0.0,0.0,0.0,-2.8468,-2.739,-2.5288,-2.7174,-2.7286,-2.5044,-2.7057,-2.9331,-3.1676,-3.4018,-3.4883,-3.4322,-3.4883,-3.5004,-3.4802,-3.5044,-3.5164,-3.5151,-3.5151,-3.499,-3.4748,-3.4416,-3.4122,-3.3828,-3.3534,-3.2146,-3.0103,-2.7997,-2.5851,-2.3658,0.0,0.0,0.0,0.0,0.0,0.0,0.0,0.0,0.0,0.0,0.0,0.0,0.0,-0.3602,-0.4885,-0.464,-0.6202,0.0,0.0,0.0,0.0,0.0,0.0,0.0,-1.0331,-1.0297,-1.0383,-1.0493,-1.0514,-1.1335,-1.2908,-1.3112,-1.3722,-1.4631,-1.4346,-1.415,-1.3939,-1.2562,-1.2033,-1.2159,-1.2657,-1.3439,-1.4311,-1.4377,-1.5054,-1.577,-1.4119,0.0,0.0,0.0,0.0,0.0,-1.2129,-1.2012,-1.1806,-1.1806,-1.1857,-1.2109,-1.2881,-1.3417,-1.4083,-1.5455,-1.6479,-1.7323,-1.7973,-1.8761,-1.9386,-1.9574,-1.9778,0.0,0.0,0.0,0.0,0.0,0.0,0.0,0.0,0.0,0.0,0.0,0.0,0.0,0.0,0.0,0.0,0.0,0.0,-2.4146,-2.4745,-2.4201,-2.411,-2.4686,-2.5541,-2.6978,-2.9172,-3.0219,-3.0599,-3.0207,-3.061,-3.0727,-3.0699,-3.2242,-3.2882,-3.2784,-3.4465,-3.503,-3.4788,-3.4442,-3.4148,-3.3895,-3.3961,-3.2468,-3.0266,-2.9662,-2.7085,-2.3701,0.0,0.0,0.0,0.0,0.0,0.0,0.0,0.0,-0.1182,-0.1182,0.0,0.0,0.0,0.0,-0.5854,-0.5359,-0.7331,-0.8952,-0.9761,-0.9792,0.0,0.0,0.0,0.0,-1.0487,-1.0399,-1.0426,-1.0568,-1.0473,-1.1118,-1.2433,-1.2637,-1.3112,-1.3912,-1.3817,-1.3994,-1.4292,-1.3146,-1.2691,-1.2792,-1.3699,-1.4538,-1.5294,-1.5645,-1.6279,-1.6818,0.0,0.0,0.0,0.0,0.0,0.0,0.0,-1.2207,-1.1806,-1.1806,-1.1898,-1.2086,-1.254,-1.2913,-1.3522,-1.4903,-1.5553,-1.617,-1.7327,-1.8103,-1.8639,-1.9004,-1.9362,0.0,0.0,0.0,0.0,0.0,0.0,0.0,0.0,0.0,0.0,0.0,0.0,0.0,0.0,0.0,0.0,0.0,0.0,0.0,-2.3547,-2.2198,-2.2063,-2.3512,-2.4316,-2.5375,-2.678,-2.7813,-2.822,-2.8016,-2.822,-2.8307,-2.835,-2.9827,-3.0339,-3.0294,-3.2018,-3.3546,-3.4802,-3.4549,-3.4362,-3.4137,-3.3446,-3.1629,-2.9394,-2.8838,-2.6179,-2.2864,0.0,0.0,0.0,0.0,0.0,0.0,0.0,-0.1308,-0.1548,-0.1581,0.0,0.0,0.0,0.0,0.0,-0.8079,-0.9324,-0.9974,-0.9812,-0.9805,-0.9866,0.0,0.0,-1.05,-1.0514,-1.0507,-1.0575,-1.0691,-1.0691,-1.1246,-1.2257,-1.2556,-1.3166,-1.4016,-1.3112,-1.3214,-1.4057,-1.3858,-1.3693,-1.378,-1.5242,-1.5491,-1.5249,-1.7713,-1.8106,0.0,-1.6626,-1.6175,0.0,-1.4906,0.0,0.0,0.0,-1.2491,-1.1823,-1.1815,-1.1906,-1.1973,0.0,0.0,0.0,-1.4343,-1.4484,-1.4913,-1.702,0.0,-1.7372,-1.846,0.0,0.0,0.0,0.0,0.0,0.0,0.0,0.0,0.0,0.0,0.0,0.0,0.0,0.0,0.0,0.0,0.0,0.0,-2.1124,-2.1205,-2.1384,-2.1384,-2.1295,-2.114,-2.3323,-2.4488,-2.4488,-2.6899,-2.8091,-2.8091,-2.8091,-2.8091,-2.808,-2.7941,-2.7887,-2.7866,-2.7983,-3.0493,-3.4593,-3.4659,-3.4711,-3.4463,-3.1916,-2.9503,-2.7228,-2.4981,-2.277,-2.0918,0.0,0.0,0.0,0.0,0.0,-0.1903,-0.1854,-0.1948,-0.2456,0.0,0.0,0.0,-0.6091,-0.753,-0.8923,-1.0215,-1.0525,-1.0508,-1.0175,-1.0154,-1.0175,-1.0215,-1.05,-1.0758,-1.1009,-1.0873,-1.0813,-1.0853,-1.0738,-1.0894,-1.1293,-1.1626,-1.2067,-1.2662,-1.2698,-1.2807,-1.2922,-1.2664,-1.322,-1.4282,-1.4665,-1.5705,0.0,0.0,0.0,0.0,0.0,-1.8543,-1.8033,0.0,-1.6475,-1.5053,0.0,0.0,-1.2134,-1.1996,-1.2174,-1.2353,-1.2044,0.0,0.0,0.0,0.0,0.0,0.0,0.0,0.0,-1.751,0.0,0.0,0.0,0.0,0.0,0.0,0.0,0.0,0.0,0.0,0.0,0.0,0.0,0.0,0.0,0.0,0.0,0.0,-2.1051,-2.1205,-2.1384,-2.1384,-2.136,-2.1319,-2.1958,-2.2286,-2.2286,-2.2975,-2.3283,-2.3283,-2.3283,-2.3283,-2.3337,-2.495,-2.5502,-2.5271,-2.7175,-2.8637,-2.9764,-3.1745,-3.2428,-3.2214,-3.1692,-2.8951,-2.5205,-2.4779,-2.3089,-2.1051,0.0,0.0,-0.1868,-0.2003,-0.2196,-0.228,-0.2267,-0.226,-0.2588,0.0,0.0,0.0,-0.8869,-1.0052,-1.0849,-1.1347,-1.1219,-1.0941,-1.0493,-1.0405,-1.0399,-1.046,-1.0744,-1.1077,-1.1436,-1.1266,-1.1225,-1.1279,-1.1036,-1.0948,-1.1043,-1.128,-1.1567,-1.1826,-1.1986,-1.2169,-1.2329,-1.19,-1.2601,-1.4066,-1.516,0.0,0.0,-1.8213,-1.9045,0.0,0.0,0.0,-1.9175,-1.8988,-1.7599,0.0,0.0,-1.3457,-1.2889,-1.2451,-1.2726,-1.3027,-1.2588,-1.2735,-1.3084,0.0,0.0,0.0,0.0,-1.5033,0.0,0.0,0.0,0.0,0.0,0.0,0.0,0.0,0.0,0.0,0.0,0.0,0.0,0.0,0.0,0.0,0.0,-2.0645,-2.0828,-2.0901,-2.1027,-2.1205,-2.1384,-2.1384,-2.1384,-2.1384,-2.1384,-2.1384,-2.1384,-2.1384,-2.1384,-2.1384,-2.1384,-2.1384,-2.1439,-2.2713,-2.3098,-2.2939,-2.4485,-2.5529,-2.6354,-2.8102,-2.9279,-2.983,-2.9121,-2.7019,-2.4399,-2.3638,-2.2458,-2.1238,0.0,0.0,-0.2019,-0.2363,-0.2403,-0.2435,-0.2408,-0.2378,-0.248,0.0,-0.5884,-0.9048,-1.2031,-1.263,-1.2523,-1.1861,-1.164,-1.1314,-1.0819,-1.0663,-1.0622,-1.0704,-1.1029,-1.1382,-1.1759,-1.1714,-1.1714,-1.1773,-1.1409,-1.1234,-1.12,-1.1336,-1.1355,-1.1335,-1.1254,-1.1499,-1.1975,-1.1638,-1.2193,-1.3556,-1.6019,-1.6792,0.0,0.0,-1.9384,-1.8947,-1.9726,-1.9832,-1.9673,-1.9567,-1.8184,0.0,0.0,-1.4651,-1.3961,-1.3172,-1.3455,-1.3928,-1.3392,-1.348,-1.3893,0.0,0.0,0.0,-1.5106,-1.4919,-1.4781,0.0,0.0,0.0,0.0,0.0,0.0,0.0,0.0,0.0,0.0,0.0,0.0,0.0,0.0,0.0,-2.0296,-2.0458,-2.0637,-2.0869,-2.101,-2.1181,-2.1319,-2.1343,-2.136,-2.136,-2.136,-2.136,-2.1384,-2.1384,-2.1384,-2.1384,-2.1384,-2.1384,-2.1384,-2.1222,-2.114,-2.1124,-2.1124,-2.2204,-2.3968,-2.4287,-2.5674,-2.743,-2.5526,-2.4578,-2.4006,-2.2076,-2.1384,-2.1384,-0.233,-0.2417,-0.2454,-0.2533,-0.2552,-0.2566,-0.2562,-0.2534,-0.3601,-0.6532,-1.0075,-1.2765,-1.393,-1.3688,-1.3355,-1.3206,-1.2651,-1.2047,-1.1442,-1.1185,-1.0995,-1.0874,-1.1185,-1.1443,-1.1617,-1.187,-1.187,-1.1624,-1.1572,-1.1402,-1.12,-1.1227,-1.1145,-1.1002,-1.1124,-1.1261,-1.1466,-1.2698,-1.3604,-1.4328,-1.5003,0.0,-1.8401,-1.9363,-2.0329,-2.1207,-2.1147,-2.1042,-2.0849,0.0,-1.885,-1.7848,0.0,0.0,0.0,-1.4213,0.0,-1.4824,-1.4282,-1.444,-1.4619,-1.4172,0.0,0.0,-1.3725,-1.3937,-1.4391,0.0,0.0,0.0,0.0,0.0,0.0,0.0,0.0,0.0,0.0,0.0,0.0,0.0,0.0,0.0,-2.0117,-2.0271,-2.045,-2.0637,-2.0945,-2.1075,-2.1015,-2.11,-2.1173,-2.1173,-2.1173,-2.1246,-2.1384,-2.1384,-2.1384,-2.1384,-2.1384,-2.1384,-2.1384,-2.1343,-2.1254,-2.1124,-2.1124,-2.1316,-2.1715,-2.1791,-2.3188,-2.5249,-2.4931,-2.3638,-2.1983,-2.1532,-2.1384,-2.1384,-0.2449,-0.254,-0.2631,-0.2661,-0.2638,-0.2662,-0.271,-0.3572,-0.4942,-0.701,-1.0845,-1.3672,-1.4433,-1.4387,-1.4116,-1.3626,-1.3146,-1.2583,-1.1993,-1.1667,-1.143,-1.1252,-1.1423,-1.1681,-1.2054,-1.2135,-1.2176,-1.2138,-1.1834,-1.1572,-1.1308,-1.1308,-1.1495,-1.1888,-1.1564,-1.1784,-1.2485,-1.2762,-1.3453,-1.4455,-1.6227,0.0,-1.9382,-2.0376,-2.1237,-2.1856,-2.1725,-2.153,-2.1189,-1.9938,-1.9224,0.0,0.0,-1.6779,-1.6495,0.0,-1.5488,-1.5772,0.0,0.0,-1.5317,-1.5002,0.0,0.0,0.0,0.0,-1.427,-1.5074,0.0,0.0,0.0,0.0,0.0,0.0,0.0,0.0,0.0,0.0,0.0,0.0,0.0,0.0,-1.9922,-2.0093,-2.0304,-2.0572,-2.0759,-2.0864,-2.091,-2.0937,-2.1035,-2.1124,-2.1124,-2.1213,-2.1384,-2.1384,-2.1384,-2.1384,-2.1384,-2.1384,-2.1384,-2.1384,-2.1343,-2.1254,-2.1254,-2.1205,-2.1132,-2.1222,-2.1904,-2.2855,-2.3049,-2.2298,-2.1195,-2.1319,-2.1278,-2.114,-0.2445,-0.257,-0.2626,-0.2675,-0.2993,-0.3288,-0.3333,-0.5029,-0.6656,-0.767,-1.1289,-1.4085,-1.4952,-1.5174,-1.4997,-1.4333,-1.381,-1.3288,-1.2752,-1.2325,-1.2026,-1.1884,-1.1796,-1.1986,-1.2488,-1.2366,-1.2366,-1.2476,-1.2016,-1.1644,-1.1396,-1.145,-1.1906,-1.2631,-1.2164,-1.2622,-1.3648,-1.3106,-1.3672,-1.5249,0.0,-1.932,-1.9466,-2.1147,-2.1726,-2.175,-2.1936,-2.1741,-2.1254,-2.015,0.0,-1.9297,-1.803,-1.7762,0.0,0.0,0.0,0.0,0.0,0.0,0.0,0.0,0.0,-1.5268,0.0,0.0,0.0,-1.5293,0.0,0.0,0.0,0.0,0.0,0.0,0.0,0.0,0.0,0.0,0.0,0.0,0.0,0.0,0.0,-1.9687,-1.9946,-2.0409,-2.0312,-2.0369,-2.0739,-2.0787,-2.0832,-2.1019,-2.1059,-2.1157,-2.1343,-2.136,-2.1384,-2.1384,-2.1384,-2.1384,-2.1384,-2.1384,-2.1384,-2.1384,-2.1384,-2.1295,-2.1189,-2.1319,-2.1295,-2.1189,-2.1319,-2.1205,-2.1048,-2.1278,-2.126,-2.1048,-0.2595,-0.2601,-0.2602,-0.2609,-0.4072,-0.528,-0.5301,-0.6953,-0.912,-1.1673,-1.4293,-1.6212,-1.6842,-1.6564,-1.6415,-1.6585,-1.5479,-1.4624,-1.4278,-1.3478,-1.2996,-1.2853,-1.2427,-1.2305,-1.2501,-1.2366,-1.2115,-1.1712,-1.1766,-1.1644,-1.1396,-1.1624,-1.1742,-1.1803,-1.2813,-1.3433,-1.3778,-1.5021,-1.6567,0.0,-1.9509,-1.9167,0.0,-2.0353,-2.1167,-2.1295,-2.1936,-2.1936,-2.1585,0.0,-2.0474,-2.0011,0.0,-1.8696,0.0,0.0,0.0,0.0,0.0,0.0,0.0,0.0,-1.6752,0.0,0.0,0.0,-1.5147,-1.4497,0.0,0.0,0.0,0.0,0.0,0.0,0.0,0.0,0.0,0.0,0.0,0.0,0.0,0.0,0.0,-1.872,-1.9029,-1.9817,-1.9297,-1.9297,-2.0169,-2.0296,-2.0466,-2.0653,-2.0807,-2.097,-2.1157,-2.1295,-2.1384,-2.1384,-2.1384,-2.1384,-2.1384,-2.1384,-2.1384,-2.1384,-2.1384,-2.136,-2.136,-2.1384,-2.136,-2.136,-2.1384,-2.136,-2.1374,-2.136,-2.136,-2.1374,-0.26,-0.3461,-0.4181,-0.4207,-0.5732,-0.7006,-0.7316,-0.9774,-1.2416,-1.4626,-1.6261,-1.727,-1.7439,-1.7053,-1.687,-1.7087,0.0,-1.5635,0.0,0.0,-1.3899,-1.3492,-1.2963,-1.2785,-1.2888,-1.2494,-1.2237,-1.2128,-1.185,-1.1647,-1.1525,-1.1611,-1.2345,-1.3525,-1.3771,-1.4815,-1.6378,-1.6269,-1.6879,0.0,0.0,0.0,0.0,-2.1145,-2.2147,-2.2082,-2.2277,-2.2188,-2.1831,0.0,-2.0515,0.0,0.0,0.0,0.0,0.0,0.0,0.0,0.0,0.0,0.0,0.0,0.0,0.0,0.0,0.0,-1.5033,0.0,0.0,0.0,0.0,0.0,0.0,0.0,0.0,0.0,0.0,0.0,0.0,0.0,0.0,0.0,0.0,0.0,0.0,0.0,-1.8639,-1.8753,-1.9607,-1.9963,-2.0255,-2.0434,-2.0612,-2.084,-2.1124,-2.1197,-2.1278,-2.1384,-2.1384,-2.1384,-2.1384,-2.1384,-2.1384,-2.1384,-2.1384,-2.1384,-2.1384,-2.1384,-2.1384,-2.1384,-2.1384,-2.1319,-2.1246,-2.1343,-2.1309,-2.1162,-0.3252,-0.3996,-0.4726,-0.5318,-0.687,-0.8581,-1.0156,-1.2732,-1.5051,-1.65,-1.7378,-1.7914,-1.8057,-1.7944,0.0,0.0,-1.7899,-1.737,0.0,0.0,-1.5274,-1.4916,-1.3933,0.0,0.0,-1.2974,-1.2562,-1.2501,-1.2033,-1.1803,-1.1803,-1.1803,-1.274,-1.4427,-1.4619,-1.6017,-1.8125,-1.7553,-1.7851,-1.8676,-1.9089,-1.9514,-2.0044,-2.1912,-2.2675,-2.27,-2.2578,-2.2383,-2.2042,-2.1027,-2.0742,0.0,-2.002,0.0,0.0,0.0,0.0,0.0,-1.8436,0.0,0.0,0.0,0.0,0.0,0.0,0.0,0.0,0.0,0.0,0.0,0.0,0.0,0.0,0.0,0.0,0.0,0.0,0.0,0.0,0.0,0.0,0.0,0.0,0.0,0.0,0.0,0.0,-1.8149,-1.9175,-1.9656,-1.9971,-2.0239,-2.0474,-2.0718,-2.0978,-2.1021,-2.1189,-2.1319,-2.136,-2.1384,-2.1384,-2.1384,-2.1384,-2.1384,-2.1384,-2.1384,-2.1384,-2.1384,-2.1384,-2.1384,-2.1384,-2.1295,-2.1213,-2.1343,-2.1276,-2.1089,-0.4869,-0.3853,-0.3278,-0.5067,-0.7127,-0.9941,-1.4321,-1.5606,-1.6317,-1.708,-1.7575,0.0,0.0,0.0,0.0,0.0,0.0,-2.0432,-1.9867,0.0,-1.7327,0.0,0.0,-1.4616,0.0,-1.3922,-1.3085,-1.2501,-1.2345,-1.2271,-1.2271,-1.2271,-1.2595,-1.3251,-1.5179,-1.6705,-1.7899,-1.9163,-2.0621,-2.2017,-2.1701,-2.2294,-2.3192,0.0,-2.2131,-2.2724,-2.2724,0.0,0.0,-2.1805,-2.1514,0.0,0.0,0.0,0.0,0.0,0.0,0.0,0.0,0.0,0.0,-1.7559,0.0,0.0,0.0,0.0,-1.5821,0.0,0.0,0.0,0.0,0.0,0.0,-1.4757,0.0,0.0,0.0,0.0,0.0,0.0,0.0,0.0,0.0,0.0,0.0,0.0,-1.686,0.0,-1.8899,-1.9224,-1.9574,-2.0112,-2.0418,-2.0604,-2.0612,-2.0954,-2.1078,-2.1086,-2.1295,-2.1384,-2.1384,-2.1384,-2.1384,-2.1384,-2.1384,-2.1384,-2.1384,-2.1384,-2.1384,-2.1384,-2.1384,-2.1384,-2.1384,-2.1384,-2.1384,-2.136,-0.6754,-0.666,-0.6811,-0.8494,-1.0428,-1.2588,-1.5093,-1.6327,-1.7311,0.0,0.0,0.0,0.0,-2.0741,-2.1211,0.0,0.0,-2.1601,-2.106,-1.9539,0.0,0.0,0.0,-1.5766,0.0,0.0,-1.3797,-1.3098,-1.2752,-1.2528,-1.2427,-1.2592,-1.318,-1.4121,-1.5782,-1.7436,-1.9002,0.0,0.0,0.0,0.0,-2.2407,-2.3487,0.0,0.0,-2.3065,-2.296,-2.274,0.0,-2.2131,-2.1862,-2.1585,-2.136,-2.0937,-2.0515,-2.0625,-2.0377,0.0,0.0,0.0,-1.9979,-1.8541,0.0,0.0,0.0,0.0,0.0,0.0,0.0,0.0,0.0,0.0,-1.5124,-1.4919,-1.4724,0.0,0.0,0.0,0.0,0.0,0.0,0.0,0.0,0.0,0.0,0.0,-1.6655,0.0,-1.8387,-1.9183,-1.9695,-1.9873,-2.0231,-2.0474,-2.0596,-2.0832,-2.101,-2.1078,-2.1295,-2.1384,-2.1384,-2.1384,-2.1384,-2.1384,-2.1569,-2.1545,-2.1384,-2.1569,-2.1545,-2.1384,-2.1384,-2.1384,-2.1384,-2.1384,-2.1384,-2.1384,-0.8808,-0.9193,-0.9576,-1.0598,-1.2661,-1.4611,-1.5796,-1.7093,0.0,0.0,-1.9729,0.0,-2.1369,0.0,-2.266,0.0,-2.332,-2.3035,-2.2062,-2.1099,0.0,-2.0347,-1.8594,0.0,0.0,0.0,0.0,-1.4298,-1.3589,-1.3261,-1.3257,-1.3166,-1.3766,-1.4896,-1.6194,-1.7771,-1.9492,-2.0531,-2.1319,0.0,0.0,-2.2805,0.0,0.0,-2.3422,-2.3295,0.0,-2.2976,-2.2765,-2.2489,-2.2237,-2.2017,-2.1896,-2.149,-2.1067,-2.1051,-2.0832,-2.058,-2.045,-2.0507,0.0,-1.9199,-1.8655,0.0,-1.6606,0.0,0.0,0.0,0.0,0.0,0.0,0.0,0.0,-1.5308,-1.4846,-1.4265,0.0,-1.3498,0.0,0.0,0.0,0.0,0.0,0.0,-1.5236,-1.6146,-1.6331,-1.6942,0.0,0.0,-1.9524,-1.9784,-2.0076,-2.0312,-2.0499,-2.0734,-2.0967,-2.1035,-2.1278,-2.1384,-2.1384,-2.1384,-2.1384,-2.1384,-2.1634,-2.161,-2.1408,-2.166,-2.162,-2.1384,-2.1504,-2.1449,-2.1384,-2.1384,-2.1384,-2.1384,-1.1053,-1.1393,-1.1426,-1.1432,-1.377,0.0,0.0,0.0,-1.8983,0.0,-2.0677,-2.1739,-2.2311,-2.3687,-2.4671,-2.4933,-2.5245,0.0,-2.3143,-2.2854,0.0,0.0,-2.0744,-2.0332,-2.0285,0.0,0.0,0.0,-1.4896,-1.4449,-1.4607,-1.397,-1.4279,-1.5381,-1.6392,-1.7738,-1.9371,-2.0991,-2.231,-2.3336,-2.3447,-2.3528,-2.3528,-2.3528,-2.3422,-2.3336,-2.3312,-2.3206,-2.2976,-2.2805,-2.2682,-2.2675,-2.2318,-2.2107,-2.1896,-2.153,-2.1295,-2.1092,-2.0751,-2.0653,-2.0442,-1.9623,0.0,0.0,0.0,0.0,-1.7794,0.0,0.0,0.0,0.0,0.0,0.0,-1.5821,-1.5179,-1.4416,0.0,0.0,0.0,0.0,0.0,0.0,0.0,0.0,-1.47,-1.5861,-1.5861,-1.6405,0.0,0.0,-1.9037,-1.9752,-1.9963,-2.015,-2.032,-2.0677,-2.091,-2.091,-2.1213,-2.1384,-2.1384,-2.1384,-2.1384,-2.1408,-2.1651,-2.1634,-2.1425,-2.179,-2.1741,-2.1425,-2.1651,-2.1579,-2.1408,-2.1384,-2.1384,-2.1384,-1.3199,-1.4244,-1.486,0.0,-1.5272,-1.5947,0.0,0.0,0.0,0.0,-2.1768,-2.2958,-2.3111,-2.4383,-2.517,-2.5248,-2.5725,0.0,0.0,0.0,0.0,-2.3954,-2.205,-2.1181,-2.1706,-1.95,0.0,-1.7531,0.0,-1.5279,-1.5127,-1.4908,-1.4808,-1.4851,-1.6358,-1.7638,-1.8761,-2.0377,-2.1976,-2.3336,-2.3447,-2.3528,0.0,0.0,-2.3504,-2.3447,-2.336,-2.3295,-2.3171,-2.2976,-2.2935,-2.2895,-2.2659,-2.2464,-2.2277,-2.2042,-2.1871,-2.1701,-2.162,-2.149,-2.1278,-2.0775,-2.015,-1.9475,0.0,0.0,0.0,0.0,0.0,0.0,0.0,0.0,0.0,0.0,-1.5324,0.0,0.0,0.0,0.0,0.0,0.0,0.0,0.0,0.0,-1.4757,-1.5212,-1.5699,-1.6444,-1.7603,0.0,0.0,-1.9565,-1.9898,-2.015,-2.032,-2.0677,-2.091,-2.091,-2.1213,-2.1384,-2.1384,-2.153,-2.1569,-2.1408,-2.1855,-2.1871,-2.1675,-2.1977,-2.2001,-2.1806,-2.1847,-2.1831,-2.1766,-2.149,-2.1384,-2.1384,-1.4805,0.0,0.0,-1.7141,0.0,0.0,-1.8719,-1.923,0.0,-2.0838,-2.2421,0.0,-2.3519,-2.4964,-2.5968,-2.5968,-2.6156,0.0,0.0,0.0,0.0,-2.4389,-2.3347,-2.2854,-2.3049,-2.1041,0.0,-1.8742,0.0,-1.6092,-1.5661,-1.535,-1.5213,-1.5273,-1.6529,-1.7607,-1.8582,-2.0588,-2.2098,-2.3041,-2.3398,-2.3528,0.0,-2.3528,-2.3528,-2.3512,-2.3406,-2.3382,-2.3341,-2.3171,-2.3106,-2.3081,-2.2895,-2.2724,-2.2553,-2.2359,-2.2188,-2.2017,-2.1896,-2.1847,-2.1725,-2.1425,-2.0978,-2.0486,-1.981,-1.9729,-1.9565,0.0,0.0,0.0,0.0,0.0,0.0,0.0,0.0,0.0,0.0,0.0,0.0,0.0,0.0,0.0,0.0,0.0,-1.4497,-1.483,-1.5335,-1.6047,0.0,0.0,0.0,-1.9256,-1.9711,-2.0101,-2.0434,-2.0718,-2.095,-2.0978,-2.1254,-2.1384,-2.1384,-2.1545,-2.153,-2.153,-2.1912,-2.1961,-2.1806,-2.2172,-2.2172,-2.188,-2.188,-2.188,-2.1856,-2.1701,-2.1571,-2.1514,-1.6133,0.0,0.0,0.0,0.0,0.0,0.0,-2.037,0.0,-2.1725,0.0,-2.3976,-2.3879,-2.555,-2.6667,-2.6667,0.0,-2.6023,-2.486,-2.5503,-2.5384,-2.407,-2.4645,-2.4698,-2.421,-2.2591,0.0,0.0,0.0,-1.6987,-1.6187,-1.5622,-1.5604,-1.5966,-1.6722,-1.7648,-1.8866,-2.1165,-2.2383,-2.2805,-2.3317,-2.3528,-2.3528,-2.3528,-2.3528,-2.3528,-2.3528,-2.3528,-2.3504,-2.3401,-2.336,-2.3312,-2.3081,-2.2911,-2.2724,-2.2553,-2.2359,-2.2188,-2.2042,-2.1977,-2.1936,-2.1766,-2.1701,-2.1463,-2.0527,-2.0299,-2.0133,-1.976,-1.9175,-1.898,0.0,0.0,0.0,0.0,0.0,0.0,0.0,0.0,0.0,0.0,0.0,0.0,0.0,0.0,0.0,-1.4603,-1.4905,-1.5432,0.0,0.0,0.0,-1.8923,-1.9475,-2.0011,-2.0556,0.0,-2.0945,-2.1078,-2.1295,-2.1384,-2.1384,-2.1425,-2.153,-2.174,-2.1912,-2.1945,-2.1945,-2.2342,-2.2277,-2.2001,-2.2001,-2.2001,-2.2001,-2.1977,-2.1871,-2.1781,-1.7283,0.0,0.0,0.0,0.0,-2.1573,-2.2543,-2.3138,-2.3449,-2.3279,-2.5095,-2.6095,-2.533,-2.6107,-2.6667,-2.6667,-2.6651,0.0,0.0,0.0,0.0,-2.5815,-2.546,-2.5185,-2.4949,-2.3257,-2.1856,0.0,0.0,-1.7748,-1.6663,-1.6133,-1.5763,-1.5642,-1.6357,-1.7835,-1.9933,-2.136,0.0,-2.2976,-2.3382,-2.3528,-2.3528,-2.3528,-2.3528,-2.3528,-2.3528,-2.3528,-2.3528,-2.3487,-2.3487,-2.3447,-2.3276,-2.3081,-2.2911,-2.2724,-2.2553,-2.2465,-2.2383,-2.2253,-2.2147,-2.2107,-2.1871,-2.1675,-2.148,-2.1309,-2.1051,-2.0747,-2.0409,-1.9995,-1.9256,0.0,0.0,0.0,0.0,0.0,0.0,0.0,0.0,0.0,0.0,0.0,0.0,0.0,0.0,0.0,0.0,0.0,0.0,0.0,0.0,0.0,-1.9281,0.0,0.0,0.0,-2.0945,-2.1078,-2.1295,-2.1384,-2.1384,-2.1701,-2.1766,-2.174,-2.2172,-2.2294,-2.2172,-2.2383,-2.2481,-2.2383,-2.2383,-2.2383,-2.2359,-2.2212,-2.2131,-2.2082,0.0,0.0,0.0,0.0,0.0,0.0,0.0,-2.5278,0.0,-2.4594,-2.538,-2.5849,-2.5509,-2.6228,-2.6708,-2.6866,-2.6732,-2.6695,-2.6614,-2.6525,-2.6487,-2.6338,-2.5826,0.0,-2.5274,-2.3894,-2.2594,-2.1408,0.0,0.0,-1.6801,-1.6347,-1.5991,-1.5707,-1.7026,-1.8581,-2.0271,0.0,0.0,-2.2895,-2.3341,-2.3528,-2.3528,-2.3528,-2.3528,-2.3528,-2.3528,-2.3528,-2.3528,-2.3528,-2.3528,-2.3512,-2.3422,-2.3276,-2.3106,-2.2911,-2.274,-2.2578,-2.2546,-2.2407,-2.2318,-2.2212,-2.2066,-2.1912,-2.1831,-2.166,-2.1425,-2.1067,-2.0856,-2.0421,-1.9199,-1.833,0.0,0.0,0.0,0.0,0.0,0.0,0.0,0.0,0.0,0.0,0.0,0.0,0.0,0.0,0.0,0.0,0.0,0.0,0.0,0.0,0.0,0.0,0.0,0.0,0.0,-2.1254,-2.1343,-2.1384,-2.1384,-2.166,-2.179,-2.1831,-2.2172,-2.2375,-2.2342,-2.2481,-2.253,-2.253,-2.253,-2.253,-2.2506,-2.2359,-2.2342,-2.2318,0.0,-2.0484,0.0,0.0,-2.3347,0.0,-2.548,-2.6772,-2.7159,-2.586,-2.5602,-2.5578,-2.5681,-2.6413,-2.6907,-2.7061,-2.6931,-2.6842,-2.6801,-2.6655,-2.6574,-2.6525,-2.6078,-2.5761,-2.5567,-2.4551,-2.3341,0.0,0.0,0.0,-1.7198,-1.6763,-1.6446,-1.6399,-1.8003,0.0,0.0,0.0,-2.2359,-2.287,-2.3341,-2.3528,-2.3528,-2.3528,-2.3528,-2.3528,-2.3528,-2.3528,-2.3528,-2.3528,-2.3528,-2.3528,-2.3528,-2.3406,-2.3295,-2.3081,-2.2911,-2.274,-2.257,-2.2529,-2.253,-2.2302,-2.2212,-2.2147,-2.1977,-2.179,-2.161,-2.1205,-2.0921,-2.0429,-1.9199,-1.8582,0.0,0.0,0.0,0.0,0.0,0.0,0.0,0.0,0.0,0.0,0.0,0.0,0.0,0.0,0.0,0.0,-1.5528,-1.6137,-1.6974,0.0,0.0,-1.9648,-2.0418,0.0,-2.1089,-2.1384,-2.1384,-2.1384,-2.1384,-2.162,-2.1806,-2.1896,-2.2147,-2.2342,-2.253,-2.253,-2.253,-2.253,-2.253,-2.253,-2.253,-2.253,-2.253,-2.2506,0.0,0.0,0.0,0.0,0.0,0.0,-2.5939,-2.7148,-2.7824,-2.7178,-2.7164,-2.7259,-2.7113,-2.7207,-2.7231,-2.7248,-2.7231,-2.7167,-2.6996,-2.6972,-2.689,-2.672,-2.6509,-2.6314,-2.6143,-2.5234,-2.4145,0.0,0.0,0.0,0.0,-1.7681,-1.7526,0.0,0.0,0.0,0.0,-2.2026,-2.2724,-2.3236,-2.3447,-2.3528,-2.3528,-2.3528,-2.3528,-2.3528,-2.3528,-2.3528,-2.3528,-2.3528,-2.3528,-2.3528,-2.3528,-2.3406,-2.3312,-2.3295,-2.3106,-2.2935,-2.274,-2.27,-2.2659,-2.2489,-2.2318,-2.2147,-2.1977,-2.179,-2.161,-2.1205,-2.0726,-2.0085,-1.9151,-1.9191,-1.8988,0.0,0.0,0.0,0.0,0.0,0.0,0.0,0.0,0.0,0.0,0.0,0.0,0.0,0.0,0.0,-1.5731,-1.5967,-1.6623,-1.79,0.0,-1.9281,-1.9857,-2.0576,-2.1089,-2.1384,-2.1384,-2.1384,-2.1408,-2.1741,-2.1912,-2.1896,-2.2302,-2.2506,-2.253,-2.253,-2.253,-2.253,-2.253,-2.253,-2.253,-2.253,-2.253,-2.253,0.0,0.0,0.0,0.0,0.0,0.0,0.0,-2.7843,-2.8117,-2.78,-2.7719,-2.7678,-2.7589,-2.7402,-2.7313,-2.7418,-2.7337,-2.7207,-2.7037,-2.7012,-2.6931,-2.6736,-2.6566,-2.6487,-2.6354,-2.5697,-2.4851,0.0,0.0,0.0,0.0,0.0,0.0,0.0,0.0,-2.1173,-2.2107,-2.2594,-2.3206,-2.3747,-2.3699,-2.3764,-2.3829,-2.3739,-2.3699,-2.3674,-2.3508,-2.3528,-2.3528,-2.3528,-2.3528,-2.3528,-2.3528,-2.3487,-2.3406,-2.3301,-2.3211,-2.3165,-2.2935,-2.2895,-2.287,-2.2805,-2.2635,-2.2489,-2.2424,-2.2107,-2.1741,-2.149,-2.0937,-2.0312,-1.9735,-1.9394,-1.9102,0.0,0.0,0.0,0.0,0.0,0.0,0.0,0.0,0.0,0.0,0.0,0.0,0.0,0.0,0.0,0.0,0.0,0.0,-1.7404,0.0,-1.924,-1.9784,-2.0551,-2.1089,-2.1384,-2.1384,-2.1449,-2.161,-2.1806,-2.2042,-2.2253,-2.2407,-2.253,-2.253,-2.253,-2.253,-2.253,-2.253,-2.253,-2.253,-2.253,-2.253,-2.253,-2.4987,0.0,-2.5064,0.0,-2.6604,-2.6886,-2.8045,-2.8336,-2.8377,-2.8247,-2.8076,-2.7906,-2.7824,-2.7573,-2.7483,-2.7613,-2.7459,-2.7272,-2.7102,-2.7037,-2.6931,-2.6736,-2.6614,0.0,-2.6549,-2.6078,-2.542,-2.4616,-2.3358,0.0,0.0,0.0,0.0,0.0,-2.1636,-2.2277,-2.2976,-2.3211,-2.3593,-2.4064,-2.3934,-2.3959,-2.4101,-2.3934,-2.3845,-2.3788,-2.3658,-2.3569,-2.3528,-2.3528,-2.3528,-2.3528,-2.3528,-2.3528,-2.3504,-2.3382,-2.3341,-2.3301,-2.313,-2.3081,-2.3065,-2.3016,-2.2846,-2.27,-2.2659,-2.2277,-2.1831,-2.1545,-2.1027,-2.0547,-2.0193,-1.9656,-1.9232,-1.9272,0.0,0.0,0.0,0.0,0.0,0.0,0.0,-1.5577,0.0,0.0,0.0,0.0,0.0,0.0,0.0,0.0,0.0,0.0,0.0,0.0,0.0,-2.058,-2.1083,-2.1384,-2.1449,-2.153,-2.1716,-2.1896,-2.2172,-2.253,-2.253,-2.253,-2.253,-2.253,-2.253,-2.253,-2.253,-2.253,-2.253,-2.253,-2.253,-2.253,-2.5941,-2.6198,-2.6581,-2.7827,-2.806,-2.8182,-2.8547,-2.8612,-2.8612,-2.8612,-2.8442,-2.8182,-2.7841,-2.78,-2.78,-2.78,-2.7629,-2.7459,-2.7342,-2.7102,-2.6931,0.0,0.0,-2.6667,-2.6667,-2.6379,-2.6103,-2.5908,0.0,0.0,-2.3255,0.0,-2.1976,-2.2464,-2.283,-2.3187,-2.3552,-2.3894,-2.4064,-2.4126,-2.4126,-2.4126,-2.4126,-2.4126,-2.3959,-2.3804,-2.3804,-2.3682,-2.3528,-2.3528,-2.3528,-2.3528,-2.3528,-2.3528,-2.3528,-2.3528,-2.3528,-2.3487,-2.336,-2.3312,-2.3271,-2.3041,-2.2846,-2.2675,-2.2513,-2.2188,-2.1725,-2.1064,-2.091,-2.0747,-2.0218,-1.9906,-1.9549,-1.885,0.0,0.0,0.0,0.0,0.0,0.0,0.0,-1.5416,-1.5942,0.0,0.0,0.0,0.0,0.0,0.0,0.0,0.0,-1.8442,-1.9134,0.0,-2.0112,-2.0767,-2.1213,-2.1384,-2.1579,-2.1716,-2.174,-2.2026,-2.2302,-2.253,-2.253,-2.253,-2.253,-2.253,-2.253,-2.253,-2.253,-2.253,-2.253,-2.253,-2.253,-2.253,-2.7411,-2.7555,-2.7756,-2.815,-2.8352,-2.8482,-2.8588,-2.8718,-2.8758,-2.8628,-2.8563,-2.8377,-2.8036,-2.7889,-2.78,0.0,-2.7759,-2.7589,0.0,-2.7231,-2.7061,-2.6692,-2.6667,-2.6667,-2.6667,-2.6631,-2.6419,-2.6119,0.0,0.0,0.0,-2.3512,-2.3572,-2.391,-2.391,-2.404,-2.4251,-2.4129,-2.421,-2.4421,-2.4292,-2.4316,-2.4405,-2.4292,-2.421,-2.4145,-2.4023,-2.3869,-2.3723,-2.3723,-2.3634,-2.3528,-2.3528,-2.3528,-2.3528,-2.3528,-2.3528,-2.3512,-2.3463,-2.3447,-2.3422,-2.3382,-2.3211,-2.3041,-2.287,-2.2359,-2.1766,-2.1165,-2.0937,-2.082,-2.0483,-2.0182,-1.9865,-1.9508,-1.9395,0.0,0.0,0.0,0.0,0.0,0.0,-1.6315,0.0,-1.6202,0.0,0.0,0.0,0.0,0.0,0.0,0.0,0.0,-1.9134,0.0,-2.0239,-2.0832,-2.1213,-2.1384,-2.1579,-2.1846,-2.2026,-2.2277,-2.2465,-2.253,-2.253,-2.253,-2.253,-2.253,-2.253,-2.253,-2.253,-2.253,-2.253,-2.253,-2.253,-2.253,-2.8141,-2.8271,-2.8352,-2.8417,-2.8523,-2.8628,-2.8693,-2.8823,-2.8848,-2.8734,-2.8653,-2.8507,-2.8206,-2.8011,0.0,-2.78,-2.7735,-2.7589,-2.7296,-2.7272,-2.7126,-2.6692,-2.6801,-2.6801,-2.6667,0.0,0.0,-2.6403,-2.5932,-2.5404,-2.4828,-2.4657,-2.4657,-2.4803,-2.4634,-2.4698,-2.4787,-2.4568,-2.4551,-2.4681,-2.4576,-2.4551,-2.4576,-2.4462,-2.4397,-2.4316,-2.421,-2.4064,-2.3894,-2.3829,-2.3723,-2.3634,-2.3634,-2.3533,-2.3528,-2.3528,-2.3528,-2.3528,-2.3528,-2.3528,-2.3528,-2.3528,-2.3382,-2.323,-2.287,-2.2359,-2.175,-2.1319,-2.1027,-2.0853,-2.0629,-2.0247,-1.9973,-1.9808,-1.9485,-1.9078,-1.8671,0.0,0.0,0.0,0.0,0.0,0.0,-1.7006,0.0,0.0,0.0,0.0,0.0,0.0,0.0,-1.8606,-1.9581,0.0,-2.0621,-2.1019,-2.1278,-2.1384,-2.1636,-2.1961,-2.2302,-2.2424,-2.253,-2.253,-2.253,-2.253,-2.253,-2.253,-2.253,-2.253,-2.253,-2.253,-2.253,-2.253,-2.253,-2.253,-2.8352,-2.8352,-2.8417,0.0,-2.8628,0.0,-2.8864,-2.8864,-2.8864,-2.8864,-2.8718,-2.8523,-2.8336,-2.8182,-2.8019,-2.7824,0.0,0.0,0.0,-2.7342,-2.7126,-2.6708,-2.6907,-2.6907,-2.6667,-2.6667,-2.6667,-2.6667,-2.6395,-2.6062,-2.5721,-2.555,-2.5355,-2.5145,-2.512,-2.5104,-2.5104,-2.508,-2.5039,-2.4868,-2.4868,-2.4763,-2.4592,-2.4592,-2.4486,-2.4294,-2.4294,-2.4235,-2.4064,-2.3894,-2.3829,-2.3804,-2.3829,-2.3699,-2.3552,-2.3552,-2.3528,-2.3528,-2.3528,-2.3528,-2.3528,-2.3528,-2.3382,-2.3189,-2.2652,-2.2212,-2.1815,-2.149,-2.1178,-2.0869,-2.0645,-2.0174,-1.9808,-1.9792,-1.9337,-1.8915,-1.8565,0.0,0.0,0.0,0.0,0.0,0.0,-1.7762,-1.7965,0.0,0.0,0.0,0.0,0.0,-1.8348,-1.9768,-2.032,-2.0775,-2.114,-2.1319,-2.1408,-2.1449,-2.179,-2.2123,-2.253,-2.253,-2.253,-2.253,-2.253,-2.253,-2.253,-2.253,-2.253,-2.253,-2.253,-2.253,-2.2489,-2.253,-2.253,-2.2489,0.0,0.0,-2.8758,-2.8823,-2.8823,-2.8848,-2.8888,-2.8758,-2.8677,-2.8677,-2.8628,-2.8482,-2.8165,-2.823,-2.8141,-2.7824,-2.7759,-2.767,-2.7483,-2.7353,-2.7167,-2.6955,-2.6797,-2.6777,-2.6667,-2.6667,-2.6667,-2.6667,-2.6509,-2.6354,-2.6341,-2.6103,-2.5908,-2.5737,-2.5615,-2.5461,-2.5339,-2.5145,-2.5039,-2.4868,-2.4868,-2.4763,-2.4592,-2.4592,-2.4568,-2.4527,-2.4527,-2.4421,-2.4275,-2.4227,-2.404,-2.3829,-2.3959,-2.3894,-2.3739,-2.3739,-2.3634,-2.3528,-2.3528,-2.3528,-2.3528,-2.3528,-2.3382,-2.3206,-2.274,-2.2489,-2.2196,-2.1701,-2.1319,-2.101,-2.0877,-2.0413,-2.0006,-1.9817,-1.9337,-1.8907,-1.8688,-1.8347,0.0,0.0,-1.8182,-1.819,-1.8052,-1.8322,-1.842,0.0,0.0,0.0,0.0,-1.9013,-1.9354,-2.0014,-2.0385,-2.0832,-2.1319,-2.1514,-2.1781,-2.2001,-2.2082,-2.2253,-2.253,-2.253,-2.253,-2.253,-2.253,-2.253,-2.253,-2.253,-2.253,-2.253,-2.253,-2.2553,-2.2635,-2.2571,-2.2553,-2.2635,-2.8734,-2.8823,-2.8888,-2.8888,-2.8888,-2.8888,-2.8888,-2.8799,-2.8734,-2.8734,-2.8734,-2.8588,-2.823,-2.8271,-2.8182,-2.7824,-2.78,-2.7735,-2.7494,-2.7524,-2.7353,-2.7037,-2.7008,-2.6927,-2.6736,-2.6825,-2.6825,-2.6667,-2.6631,-2.6549,-2.6536,-2.6379,-2.6184,-2.5932,-2.5826,-2.5697,-2.5526,-2.542,-2.5274,-2.5104,-2.5014,-2.4892,-2.4722,-2.4633,-2.4592,-2.4592,-2.4592,-2.4527,-2.4446,-2.4356,-2.421,-2.4064,-2.417,-2.4064,-2.3934,-2.4015,-2.3869,-2.3658,-2.3658,-2.3593,-2.3528,-2.3528,-2.3382,-2.3195,-2.2911,-2.2659,-2.2359,-2.2033,-2.1555,-2.1189,-2.101,-2.0483,-1.9979,-1.9703,-1.9281,-1.8891,-1.8639,-1.8501,0.0,-1.8533,-1.876,-1.8858,-1.8785,-1.9045,-1.9094,-1.8809,0.0,0.0,-1.9467,-1.9817,-2.0101,-2.0348,-2.0653,-2.1059,-2.1514,-2.1701,-2.1961,-2.2318,-2.2237,-2.2383,-2.27,-2.2618,-2.2635,-2.27,-2.27,-2.27,-2.27,-2.27,-2.27,-2.27,-2.27,-2.2765,-2.283,-2.274,-2.2765,-2.283,-2.8888,-2.8888,-2.8888,-2.8888,-2.8888,-2.8888,-2.8888,-2.8864,-2.8848,-2.8799,-2.8799,-2.8653,-2.8287,-2.8271,-2.8165,-2.7824,-2.78,-2.7735,-2.7589,-2.7694,-2.7564,-2.7118,-2.7353,-2.7272,-2.6785,-2.6907,-2.689,-2.6667,-2.6667,-2.6655,-2.6509,-2.6509,-2.6338,-2.6013,-2.593,-2.5867,-2.5721,-2.5697,-2.5575,-2.538,-2.5185,-2.5079,-2.4892,-2.4698,-2.4633,-2.4633,-2.4592,-2.4592,-2.4568,-2.4421,-2.4356,-2.434,-2.4356,-2.4251,-2.4145,-2.4316,-2.4145,-2.3869,-2.3845,-2.3723,-2.3508,-2.3528,-2.3406,-2.3252,-2.3081,-2.2805,-2.2571,-2.2277,-2.1855,-2.1425,-2.1205,-2.0588,-1.9987,-1.9613,-1.9232,-1.8866,-1.8589,0.0,-1.8866,-1.9045,-1.9297,-1.9451,-1.9622,-1.9776,-1.9817,-1.9687,-1.9971,-2.0209,-2.0234,-2.0523,-2.0718,-2.0718,-2.101,-2.1343,-2.1749,-2.1912,-2.2188,-2.2513,-2.2383,-2.2553,-2.3,-2.283,-2.2846,-2.3,-2.3,-2.3,-2.3,-2.3,-2.3,-2.3,-2.3,-2.3016,-2.3041,-2.3,-2.3016,-2.3041,-2.8888,-2.8888,-2.8888,-2.8888,-2.8888,-2.8888,-2.8888,-2.8758,-2.8588,-2.8442,-2.8417,-2.8287,-2.793,-2.8019,-2.8036,-2.7824,-2.78,-2.7784,-2.7759,-2.7654,-2.7478,-2.7459,-2.7378,-2.7207,-2.6972,-2.6842,-2.676,-2.6667,-2.6667,-2.672,-2.6695,-2.6695,-2.659,-2.6379,-2.6233,-2.6062,-2.5891,-2.5737,-2.5575,-2.5404,-2.538,-2.525,-2.5079,-2.4892,-2.4828,-2.4803,-2.4657,-2.4592,-2.4592,-2.4568,-2.4462,-2.4356,-2.4511,-2.4446,-2.434,-2.4511,-2.4405,-2.4227,-2.4064,-2.3894,-2.3723,-2.3508,-2.3504,-2.3447,-2.3312,-2.323,-2.3059,-2.2529,-2.2237,-2.1912,-2.1425,-2.0759,-2.0166,-1.98,-1.9313,-1.8915,-1.8712,0.0,-1.924,-1.941,-1.9735,-2.0011,-2.0174,-2.0223,-2.0288,-2.0418,-2.0483,-2.058,-2.0779,-2.1067,-2.1254,-2.1254,-2.1319,-2.1595,-2.2107,-2.2302,-2.2489,-2.2675,-2.2805,-2.2911,-2.3,-2.2976,-2.2976,-2.3,-2.3,-2.3,-2.3,-2.3,-2.3,-2.3,-2.3,-2.3081,-2.3255,-2.3065,-2.3081,-2.3255,-2.8888,-2.8888,-2.8888,-2.8888,-2.8888,-2.8888,-2.8888,-2.8823,-2.8734,-2.8653,-2.8547,-2.8377,-2.8117,-2.8076,-2.7995,-2.7824,-2.78,-2.78,-2.78,-2.7735,-2.7583,-2.7478,-2.7548,-2.7443,-2.7167,-2.6972,-2.6842,-2.6667,-2.6667,-2.6667,-2.6667,-2.6667,-2.6631,-2.6536,-2.6379,-2.6184,-2.5932,-2.5843,-2.5721,-2.555,-2.5445,-2.5355,-2.5274,-2.5079,-2.4957,-2.4868,-2.4892,-2.4763,-2.4616,-2.4828,-2.4698,-2.4511,-2.4681,-2.4616,-2.4486,-2.4568,-2.4462,-2.4275,-2.3999,-2.3869,-2.3764,-2.3569,-2.3528,-2.3487,-2.336,-2.3312,-2.323,-2.283,-2.2529,-2.2237,-2.1896,-2.1238,-2.0669,-2.0409,-1.9833,0.0,0.0,-1.95,-1.9646,-1.9914,-2.019,-2.0418,-2.0588,-2.0604,-2.0645,-2.0726,-2.0824,-2.0962,-2.1186,-2.1439,-2.162,-2.1806,-2.1912,-2.2082,-2.2342,-2.2618,-2.2846,-2.3,-2.3,-2.3106,-2.3276,-2.3187,-2.3187,-2.3276,-2.3276,-2.3276,-2.3276,-2.3276,-2.3276,-2.3276,-2.3276,-2.3341,-2.3406,-2.3317,-2.3341,-2.3382,-2.8888,-2.8888,-2.8888,-2.8888,-2.8888,-2.8888,-2.8888,-2.8888,-2.8864,-2.8823,-2.8693,-2.8547,-2.8352,-2.8182,-2.8019,-2.7889,-2.7824,-2.78,-2.78,-2.78,-2.7735,-2.7613,-2.7694,-2.7589,-2.7342,-2.7102,-2.6931,-2.6667,-2.6667,-2.6667,-2.6667,-2.6667,-2.6655,-2.6525,-2.6484,-2.6298,-2.5997,-2.5948,-2.5826,-2.5722,-2.5526,-2.5461,-2.5445,-2.5274,-2.512,-2.4998,-2.5104,-2.4949,-2.4763,-2.5039,-2.4949,-2.4738,-2.4892,-2.4803,-2.4657,-2.4657,-2.4527,-2.427,-2.4015,-2.3894,-2.3829,-2.3634,-2.3552,-2.3487,-2.3358,-2.3377,-2.3276,-2.3081,-2.2854,-2.2636,-2.2359,-2.1766,-2.123,-2.0962,0.0,0.0,0.0,-2.0068,-2.0166,-2.0523,-2.0734,-2.0913,-2.1092,-2.1108,-2.1108,-2.1108,-2.1238,-2.1384,-2.1555,-2.1805,-2.2026,-2.2359,-2.2464,-2.2553,-2.2594,-2.2895,-2.313,-2.3312,-2.3171,-2.3276,-2.3528,-2.3382,-2.3406,-2.3528,-2.3528,-2.3528,-2.3528,-2.3528,-2.3528,-2.3528,-2.3528,-2.3528,-2.3528,-2.3528,-2.3528,-2.3528,-2.8888,-2.8888,-2.8888,-2.8888,-2.8888,-2.8888,-2.8888,-2.8888,-2.8823,-2.8653,-2.8612,-2.8547,-2.8352,-2.8182,-2.8076,-2.806,-2.7906,-2.78,-2.78,-2.78,-2.78,-2.7784,-2.7583,-2.7483,-2.7272,-2.7102,-2.6931,-2.6667,-2.6667,-2.6667,-2.6667,-2.6667,-2.6667,-2.6651,-2.6549,-2.6354,-2.6184,-2.5997,-2.5826,-2.568,-2.5656,-2.5656,-2.5632,-2.5445,-2.538,-2.5339,-2.5185,-2.5055,-2.5104,-2.508,-2.5055,-2.5104,-2.5055,-2.4998,-2.4852,-2.4852,-2.4722,-2.4527,-2.4294,-2.417,-2.4061,-2.3829,-2.3658,-2.3528,-2.3512,-2.3512,-2.3463,-2.3336,-2.3271,-2.3141,-2.274,-2.2229,-2.1701,-2.1189,0.0,0.0,-2.032,-2.0572,-2.0958,-2.1254,-2.1528,-2.166,-2.1831,-2.1847,-2.1847,-2.1847,-2.1815,-2.1953,-2.2131,-2.2359,-2.2578,-2.2935,-2.2789,-2.2789,-2.296,-2.3146,-2.3295,-2.3312,-2.3422,-2.3504,-2.3528,-2.3512,-2.3512,-2.3528,-2.3528,-2.3528,-2.3528,-2.3528,-2.3528,-2.3528,-2.3528,-2.3528,-2.3528,-2.3528,-2.3528,-2.3528,-2.8888,-2.8888,-2.8848,-2.8734,-2.8799,-2.8848,-2.8734,-2.8823,-2.8864,-2.8783,-2.8588,-2.8344,-2.8336,-2.8076,-2.7906,-2.7906,-2.7841,-2.78,-2.78,-2.78,-2.78,-2.78,-2.7629,-2.7459,-2.7272,-2.7102,-2.6931,-2.6667,-2.6667,-2.6667,-2.6667,-2.6667,-2.6667,-2.6667,-2.6671,-2.6525,-2.6354,-2.6298,-2.6168,-2.6013,-2.6013,-2.5932,-2.5826,-2.5761,-2.5591,-2.5404,-2.5461,-2.5339,-2.512,-2.5396,-2.5339,-2.5104,-2.5274,-2.5185,-2.5039,-2.5039,-2.4998,-2.4909,-2.4844,-2.4551,-2.4186,-2.4015,-2.391,-2.3829,-2.3723,-2.3699,-2.3658,-2.3463,-2.3341,-2.3271,-2.3081,-2.27,-2.2342,-2.2294,0.0,-2.1449,-2.1465,-2.1408,-2.1463,-2.1585,-2.1725,-2.1847,-2.188,-2.188,-2.1977,-2.2082,-2.2188,-2.2342,-2.2513,-2.27,-2.2911,-2.3206,-2.3081,-2.3081,-2.3206,-2.3341,-2.3422,-2.3422,-2.3487,-2.3528,-2.3528,-2.3528,-2.3528,-2.3528,-2.3528,-2.3528,-2.3528,-2.3528,-2.3528,-2.3528,-2.3528,-2.3528,-2.3528,-2.3528,-2.3528,-2.3528,-2.8888,-2.8888,-2.8848,-2.8718,-2.8758,-2.8783,-2.8718,-2.8718,-2.8734,-2.8799,-2.8523,-2.8336,-2.8336,-2.806,-2.7889,-2.7889,-2.7841,-2.78,-2.78,-2.78,-2.78,-2.78,-2.7629,-2.7459,-2.7272,-2.7102,-2.6931,-2.6667,-2.6667,-2.6667,-2.6667,-2.6667,-2.6667,-2.6667,-2.6667,-2.6631,-2.6536,-2.6536,-2.6354,-2.6208,-2.6208,-2.6103,-2.5932,-2.5932,-2.5737,-2.551,-2.5697,-2.5567,-2.5355,-2.5656,-2.555,-2.5339,-2.5445,-2.5355,-2.5209,-2.5104,-2.508,-2.508,-2.508,-2.4804,-2.4527,-2.43,-2.4207,-2.404,-2.391,-2.3845,-2.3764,-2.3634,-2.3463,-2.3341,-2.3341,-2.3081,-2.2911,-2.2976,-2.2529,-2.2172,-2.2342,-2.2147,-2.2026,-2.2123,-2.2188,-2.2277,-2.2277,-2.2277,-2.2318,-2.2448,-2.2553,-2.27,-2.287,-2.3065,-2.3211,-2.3341,-2.3341,-2.3341,-2.3341,-2.3463,-2.3528,-2.3528,-2.3528,-2.3528,-2.3528,-2.3528,-2.3528,-2.3528,-2.3528,-2.3528,-2.3528,-2.3528,-2.3528,-2.3528,-2.3528,-2.3528,-2.3528,-2.3528,-2.3528,-2.3528,-2.8888,-2.8888,-2.8888,-2.8888,-2.8734,-2.8677,-2.8864,-2.8563,-2.8393,-2.8588,-2.8442,-2.8336,-2.8336,-2.8182,-2.8076,-2.8076,-2.7906,-2.78,-2.78,-2.78,-2.78,-2.78,-2.7629,-2.7459,-2.7272,-2.7102,-2.6931,-2.6667,-2.6667,-2.6667,-2.6667,-2.6667,-2.6667,-2.6667,-2.6667,-2.6631,-2.6536,-2.6536,-2.6354,-2.6208,-2.6208,-2.6103,-2.5932,-2.5932,-2.5826,-2.5697,-2.5867,-2.5826,-2.5697,-2.5867,-2.5826,-2.568,-2.568,-2.555,-2.538,-2.5145,-2.508,-2.508,-2.508,-2.508,-2.4991,-2.4681,-2.434,-2.4126,-2.4126,-2.3934,-2.3804,-2.3804,-2.3658,-2.3528,-2.3528,-2.3382,-2.3255,-2.3025,-2.2846,-2.2724,-2.2724,-2.2724,-2.2789,-2.2976,-2.3,-2.3,-2.3,-2.3,-2.3,-2.3,-2.3,-2.3081,-2.3312,-2.3422,-2.3528,-2.3528,-2.3528,-2.3528,-2.3528,-2.3528,-2.3528,-2.3528,-2.3528,-2.3528,-2.3528,-2.3528,-2.3528,-2.3528,-2.3528,-2.3528,-2.3528,-2.3528,-2.3528,-2.3528,-2.3528,-2.3528,-2.3528,-2.3528,-2.3528,-2.3528,-2.8888,-2.8888,-2.8848,-2.8718,-2.8653,-2.8628,-2.8677,-2.8482,-2.8393,-2.8588,-2.8336,-2.8165,-2.8165,-2.7995,-2.7889,-2.7889,-2.7841,-2.78,-2.78,-2.78,-2.7735,-2.7629,-2.7443,-2.7337,-2.7272,-2.6972,-2.6732,-2.6667,-2.6667,-2.6667,-2.6667,-2.6667,-2.6667,-2.6667,-2.6667,-2.6651,-2.6655,-2.6655,-2.6631,-2.6522,-2.6522,-2.646,-2.6314,-2.6314,-2.6208,-2.6062,-2.6103,-2.6103,-2.6062,-2.6103,-2.6103,-2.6062,-2.6062,-2.5932,-2.5761,-2.5655,-2.5615,-2.5526,-2.5526,-2.542,-2.5234,-2.4868,-2.4761,-2.4576,-2.4316,-2.421,-2.4105,-2.3845,-2.3764,-2.3682,-2.3552,-2.3487,-2.3422,-2.3382,-2.3317,-2.3252,-2.3106,-2.3106,-2.3065,-2.3,-2.3,-2.3,-2.3,-2.3,-2.3041,-2.323,-2.3293,-2.3398,-2.3447,-2.3504,-2.3528,-2.3528,-2.3528,-2.3528,-2.3528,-2.3528,-2.3528,-2.3528,-2.3528,-2.3528,-2.3528,-2.3528,-2.3528,-2.3528,-2.3528,-2.3528,-2.3528,-2.3528,-2.3528,-2.3528,-2.3528,-2.3528,-2.3528,-2.3528,-2.3528,-2.3528,-2.8799,-2.8783,-2.8734,-2.8628,-2.8507,-2.8442,-2.8588,-2.8336,-2.8182,-2.8377,-2.8141,-2.7971,-2.7971,-2.7865,-2.78,-2.78,-2.78,-2.7784,-2.7694,-2.7694,-2.7629,-2.7443,-2.7272,-2.7167,-2.7167,-2.689,-2.6667,-2.6667,-2.6667,-2.6667,-2.6667,-2.6667,-2.6667,-2.6667,-2.6667,-2.6667,-2.6667,-2.6667,-2.6667,-2.6667,-2.6667,-2.6631,-2.6536,-2.6536,-2.6354,-2.6208,-2.6289,-2.6273,-2.6208,-2.6289,-2.6273,-2.6208,-2.6208,-2.6127,-2.6038,-2.6038,-2.5908,-2.5786,-2.5786,-2.5656,-2.5445,-2.5144,-2.5022,-2.4909,-2.4616,-2.4486,-2.4356,-2.408,-2.3959,-2.3869,-2.3764,-2.3682,-2.3634,-2.3634,-2.3569,-2.3487,-2.3382,-2.3358,-2.3317,-2.3211,-2.3211,-2.3211,-2.3211,-2.3211,-2.3252,-2.3358,-2.3463,-2.3528,-2.3528,-2.3528,-2.3528,-2.3528,-2.3593,-2.3634,-2.3634,-2.3634,-2.3593,-2.3528,-2.3528,-2.3528,-2.3528,-2.3528,-2.3528,-2.3528,-2.3528,-2.3528,-2.3528,-2.3528,-2.3528,-2.3528,-2.3528,-2.3528,-2.3528,-2.3528,-2.3528,-2.3528,-2.8612,-2.8588,-2.8588,-2.8588,-2.8312,-2.819,-2.8523,-2.8141,-2.7865,-2.806,-2.7906,-2.78,-2.78,-2.78,-2.78,-2.78,-2.78,-2.7735,-2.7494,-2.7478,-2.7459,-2.7248,-2.7102,-2.7012,-2.6996,-2.6825,-2.6667,-2.6667,-2.6667,-2.6667,-2.6667,-2.6667,-2.6667,-2.6667,-2.6667,-2.6667,-2.6667,-2.6667,-2.6667,-2.6667,-2.6667,-2.6631,-2.6484,-2.6484,-2.6403,-2.6273,-2.6444,-2.6379,-2.6273,-2.6444,-2.6379,-2.6249,-2.6249,-2.6249,-2.6233,-2.6233,-2.6103,-2.5948,-2.5948,-2.5826,-2.5656,-2.5485,-2.5315,-2.508,-2.4933,-2.4746,-2.4568,-2.4397,-2.421,-2.408,-2.4126,-2.3934,-2.3829,-2.3829,-2.3682,-2.3569,-2.3552,-2.3552,-2.3552,-2.3528,-2.3528,-2.3528,-2.3528,-2.3528,-2.3528,-2.3528,-2.3528,-2.3528,-2.3528,-2.3552,-2.3552,-2.3552,-2.3739,-2.3829,-2.3829,-2.3829,-2.3739,-2.3569,-2.3552,-2.3528,-2.3552,-2.3528,-2.3528,-2.3528,-2.3528,-2.3528,-2.3528,-2.3528,-2.3528,-2.3528,-2.3528,-2.3528,-2.3528,-2.3528,-2.3528,-2.3528,-2.8393,-2.8393,-2.8393,-2.8393,-2.823,-2.8141,-2.8352,-2.806,-2.7865,-2.806,-2.7906,-2.78,-2.78,-2.78,-2.78,-2.78,-2.78,-2.7735,-2.7494,-2.7478,-2.7394,-2.7077,-2.7037,-2.6947,-2.6801,-2.6692,-2.6667,-2.6667,-2.6667,-2.6667,-2.6667,-2.6667,-2.6667,-2.6667,-2.6667,-2.6667,-2.6667,-2.6667,-2.6667,-2.6667,-2.6667,-2.6651,-2.6671,-2.6671,-2.6655,-2.6631,-2.6603,-2.6655,-2.6631,-2.6603,-2.6655,-2.6562,-2.6562,-2.6525,-2.6403,-2.6403,-2.6289,-2.6143,-2.6143,-2.6013,-2.5867,-2.5826,-2.5697,-2.5485,-2.5169,-2.4933,-2.4763,-2.4576,-2.4397,-2.4235,-2.4142,-2.404,-2.4061,-2.4061,-2.3975,-2.3894,-2.3764,-2.3739,-2.3699,-2.3552,-2.3528,-2.3528,-2.3528,-2.3528,-2.3528,-2.3528,-2.3528,-2.3528,-2.3528,-2.3658,-2.3739,-2.3739,-2.391,-2.4061,-2.4061,-2.4061,-2.4036,-2.3996,-2.3658,-2.3557,-2.3739,-2.3593,-2.3528,-2.3528,-2.3528,-2.3528,-2.3528,-2.3528,-2.3528,-2.3528,-2.3528,-2.3528,-2.3528,-2.3528,-2.3528,-2.3528,-2.823,-2.8206,-2.8206,-2.8206,-2.806,-2.8011,-2.8182,-2.7971,-2.7841,-2.793,-2.7865,-2.78,-2.78,-2.78,-2.78,-2.78,-2.78,-2.7735,-2.7494,-2.7459,-2.7288,-2.7037,-2.6931,-2.6842,-2.6667,-2.6667,-2.6667,-2.6667,-2.6667,-2.6667,-2.6667,-2.6667,-2.6667,-2.6667,-2.6667,-2.6667,-2.6667,-2.6667,-2.6667,-2.6667,-2.6667,-2.6667,-2.6667,-2.6667,-2.6667,-2.6667,-2.6667,-2.6667,-2.6667,-2.6667,-2.6667,-2.6667,-2.6667,-2.6671,-2.659,-2.659,-2.646,-2.6338,-2.6338,-2.6208,-2.6038,-2.5948,-2.5867,-2.5697,-2.5355,-2.5185,-2.5039,-2.4787,-2.4657,-2.4527,-2.4356,-2.4251,-2.4186,-2.4186,-2.4129,-2.404,-2.3934,-2.3934,-2.3894,-2.3788,-2.3723,-2.3634,-2.3528,-2.3528,-2.3528,-2.3528,-2.3528,-2.3528,-2.3528,-2.3699,-2.3804,-2.3804,-2.4064,-2.4186,-2.4186,-2.4186,-2.4235,-2.4316,-2.3959,-2.3829,-2.3934,-2.3829,-2.3788,-2.3788,-2.3699,-2.3658,-2.3658,-2.3508,-2.3528,-2.3528,-2.3528,-2.3528,-2.3528,-2.3528,-2.3528,-2.3528,-2.806,-2.8036,-2.8036,-2.8036,-2.7906,-2.7849,-2.8011,-2.7906,-2.78,-2.78,-2.78,-2.78,-2.78,-2.78,-2.78,-2.78,-2.78,-2.7735,-2.7494,-2.7402,-2.7231,-2.7012,-2.6866,-2.6708,-2.6667,-2.6667,-2.6667,-2.6667,-2.6667,-2.6667,-2.6667,-2.6667,-2.6667,-2.6667,-2.6667,-2.6667,-2.6667,-2.6667,-2.6667,-2.6667,-2.6667,-2.6667,-2.6667,-2.6667,-2.6667,-2.6667,-2.6667,-2.6667,-2.6667,-2.6667,-2.6667,-2.6667,-2.6667,-2.6667,-2.6667,-2.6667,-2.6631,-2.6509,-2.6509,-2.6379,-2.6208,-2.6062,-2.5997,-2.5891,-2.5567,-2.5445,-2.5315,-2.5022,-2.4933,-2.4868,-2.4681,-2.4527,-2.4421,-2.4381,-2.4251,-2.4145,-2.4167,-2.4105,-2.4105,-2.4126,-2.3934,-2.3788,-2.3593,-2.3569,-2.3508,-2.3528,-2.3528,-2.3552,-2.3569,-2.3739,-2.3869,-2.3894,-2.421,-2.4381,-2.4381,-2.4381,-2.4446,-2.4592,-2.43,-2.4145,-2.4105,-2.408,-2.4126,-2.4064,-2.391,-2.3829,-2.3788,-2.3634,-2.3552,-2.3528,-2.3528,-2.3528,-2.3528,-2.3528,-2.3528,-2.3528,-2.7841,-2.7841,-2.7841,-2.7841,-2.7824,-2.78,-2.7841,-2.7824,-2.78,-2.78,-2.78,-2.78,-2.78,-2.78,-2.78,-2.78,-2.78,-2.7735,-2.7494,-2.7453,-2.7353,-2.7037,-2.6996,-2.6907,-2.6667,-2.6667,-2.6667,-2.6667,-2.6667,-2.6667,-2.6667,-2.6667,-2.6667,-2.6667,-2.6667,-2.6667,-2.6667,-2.6667,-2.6667,-2.6667,-2.6667,-2.6667,-2.6667,-2.6667,-2.6667,-2.6667,-2.6667,-2.6667,-2.6667,-2.6667,-2.6667,-2.6667,-2.6667,-2.6667,-2.6667,-2.6667,-2.672,-2.6695,-2.6695,-2.6566,-2.6419,-2.6403,-2.6273,-2.6119,-2.5908,-2.5615,-2.538,-2.5339,-2.5209,-2.5063,-2.4868,-2.4867,-2.4746,-2.4592,-2.4527,-2.4462,-2.4316,-2.4292,-2.4235,-2.408,-2.4101,-2.3959,-2.3788,-2.3764,-2.3699,-2.3492,-2.3528,-2.3593,-2.3764,-2.3934,-2.4105,-2.4251,-2.4462,-2.4551,-2.4551,-2.4551,-2.4568,-2.4592,-2.4551,-2.4446,-2.4292,-2.4129,-2.4126,-2.4126,-2.404,-2.3934,-2.3804,-2.3788,-2.3674,-2.3528,-2.3528,-2.3528,-2.3528,-2.3528,-2.3528,-2.3528,-2.78,-2.78,-2.78,-2.78,-2.78,-2.78,-2.78,-2.78,-2.78,-2.78,-2.78,-2.78,-2.78,-2.7719,-2.7613,-2.7508,-2.7508,-2.7483,-2.7402,-2.7313,-2.7183,-2.7012,-2.6907,-2.6825,-2.6667,-2.6667,-2.6667,-2.6667,-2.6667,-2.6667,-2.6667,-2.6667,-2.6667,-2.6667,-2.6667,-2.6667,-2.6667,-2.6667,-2.6667,-2.6667,-2.6667,-2.6667,-2.6667,-2.6667,-2.6667,-2.6667,-2.6667,-2.6667,-2.6667,-2.6667,-2.6667,-2.6667,-2.6667,-2.6667,-2.6667,-2.6667,-2.6667,-2.6667,-2.6667,-2.6671,-2.659,-2.6484,-2.6403,-2.6314,-2.6119,-2.5891,-2.5632,-2.5445,-2.5339,-2.5234,-2.5063,-2.5014,-2.4957,-2.4787,-2.4746,-2.4681,-2.4511,-2.4486,-2.4421,-2.4235,-2.421,-2.4145,-2.3975,-2.3959,-2.391,-2.3829,-2.3829,-2.3869,-2.3934,-2.4121,-2.4251,-2.427,-2.4511,-2.4592,-2.4592,-2.4592,-2.4592,-2.4592,-2.4592,-2.4551,-2.4486,-2.4405,-2.4356,-2.4356,-2.4251,-2.417,-2.408,-2.3894,-2.3764,-2.3674,-2.3508,-2.3528,-2.3528,-2.3528,-2.3528,-2.3528]},{"header":{"parameterUnit":"m.s-1","parameterCategory":1,"la1":30.6,"la2":28.766,"lo1":-90.7593,"lo2":-88.6598,"dy":0.0162,"dx":0.0183,"nx":116,"ny":114,"refTime":"2024-06-14T18:00:00:Z","depth":0,"parameterNumber":3,"parameterNumberName":"V-component_of_WINDS"},"data":[0.0,0.0,0.0,0.0,0.0,0.0,0.0,0.0,0.0,0.0,0.0,0.0,0.0,0.0,0.0,0.0,0.0,0.0,0.0,0.0,0.0,0.0,0.0,0.0,0.0,0.0,0.0,0.0,0.0,0.0,0.0,0.0,0.0,0.0,0.0,0.0,0.0,0.0,0.0,0.0,0.0,0.0,0.0,0.0,0.0,0.0,0.0,0.0,0.0,0.0,0.0,0.0,0.0,0.0,0.0,0.0,0.0,0.0,0.0,0.0,0.0,0.0,0.0,0.0,0.0,0.0,0.0,0.0,0.0,0.0,0.0,0.0,0.0,0.0,0.0,0.0,0.0,0.0,0.0,0.0,0.0,0.0,0.0,0.0,0.0,0.0,0.0,0.0,0.0,0.0,0.0,0.0,0.0,0.0,0.0,0.0,0.0,0.0,0.0,0.0,0.0,0.0,0.0,0.0,0.0,0.0,0.0,0.0,0.0,0.0,0.0,0.0,0.0,0.0,0.0,0.0,0.0,0.0,0.0,0.0,0.0,0.0,0.0,0.0,0.0,0.0,0.0,0.0,0.0,0.0,0.0,0.0,0.0,0.0,0.0,0.0,0.0,0.0,0.0,0.0,0.0,0.0,0.0,0.0,0.0,0.0,0.0,0.0,0.0,0.0,0.0,0.0,0.0,0.0,0.0,0.0,0.0,0.0,0.0,0.0,0.0,0.0,0.0,0.0,0.0,0.0,0.0,0.0,0.0,0.0,0.0,0.0,0.0,0.0,0.0,0.0,0.0,0.0,0.0,0.0,0.0,0.0,0.0,0.0,0.0,0.0,0.0,0.0,0.0,0.0,0.0,0.0,0.0,0.0,0.0,0.0,0.0,0.0,0.0,0.0,0.0,0.0,0.0,0.0,0.0,0.0,0.0,0.0,0.0,0.0,0.0,0.0,0.0,0.0,0.0,0.0,0.0,0.0,0.0,0.0,0.0,0.0,0.0,0.0,0.0,0.0,0.0,0.0,0.0,0.0,0.0,0.0,0.0,0.0,0.0,0.0,0.0,0.0,0.0,0.0,0.0,0.0,0.0,0.0,0.0,0.0,0.0,0.0,0.0,0.0,0.0,0.0,0.0,0.0,0.0,0.0,0.0,0.0,0.0,0.0,0.0,0.0,0.0,0.0,0.0,0.0,0.0,0.0,0.0,0.0,0.0,0.0,0.0,0.0,0.0,0.0,0.0,0.0,0.0,0.0,0.0,0.0,0.0,0.0,0.0,0.0,0.0,0.0,0.0,0.0,0.0,0.0,0.0,0.0,0.0,0.0,0.0,0.0,0.0,0.0,0.0,0.0,0.0,0.0,0.0,0.0,0.0,0.0,0.0,0.0,0.0,0.0,0.0,0.0,0.0,0.0,0.0,0.0,0.0,0.0,0.0,0.0,0.0,0.0,0.0,0.0,0.0,0.0,0.0,0.0,0.0,0.0,0.0,0.0,0.0,0.0,0.0,0.0,0.0,0.0,0.0,0.0,0.0,0.0,0.0,0.0,0.0,0.0,0.0,0.0,0.0,0.0,0.0,0.0,0.0,0.0,0.0,0.0,0.0,0.0,0.0,0.0,0.0,0.0,0.0,0.0,0.0,0.0,0.0,0.0,0.0,0.0,0.0,0.0,0.0,0.0,0.0,0.0,0.0,0.0,0.0,0.0,0.0,0.0,0.0,0.0,0.0,0.0,0.0,0.0,0.0,0.0,0.0,0.0,0.0,0.0,0.0,0.0,0.0,0.0,0.0,0.0,0.0,0.0,0.0,0.0,0.0,0.0,0.0,0.0,0.0,0.0,0.0,0.0,0.0,0.0,0.0,0.0,0.0,0.0,0.0,0.0,0.0,0.0,0.0,0.0,0.0,0.0,0.0,0.0,0.0,0.0,0.0,0.0,0.0,0.0,0.0,0.0,0.0,0.0,0.0,0.0,0.0,0.0,0.0,0.0,0.0,0.0,0.0,0.0,0.0,0.0,0.0,0.0,0.0,0.0,0.0,0.0,0.0,0.0,0.0,0.0,0.0,0.0,0.0,0.0,0.0,0.0,0.0,0.0,0.0,0.0,0.0,0.0,0.0,0.0,0.0,0.0,0.0,0.0,0.0,0.0,0.0,0.0,0.0,0.0,0.0,0.0,0.0,0.0,0.0,0.0,0.0,0.0,0.0,0.0,0.0,0.0,0.0,0.0,0.0,0.0,0.0,0.0,0.0,0.0,0.0,0.0,0.0,0.0,0.0,0.0,0.0,0.0,0.0,0.0,0.0,0.0,0.0,0.0,0.0,0.0,0.0,0.0,0.0,0.0,0.0,0.0,0.0,0.0,0.0,0.0,0.0,0.0,0.0,0.0,0.0,0.0,0.0,0.0,0.0,0.0,0.0,0.0,0.0,0.0,0.0,0.0,0.0,0.0,0.0,0.0,0.0,0.0,0.0,0.0,0.0,0.0,0.0,0.0,0.0,0.0,0.0,0.0,0.0,0.0,0.0,0.0,0.0,0.0,0.0,0.0,0.0,0.0,0.0,0.0,0.0,0.0,0.0,0.0,0.0,0.0,0.0,0.0,0.0,0.0,0.0,0.0,0.0,0.0,0.0,0.0,0.0,0.0,0.0,0.0,0.0,0.0,0.0,0.0,0.0,0.0,0.0,0.0,0.0,0.0,0.0,0.0,0.0,0.0,0.0,0.0,0.0,0.0,0.0,0.0,0.0,0.0,0.0,0.0,0.0,0.0,0.0,0.0,0.0,0.0,0.0,0.0,0.0,0.0,0.0,0.0,0.0,0.0,0.0,0.0,0.0,0.0,0.0,0.0,0.0,0.0,0.0,0.0,0.0,0.0,0.0,0.0,0.0,0.0,0.0,0.0,0.0,0.0,0.0,0.0,0.0,0.0,0.0,0.0,0.0,0.0,0.0,0.0,0.0,0.0,0.0,0.0,0.0,0.0,0.0,0.0,0.0,0.0,0.0,0.0,0.0,0.0,0.0,0.0,0.0,0.0,0.0,0.0,0.0,0.0,0.0,0.0,0.0,0.0,0.0,0.0,0.0,0.0,0.0,0.0,0.0,0.0,0.0,0.0,0.0,0.0,0.0,0.0,0.0,0.0,0.0,0.0,0.0,0.0,0.0,0.0,0.0,0.0,0.0,0.0,0.0,0.0,0.0,0.0,0.0,0.0,0.0,0.0,0.0,0.0,0.0,0.0,0.0,0.0,0.0,0.0,0.0,0.0,0.0,0.0,0.0,0.0,0.0,0.0,0.0,0.0,0.0,0.0,0.0,0.0,0.0,0.0,0.0,0.0,0.0,0.0,0.0,0.0,0.0,0.0,0.0,0.0,0.0,0.0,0.0,0.0,0.0,0.0,0.0,0.0,0.0,0.0,0.0,0.0,0.0,0.0,0.0,0.0,0.0,0.0,0.0,0.0,0.0,0.0,0.0,0.0,0.0,0.0,0.0,0.0,0.0,0.0,0.0,0.0,0.0,0.0,0.0,0.0,0.0,0.0,0.0,0.0,0.0,0.0,0.0,0.0,0.0,0.0,0.0,0.0,0.0,0.0,0.0,0.0,0.0,0.0,0.0,0.0,0.0,0.0,0.0,0.0,0.0,0.0,0.0,0.0,0.0,0.0,0.0,0.0,0.0,0.0,0.0,0.0,0.0,0.0,0.0,0.0,0.0,0.0,0.0,0.0,0.0,0.0,0.0,0.0,0.0,0.0,0.0,0.0,0.0,0.0,0.0,0.0,0.0,0.0,0.0,0.0,0.0,0.0,0.0,0.0,0.0,0.0,0.0,0.0,0.0,0.0,0.0,0.0,0.0,0.0,0.0,0.0,0.0,0.0,0.0,0.0,0.0,0.0,0.0,0.0,0.0,0.0,0.0,0.0,0.0,0.0,0.0,0.0,0.0,0.0,0.0,0.0,0.0,0.0,0.0,0.0,0.0,0.0,0.0,0.0,0.0,0.0,0.0,0.0,0.0,0.0,0.0,0.0,0.0,0.0,0.0,0.0,0.0,0.0,0.0,0.0,0.0,0.0,0.0,0.0,0.0,0.0,0.0,0.0,0.0,0.0,0.0,0.0,0.0,0.0,0.0,0.0,0.0,0.0,0.0,0.0,0.0,0.0,0.0,0.0,0.0,0.0,0.0,0.0,0.0,0.0,0.0,0.0,0.0,0.0,0.0,0.0,0.0,0.0,0.0,0.0,0.0,0.0,0.0,0.0,0.0,0.0,0.0,0.0,0.0,0.0,0.0,0.0,0.0,0.0,0.0,0.0,0.0,0.0,0.0,0.0,0.0,0.0,0.0,0.0,0.0,0.0,0.0,0.0,0.0,0.0,0.0,0.0,0.0,0.0,0.0,0.0,0.0,0.0,0.0,0.0,0.0,0.0,0.0,0.0,0.0,0.0,0.0,0.0,0.0,0.0,0.0,0.0,0.0,0.0,0.0,0.0,0.0,0.0,0.0,0.0,0.0,0.0,0.0,0.0,0.0,0.0,0.0,0.0,0.0,0.0,0.0,0.0,0.0,0.0,0.0,0.0,0.0,0.0,0.0,0.0,0.0,0.0,0.0,0.0,0.0,0.0,0.0,0.0,0.0,0.0,0.0,0.0,0.0,0.0,0.0,0.0,0.0,0.0,0.0,0.0,0.0,0.0,0.0,0.0,0.0,0.0,0.0,0.0,0.0,0.0,0.0,0.0,0.0,0.0,0.0,0.0,0.0,0.0,0.0,0.0,0.0,0.0,0.0,0.0,0.0,0.0,0.0,0.0,0.0,0.0,0.0,0.0,0.0,0.0,0.0,0.0,0.0,0.0,0.0,0.0,0.0,0.0,0.0,0.0,0.0,0.0,0.0,0.0,0.0,0.0,0.0,0.0,0.0,0.0,0.0,0.0,0.0,0.0,0.0,0.0,0.0,0.0,0.0,0.0,0.0,0.0,0.0,0.0,0.0,0.0,0.0,0.0,0.0,0.0,0.0,0.0,0.0,0.0,0.0,0.0,0.0,0.0,0.0,0.0,0.0,0.0,0.0,0.0,0.0,0.0,0.0,0.0,0.0,0.0,0.0,0.0,0.0,0.0,0.0,0.0,0.0,0.0,0.0,0.0,0.0,0.0,0.0,0.0,0.0,0.0,0.0,0.0,0.0,0.0,0.0,0.0,0.0,0.0,0.0,0.0,0.0,0.0,0.0,0.0,0.0,0.0,0.0,0.0,0.0,0.0,0.0,0.0,0.0,0.0,0.0,0.0,0.0,0.0,0.0,0.0,0.0,0.0,0.0,0.0,0.0,0.0,0.0,0.0,0.0,0.0,0.0,0.0,0.0,0.0,0.0,0.0,0.0,0.0,0.0,0.0,0.0,0.0,0.0,0.0,0.0,0.0,0.0,0.0,0.0,0.0,0.0,0.0,0.0,0.0,0.0,0.0,0.0,0.0,0.0,0.0,0.0,0.0,0.0,0.0,0.0,0.0,0.0,0.0,0.0,0.0,0.0,0.0,0.0,0.0,0.0,0.0,0.0,0.0,0.0,0.0,0.0,0.0,0.0,0.0,0.0,0.0,0.0,0.0,0.0,0.0,0.0,0.0,0.0,0.0,0.0,0.0,0.0,0.0,0.0,0.0,0.0,0.0,0.0,0.0,0.0,0.0,0.0,0.0,0.0,0.0,0.0,0.0,0.0,0.0,0.0,0.0,0.0,0.0,0.0,0.0,0.0,0.0,0.0,0.0,0.0,0.0,0.0,0.0,0.0,0.0,0.0,0.0,0.0,0.0,0.0,0.0,0.0,0.0,0.0,0.0,0.0,0.0,0.0,0.0,0.0,0.0,0.0,0.0,0.0,0.0,0.0,0.0,0.0,0.0,0.0,0.0,0.0,0.0,0.0,0.0,0.0,0.0,0.0,0.0,0.0,0.0,0.0,0.0,0.0,0.0,0.0,0.0,0.0,0.0,0.0,0.0,0.0,0.0,0.0,0.0,0.0,0.0,0.0,0.0,0.0,0.0,0.0,0.0,0.0,0.0,0.0,0.0,0.0,0.0,0.0,0.0,0.0,0.0,0.0,0.0,0.0,0.0,0.0,0.0,0.0,0.0,4.3901,0.0,0.0,0.0,0.0,0.0,0.0,0.0,0.0,0.0,0.0,0.0,0.0,0.0,0.0,0.0,0.0,0.0,0.0,0.0,0.0,0.0,0.0,0.0,0.0,3.9688,4.089,4.1354,4.178,4.1819,4.1393,0.0,0.0,0.0,0.0,0.0,3.8144,3.7328,3.7483,3.8724,3.8724,3.9572,4.1158,3.9843,3.7674,3.4809,0.0,0.0,0.0,0.0,0.0,0.0,0.0,0.0,0.0,0.0,0.0,0.0,0.0,0.0,0.0,0.0,0.0,0.0,0.0,0.0,0.0,0.0,0.0,0.0,0.0,0.0,0.0,0.0,0.0,0.0,0.0,0.0,0.0,0.0,0.0,0.0,0.0,0.0,0.0,0.0,0.0,0.0,0.0,0.0,0.0,0.0,0.0,0.0,0.0,0.0,0.0,0.0,0.0,0.0,0.0,0.0,0.0,0.0,0.0,0.0,0.0,0.0,0.0,0.0,0.0,0.0,0.0,0.0,0.0,0.0,0.0,4.754,0.0,0.0,0.0,0.0,0.0,0.0,0.0,0.0,0.0,0.0,0.0,0.0,0.0,0.0,0.0,0.0,0.0,0.0,0.0,0.0,0.0,3.7403,3.8718,4.0887,4.2357,4.2628,4.3208,4.3205,4.2512,4.2164,0.0,0.0,4.0197,3.9771,3.9926,3.9379,4.0265,4.2667,4.3247,4.4794,4.7157,4.72,4.4952,4.0768,3.8334,0.0,0.0,0.0,0.0,0.0,0.0,0.0,0.0,0.0,0.0,0.0,0.0,0.0,0.0,0.0,0.0,0.0,0.0,0.0,0.0,0.0,0.0,0.0,0.0,0.0,0.0,0.0,0.0,0.0,0.0,0.0,0.0,0.0,0.0,0.0,0.0,0.0,0.0,0.0,0.0,0.0,0.0,0.0,0.0,0.0,0.0,0.0,0.0,0.0,0.0,0.0,0.0,0.0,0.0,0.0,0.0,0.0,0.0,0.0,0.0,0.0,0.0,0.0,6.2425,6.3351,6.416,6.405,6.4359,6.4673,5.8293,5.5324,5.4706,0.0,0.0,0.0,0.0,0.0,0.0,0.0,0.0,0.0,0.0,0.0,0.0,0.0,0.0,0.0,0.0,0.0,0.0,0.0,0.0,3.806,4.1158,4.2473,4.3711,4.5184,4.4755,4.4365,4.4249,4.286,4.1932,4.1854,4.1045,4.0968,4.1661,4.2318,4.3518,4.53,4.8272,5.067,5.2496,5.2496,5.2148,5.1254,4.5835,4.3359,4.305,0.0,0.0,0.0,0.0,0.0,0.0,0.0,0.0,0.0,0.0,0.0,0.0,0.0,0.0,0.0,0.0,0.0,0.0,0.0,0.0,0.0,0.0,0.0,0.0,0.0,0.0,0.0,0.0,0.0,0.0,0.0,0.0,0.0,0.0,0.0,0.0,0.0,0.0,0.0,0.0,0.0,4.6466,4.8129,0.0,0.0,0.0,0.0,0.0,0.0,0.0,0.0,0.0,0.0,0.0,0.0,0.0,6.2386,6.3351,6.5946,6.7648,6.8497,7.0117,7.1312,7.2084,7.1351,7.112,7.112,6.9364,0.0,6.0832,5.806,0.0,0.0,0.0,0.0,0.0,0.0,0.0,0.0,0.0,0.0,0.0,0.0,0.0,0.0,0.0,0.0,0.0,0.0,0.0,0.0,0.0,4.4369,4.6148,4.785,4.8546,4.8043,4.6148,4.5761,4.4755,4.2821,4.2396,4.2589,4.3437,4.4291,4.6732,5.0871,5.4735,5.7013,5.7753,5.7753,5.7753,5.7637,5.4581,5.1061,4.7227,4.3827,0.0,0.0,0.0,0.0,0.0,0.0,0.0,0.0,0.0,0.0,0.0,0.0,0.0,0.0,0.0,0.0,0.0,0.0,0.0,0.0,0.0,0.0,0.0,0.0,0.0,0.0,0.0,0.0,0.0,0.0,0.0,0.0,0.0,0.0,0.0,0.0,0.0,0.0,0.0,4.7751,5.114,5.0866,5.2103,5.1751,0.0,0.0,0.0,0.0,0.0,0.0,0.0,0.0,0.0,6.5852,6.7969,6.9707,7.1042,7.3629,7.5054,7.5439,7.6671,7.7218,7.7064,7.6717,7.6293,7.58,7.5408,7.3244,6.9579,6.4683,6.075,5.752,0.0,0.0,0.0,0.0,5.4713,5.5017,0.0,0.0,0.0,0.0,0.0,0.0,0.0,0.0,0.0,0.0,0.0,0.0,4.4369,4.6689,4.8856,5.0828,5.1954,5.1451,4.8898,4.8314,4.6922,4.4369,4.3862,4.4133,4.5216,4.754,5.137,5.6747,6.0344,6.2201,6.2394,6.2394,6.2394,6.2356,6.1543,5.8023,5.2372,4.8504,4.5874,4.3866,0.0,0.0,0.0,0.0,0.0,0.0,0.0,0.0,0.0,0.0,0.0,0.0,0.0,0.0,0.0,0.0,0.0,0.0,0.0,0.0,0.0,0.0,0.0,0.0,0.0,0.0,0.0,0.0,0.0,0.0,0.0,0.0,0.0,0.0,0.0,0.0,0.0,5.3087,5.5972,5.4659,5.7126,5.7203,0.0,0.0,0.0,0.0,0.0,0.0,6.6705,6.809,7.0167,7.3091,7.4668,7.6046,7.7284,7.9208,8.0246,8.0439,8.1093,8.117,8.0746,8.0554,8.0092,7.9446,7.9023,7.813,7.6484,7.0414,6.6406,6.3906,6.156,6.0525,6.0459,6.1296,6.1638,6.2023,0.0,0.0,0.0,0.0,0.0,0.0,0.0,0.0,0.0,0.0,0.0,4.3518,4.7695,4.9664,5.1753,5.431,5.3846,5.3347,5.3192,4.9401,4.708,4.6925,4.5371,4.5293,4.6925,5.3377,5.8444,6.2003,6.3903,6.5185,6.5953,6.5953,6.5953,6.5915,6.5107,6.3168,6.019,5.5161,5.2066,4.9935,4.4059,0.0,0.0,0.0,0.0,0.0,0.0,0.0,0.0,0.0,0.0,0.0,0.0,0.0,0.0,0.0,0.0,0.0,0.0,0.0,0.0,0.0,0.0,0.0,0.0,0.0,0.0,0.0,0.0,0.0,0.0,0.0,0.0,0.0,0.0,0.0,0.0,0.0,0.0,6.1595,6.5243,0.0,0.0,0.0,0.0,6.4089,6.7244,7.0314,7.2892,7.5399,7.7515,7.9315,8.0246,8.0746,8.0823,8.0977,8.14,8.217,8.2208,8.2639,8.337,8.2554,8.2131,8.2016,8.0439,7.97,7.9277,7.4938,7.1625,6.9136,6.7416,6.629,6.5714,6.6509,6.6838,6.6941,0.0,0.0,0.0,0.0,0.0,3.5977,3.6784,3.7364,3.8257,3.9771,4.2592,4.5687,4.8894,5.2217,5.5002,5.7061,5.7486,5.667,5.4465,5.1838,5.0639,5.1181,4.9088,4.9977,5.4391,5.9571,6.3362,6.5677,6.7965,6.8898,6.8666,6.8666,6.8352,6.7849,6.7578,6.692,6.5677,6.0035,5.5973,5.3029,4.8701,4.4752,0.0,0.0,0.0,0.0,0.0,0.0,0.0,0.0,0.0,0.0,0.0,0.0,0.0,0.0,0.0,0.0,0.0,0.0,0.0,0.0,0.0,0.0,0.0,0.0,0.0,0.0,0.0,0.0,0.0,0.0,0.0,0.0,0.0,0.0,0.0,0.0,0.0,6.7051,7.0706,0.0,6.7705,6.959,7.1552,7.2668,7.5399,7.8169,8.07,8.1708,8.2708,8.3824,8.4709,8.5132,8.5132,8.5709,8.614,8.641,8.641,8.6294,8.6017,8.5132,8.4478,8.3901,8.2747,8.1939,8.1246,7.9246,7.6561,7.3696,7.3087,7.2017,7.0875,7.1163,7.1233,7.131,0.0,0.0,0.0,0.0,3.532,3.6052,3.7171,3.7828,3.9027,4.1319,4.4565,4.8008,5.1443,5.5118,5.8023,5.9725,6.0151,5.9223,5.667,5.4336,5.3176,5.3498,5.2724,5.4929,6.0658,6.4411,6.723,6.9203,7.1198,7.1855,7.133,7.1275,7.1004,7.0512,7.0203,6.9938,6.9357,6.4831,6.0925,5.7448,5.3149,4.9707,4.6767,0.0,0.0,0.0,0.0,0.0,0.0,0.0,0.0,0.0,0.0,0.0,0.0,0.0,0.0,0.0,0.0,0.0,0.0,0.0,0.0,0.0,0.0,0.0,0.0,0.0,0.0,0.0,0.0,0.0,0.0,0.0,0.0,0.0,0.0,0.0,7.2206,7.2245,7.5976,7.7323,7.4207,7.6207,7.8284,7.9746,8.167,8.367,8.5632,8.6017,8.644,8.6978,8.7555,8.7825,8.7825,8.841,8.8718,8.8718,8.8718,8.841,8.7833,8.7248,8.6517,8.5709,8.4824,8.3939,8.3093,8.2285,8.0285,7.7669,7.7053,7.6015,7.4784,7.4784,7.4591,7.4315,0.0,0.0,0.0,3.5356,3.5706,3.6284,3.7944,3.8215,4.0033,4.5107,4.7312,5.0364,5.5466,5.8372,6.0615,6.2274,6.1577,6.0726,5.9992,5.6621,5.4375,5.3687,5.6235,6.0026,6.5025,6.765,7.0159,7.2678,7.3472,7.3897,7.391,7.3858,7.3858,7.3877,7.3026,7.2176,7.1286,6.9584,6.6954,6.34,5.7443,5.4967,5.4194,0.0,0.0,0.0,0.0,0.0,0.0,0.0,0.0,0.0,0.0,0.0,0.0,0.0,0.0,0.0,0.0,0.0,0.0,0.0,0.0,0.0,0.0,0.0,0.0,0.0,0.0,0.0,0.0,0.0,0.0,0.0,0.0,0.0,6.8776,7.2315,7.563,7.7369,8.1216,8.2785,8.0323,8.2324,8.4132,8.497,8.5778,8.6594,8.7478,8.8325,8.8795,8.8795,8.8795,8.8795,8.8795,8.8795,8.8795,8.8795,8.8795,8.8795,8.8795,8.8756,8.8295,8.744,8.6555,8.5747,8.4939,8.4055,8.2716,8.1093,7.9292,7.8061,7.733,7.7369,7.6823,7.5938,0.0,0.0,3.4198,3.4662,3.5742,3.6939,3.8022,3.8721,4.0542,4.4407,4.7502,5.1057,5.5505,5.8836,6.1452,6.3114,6.1375,6.0312,6.0658,5.6314,5.4689,5.6942,6.2462,6.6438,6.8452,7.1038,7.2969,7.4281,7.5112,7.5228,7.4629,7.461,7.4301,7.3741,7.3509,7.3278,7.293,7.1193,6.9919,6.8535,6.2665,5.8444,5.5427,0.0,0.0,0.0,0.0,0.0,0.0,0.0,0.0,0.0,0.0,0.0,0.0,0.0,0.0,0.0,0.0,0.0,0.0,0.0,0.0,0.0,0.0,0.0,0.0,0.0,0.0,0.0,0.0,0.0,0.0,0.0,0.0,7.4168,7.3937,7.8092,8.1785,8.3478,8.5824,8.7025,8.6324,8.691,8.7632,8.847,8.8739,8.9239,9.0094,9.0364,9.0517,9.0517,9.0517,9.0517,9.0517,9.0517,9.0517,9.0517,9.0517,9.0517,9.0479,8.9863,8.9432,8.9162,8.8325,8.7863,8.7555,8.6017,8.5132,8.4439,8.1516,7.9485,7.8253,7.8861,7.8554,7.7599,0.0,3.3695,3.451,3.4894,3.6013,3.7171,3.806,3.8956,4.1126,4.5606,4.8527,5.2235,5.7555,5.9882,6.1751,6.3441,6.1566,6.019,5.9917,5.7751,5.8161,6.1918,6.6607,6.982,7.1408,7.326,7.461,7.542,7.5934,7.5895,7.5459,7.5433,7.5163,7.4726,7.4379,7.4186,7.4109,7.2758,7.1755,7.0797,6.7393,6.3706,5.992,5.7718,5.5807,5.4239,5.3571,5.2327,5.0949,5.0949,0.0,0.0,0.0,0.0,0.0,0.0,0.0,0.0,0.0,0.0,0.0,0.0,0.0,0.0,0.0,0.0,0.0,0.0,0.0,0.0,0.0,0.0,0.0,0.0,7.663,8.0092,8.117,8.3247,8.5401,8.7432,8.8594,8.9363,8.971,8.9748,8.994,9.0393,9.0432,9.0825,9.171,9.1748,9.1902,9.2249,9.2249,9.2249,9.2249,9.2249,9.2095,9.1748,9.1748,9.1556,9.1171,9.0663,9.0239,0.0,8.9402,8.9017,8.8641,8.7594,8.6748,0.0,0.0,0.0,0.0,0.0,7.9054,7.7907,0.0,3.4471,3.4817,3.5668,3.6516,3.7326,3.8215,3.9072,4.1745,4.7618,4.978,5.3323,6.006,6.0755,6.1487,6.3426,6.1916,6.0298,5.9053,6.0629,6.3372,6.7326,6.9225,7.1338,7.3781,7.4629,7.5401,7.6172,7.6111,7.6111,7.6172,7.6111,7.6111,7.6133,7.5362,7.5015,7.4976,7.4166,7.2932,7.146,7.119,6.912,6.5737,6.1984,6.086,6.113,5.9549,5.7538,5.5567,5.5485,0.0,0.0,0.0,0.0,0.0,0.0,0.0,0.0,0.0,0.0,0.0,0.0,0.0,0.0,0.0,0.0,0.0,0.0,0.0,0.0,0.0,0.0,0.0,0.0,8.2593,8.617,8.8487,8.7671,8.7632,8.9778,9.0047,9.0393,9.1248,9.1364,9.1364,9.1479,9.1479,9.1825,9.2595,0.0,0.0,0.0,0.0,9.371,9.371,9.371,9.3326,9.2633,9.2633,9.2172,9.1364,9.1364,9.0855,9.0047,9.0047,8.9633,8.8987,8.8872,8.7825,8.6055,8.4286,8.2678,8.1285,8.0285,7.9054,7.7907,0.0,3.4971,3.5706,3.6516,3.7364,3.8254,3.9111,4.0004,4.2438,4.7695,4.9239,5.2189,5.8317,5.8959,6.0143,6.3191,6.1247,6.0597,6.224,6.4588,6.6891,6.911,7.1503,7.3318,7.4473,7.5365,7.5866,7.6058,7.6044,7.6044,7.6058,7.6044,7.6044,7.602,7.5866,7.5789,7.5712,7.4865,7.4319,7.3819,7.1786,6.9387,6.6972,6.6162,6.5047,6.385,6.286,6.2155,6.1577,6.0872,5.9326,5.7389,5.6004,5.3439,0.0,0.0,0.0,0.0,0.0,0.0,0.0,0.0,0.0,0.0,0.0,0.0,0.0,0.0,0.0,0.0,0.0,0.0,0.0,8.2024,8.564,8.8363,8.9509,9.0594,9.1171,9.0979,9.0941,9.1287,9.2172,9.2249,9.2518,9.3172,9.321,9.3287,9.3441,9.348,9.3518,9.371,9.371,9.371,9.371,9.371,9.3633,9.348,0.0,0.0,9.2249,9.2249,9.1787,9.0941,9.0941,9.0864,9.0671,8.997,8.8671,8.6901,8.4524,8.3409,8.2947,8.14,8.1054,8.1054,3.6284,3.6632,3.7096,3.748,3.8257,3.8995,3.9423,4.022,4.2447,4.7121,4.8796,5.1506,5.6642,5.7114,5.7757,5.9452,5.9188,6.0579,6.4359,6.6974,6.9552,7.2091,7.386,7.4938,7.5361,7.6207,7.663,7.663,7.7053,7.7246,7.7246,7.6823,7.663,7.663,7.6207,7.6015,7.5976,7.5553,7.5091,7.4546,7.2899,7.1208,6.9611,6.834,6.7314,6.6442,6.5593,6.5009,6.4523,6.3632,6.2246,6.0706,5.9836,5.7786,5.5198,0.0,0.0,0.0,0.0,0.0,0.0,0.0,0.0,0.0,0.0,0.0,0.0,0.0,0.0,7.4514,0.0,0.0,8.3939,8.6901,8.921,9.0864,9.171,9.221,9.2172,9.1287,9.1941,9.2441,9.2479,9.2864,9.3249,9.3681,9.371,9.3903,9.4335,9.4749,9.5172,9.5595,9.6019,9.6249,9.6249,9.5826,9.5403,9.5018,9.4557,9.3912,9.3095,9.2672,9.2249,9.1825,9.1402,9.121,9.1133,9.0278,8.9393,8.844,8.6324,8.4978,8.4093,8.2824,8.2054,8.1593,3.8292,3.8602,3.8641,3.8486,3.9033,3.9578,3.9733,4.0279,4.2184,4.6318,4.8086,5.0552,5.4694,5.5034,5.5186,5.5733,5.7769,6.1127,6.6051,6.8783,7.1629,7.4822,7.563,7.6015,7.6015,7.6861,7.7292,7.7292,7.8099,7.8484,7.8484,7.783,7.7445,7.7292,7.6553,7.6169,7.6015,7.6015,7.5592,7.4892,7.4046,7.3206,7.2206,6.9814,6.8776,6.8545,6.7667,6.6628,6.5551,6.5013,6.3743,6.2364,6.2518,6.1512,5.9781,5.7401,5.6324,0.0,0.0,0.0,0.0,0.0,0.0,0.0,0.0,7.0244,7.2084,7.6315,7.8938,8.1408,8.4524,8.6901,8.9094,9.1325,9.2287,9.2903,9.3403,9.3018,9.2364,9.1325,9.2556,9.3249,9.2787,9.348,9.4018,9.4172,9.4364,9.4749,9.5451,9.6326,9.7096,9.775,9.8442,9.8788,9.8788,9.8096,9.7326,9.6519,9.5826,9.4951,9.3941,9.3287,9.2826,9.2441,9.1595,9.121,9.1171,9.0432,9.0047,8.9778,8.8402,8.6863,8.5247,8.4209,8.2901,8.167,0.0,3.9965,4.0271,3.9501,3.9423,3.9771,4.0545,4.0665,4.1956,4.5475,4.6667,4.8539,5.2059,5.2386,5.3241,5.5521,5.9369,6.3518,6.7853,7.0514,7.3091,7.5745,7.5938,7.6015,7.6015,7.6861,7.7292,7.7292,7.8099,7.8484,7.8484,7.8407,7.7984,7.7292,7.7215,7.6707,7.6015,7.6015,7.5938,7.5784,7.4892,7.4084,7.3161,7.1321,7.0167,6.9436,6.8584,6.6737,6.4859,6.5513,6.4589,6.3314,6.4089,6.3666,6.2545,6.0742,5.8632,5.7286,5.9171,6.1743,6.4859,6.8898,7.0129,7.2514,0.0,8.117,8.0862,8.5093,8.6833,8.8141,9.0017,9.121,9.2249,9.3249,9.348,9.3364,9.271,9.3172,9.2979,9.1402,9.2056,9.2864,9.3518,9.4335,9.5181,9.5942,9.6673,9.7134,9.7211,9.8057,9.8557,9.8634,9.875,9.8788,9.8788,9.8711,9.8211,9.7365,9.7288,9.6403,9.4835,9.4758,9.3912,9.2441,9.1595,9.121,9.121,9.1095,9.0586,8.9893,8.9701,8.8594,8.694,8.5324,8.4132,8.3332,0.0,4.0197,4.07,4.0313,4.0274,4.039,4.0739,4.0742,4.1559,4.3971,4.4954,4.6369,4.8773,4.9865,5.1274,5.3313,5.7857,6.2397,6.6667,7.0244,7.3329,7.5899,7.6015,7.6015,7.6015,7.6861,7.7292,7.7292,7.8099,7.8754,7.9246,7.8754,7.833,7.7984,7.7522,7.6823,7.6015,7.6015,7.6015,7.5861,7.4546,7.3815,7.3276,7.1052,6.9052,6.7359,6.6513,6.5506,0.0,6.3903,6.3211,6.2743,6.3583,6.3281,6.2358,6.1133,6.1095,6.2281,6.6327,6.8936,7.1245,7.4514,7.7207,8.0092,8.4008,8.5209,8.6286,8.9056,9.0671,9.1825,9.2518,9.3787,9.4826,0.0,9.5595,9.5788,9.5441,9.4403,9.3441,9.2749,9.2556,9.2826,9.3633,9.4489,9.5566,9.6903,9.7326,9.7711,9.8211,9.9067,9.9567,9.9567,9.9981,10.0289,10.0289,9.9788,9.9096,9.825,9.775,9.6903,9.5749,9.522,9.4104,9.2479,9.2095,9.1672,9.121,9.121,9.097,9.0624,9.0086,8.921,8.7948,8.6247,8.4747,8.3678,0.0,4.0244,4.0817,4.078,4.0816,4.0816,4.0816,4.0742,4.1208,4.2682,4.3752,4.5047,4.6701,4.8163,4.9625,5.1082,5.5665,6.0281,6.4557,6.8828,7.2399,7.5207,7.5515,7.5745,7.5976,7.6861,7.7292,7.7292,7.8099,7.8938,7.9777,7.8907,7.8484,7.8446,7.7676,7.6823,7.6015,7.6015,7.6015,7.5861,7.443,7.3546,7.2899,7.0591,6.7975,6.5474,6.482,6.3858,6.2704,6.171,6.1248,6.121,6.2006,6.2012,6.1864,6.2364,6.4666,6.7744,7.0975,7.3745,7.6438,7.9215,8.2785,8.5709,8.6162,8.7902,8.9787,9.1248,9.2518,9.3441,9.3672,9.4941,9.6019,9.6249,9.698,9.7403,9.7211,9.5365,9.3903,9.3403,9.2633,9.2441,9.3287,9.4373,9.5605,9.7057,9.7596,9.825,9.9096,9.9981,10.0404,10.0404,10.1019,10.1279,10.1279,10.0712,9.9981,9.9144,9.8288,9.7442,9.6596,9.5489,9.422,9.2826,9.2826,9.221,9.121,9.1479,9.134,9.0942,9.0435,8.9433,8.8107,8.7018,8.5471,8.4055,0.0,0.0,4.0871,4.0799,4.0816,4.0816,4.0816,4.0742,4.1025,4.1914,4.3424,4.5047,4.6701,4.762,4.8509,4.9394,5.3362,5.7632,6.1941,6.6167,7.0045,7.343,7.4315,7.513,7.5976,7.6861,7.7292,7.7292,7.8099,7.8938,7.9777,7.8907,7.8484,7.8446,7.7676,7.6823,7.6015,7.6015,7.6015,7.5938,7.5007,7.3707,7.2059,7.036,6.759,6.4628,6.4628,6.1973,5.8583,5.9319,5.905,5.855,5.9358,6.0165,6.1633,6.5711,6.9898,7.2892,7.136,7.4591,7.9215,8.2601,8.5409,8.7748,8.9393,9.047,9.1364,9.2287,9.2479,9.2787,9.3557,9.445,9.5335,9.6172,9.698,9.725,9.6442,9.5518,9.4373,9.271,9.1787,9.1595,0.0,9.4027,9.5365,9.6288,9.7827,9.9144,9.999,10.0789,10.1289,10.1289,10.1279,10.1279,10.1279,10.1289,10.0904,10.0106,9.9183,9.8288,9.7403,9.5758,9.4527,9.3672,9.3672,9.271,9.1287,9.2095,9.1644,9.0464,9.0989,8.9513,8.7205,8.768,8.6584,8.4854,0.0,0.0,0.0,4.0861,4.0831,4.0816,4.0816,4.0765,4.1055,4.1879,4.3894,0.0,0.0,0.0,0.0,0.0,5.3592,5.7011,6.0165,6.4359,6.8013,7.086,7.2853,7.4276,7.513,7.5976,7.6438,7.6438,7.6707,7.7284,7.813,7.783,7.7715,7.7676,7.7407,7.6823,7.6015,7.6015,7.6015,7.5822,7.3822,7.2706,7.1905,6.9052,6.5865,6.2787,0.0,5.9588,5.7401,5.7088,5.678,5.6819,5.8242,5.8896,6.0204,6.5519,6.9744,7.3245,7.6053,7.9708,8.3285,8.5555,8.7594,8.9363,9.0509,9.1441,9.2133,9.2441,9.2479,9.2595,9.2864,9.3595,9.4595,9.6057,9.698,9.7596,9.7904,9.7211,9.5826,9.3557,9.3018,0.0,0.0,0.0,0.0,9.6903,9.7634,9.8788,10.0789,10.1212,10.1279,10.1279,10.1279,10.1279,10.1279,10.1279,10.0904,10.0106,9.8634,9.7788,9.7442,9.6365,9.5057,9.371,9.371,9.2749,9.121,9.1518,9.136,9.0952,9.1118,9.028,8.8912,8.8555,8.7645,8.6445,0.0,0.0,0.0,0.0,0.0,0.0,0.0,0.0,0.0,0.0,0.0,0.0,0.0,0.0,0.0,0.0,0.0,5.5434,5.7973,6.132,6.4589,6.7744,6.943,7.086,7.1975,7.2245,7.2822,7.3745,7.3745,7.4668,7.6361,7.6092,7.6092,7.6361,7.6053,7.563,7.5091,7.4784,7.463,7.4399,7.1521,7.0213,6.9597,6.6519,6.3403,0.0,5.9127,5.7517,5.5978,5.5088,5.5203,5.6011,5.7742,6.0358,6.3628,6.7712,7.179,7.6015,8.1131,8.4132,8.6363,8.8632,9.0017,9.0902,9.1133,9.1402,9.1402,9.0787,9.0441,9.0017,8.944,9.0017,9.1402,9.4057,9.5403,9.6749,9.8557,9.8057,9.6903,9.5249,9.4527,9.3864,0.0,0.0,0.0,9.6903,9.7904,9.9288,10.1202,10.1279,10.1279,10.1279,10.1279,10.1279,10.1279,10.1279,10.0712,9.9606,9.8481,9.7634,9.7057,9.6826,9.5634,9.371,9.4364,9.3518,9.171,9.1979,9.1822,9.1404,9.158,9.074,8.9314,8.9007,8.801,8.6681,0.0,0.0,0.0,0.0,0.0,0.0,0.0,0.0,0.0,0.0,0.0,0.0,0.0,0.0,0.0,0.0,0.0,0.0,5.5362,5.7203,6.0044,6.4089,6.4436,6.5282,6.6942,6.6327,6.7167,6.9552,6.9629,7.1245,7.4353,7.3584,7.3661,7.4353,7.3584,7.3238,7.3161,7.2322,7.1944,7.1636,6.825,6.6442,6.5474,6.298,6.0479,5.8204,5.7324,5.5901,5.4395,5.3703,5.4703,5.6511,5.8319,6.4436,7.1168,7.2213,7.6053,8.1093,8.6094,8.7555,8.844,9.1672,9.2479,9.2249,9.1325,9.0432,8.9278,8.7632,8.6517,8.5324,8.364,8.417,8.6247,9.0325,9.2595,9.498,9.8327,9.8173,9.7634,0.0,0.0,0.0,0.0,0.0,0.0,9.6365,0.0,10.0414,10.1289,10.1279,10.1394,10.1394,10.1394,10.1394,10.1394,10.1279,10.0519,9.8865,9.8827,9.7942,9.6403,9.7096,9.6095,9.3864,9.548,9.4788,9.2556,9.3326,9.2834,9.1688,9.2229,9.0832,8.8521,8.8983,8.7797,8.5778,0.0,0.0,0.0,0.0,0.0,0.0,0.0,0.0,0.0,0.0,0.0,0.0,0.0,0.0,0.0,0.0,0.0,0.0,5.2813,5.5659,5.8083,5.9813,6.2314,6.4122,6.5205,6.625,6.7096,6.7744,6.8398,6.9161,7.0007,6.9814,6.9814,7.0007,6.9776,6.9699,6.9622,6.8783,6.8404,6.8174,6.5397,6.416,6.3782,6.1858,5.9935,5.8204,5.7324,5.5901,5.4741,5.6434,5.9819,6.3705,6.6051,6.9129,7.2521,7.5907,7.9638,8.3486,8.7333,8.9757,9.1402,9.2287,9.2479,9.2095,9.0586,8.9094,8.7555,8.5901,8.3862,8.1862,8.0139,8.2593,8.5662,8.7979,9.2479,0.0,9.8481,9.9673,0.0,9.775,0.0,9.7442,9.6403,9.7211,0.0,0.0,9.8173,9.9096,10.1202,10.1904,10.2289,10.2289,10.2289,10.2289,10.2289,10.1587,10.0789,9.976,9.9096,9.825,9.7173,9.6788,9.5903,9.4643,9.4441,9.3633,9.2518,9.271,9.198,9.0805,9.1607,9.0814,8.9258,8.877,8.7823,8.6621,0.0,0.0,0.0,0.0,0.0,0.0,0.0,0.0,0.0,0.0,0.0,0.0,0.0,0.0,0.0,0.0,0.0,0.0,0.0,5.3692,5.5467,5.7088,5.8627,6.0012,6.1248,6.1826,6.2633,6.3743,6.4243,6.5083,6.616,6.616,6.616,6.616,6.616,6.616,6.6122,6.5243,6.4903,0.0,0.0,6.1121,6.0929,5.9204,5.7973,5.7088,5.6593,5.7517,5.9396,6.232,6.5936,6.9629,7.1783,7.4361,7.733,8.0823,8.3755,8.6563,8.9988,9.2219,9.3527,9.3133,9.2749,9.1672,8.8432,8.6671,8.4632,8.07,7.9046,7.7438,7.4591,7.7861,8.1785,8.4247,0.0,0.0,9.8365,9.9942,10.0712,0.0,10.0096,0.0,9.9635,10.0096,10.0596,0.0,10.0212,10.0404,10.1789,10.2712,10.2981,10.2597,10.2597,10.2404,10.202,10.151,10.0712,9.9529,9.9019,9.8173,9.698,9.7288,9.6519,9.4989,0.0,9.4134,9.3018,9.3018,9.2352,9.1423,9.2228,9.1666,9.0241,8.9783,8.8929,8.7843,0.0,0.0,0.0,0.0,0.0,0.0,0.0,0.0,0.0,0.0,0.0,0.0,0.0,0.0,0.0,0.0,0.0,0.0,0.0,0.0,5.3044,5.528,5.4895,5.5324,5.6786,5.6209,5.6973,5.9165,5.9281,6.0467,6.2621,6.2621,6.2621,6.2621,6.2621,6.2621,6.2583,6.1787,6.1402,6.121,5.8896,5.7934,5.778,0.0,5.5708,5.5708,5.5708,5.9319,6.4628,6.8167,7.1584,7.4661,7.6592,7.9862,8.3439,8.5901,8.7748,8.9718,9.2864,9.4335,9.4797,9.3912,9.3018,9.0979,8.5901,8.3708,8.0939,7.4469,7.343,7.2552,6.8776,7.2322,7.6976,8.0516,0.0,9.2864,9.8057,9.9548,10.101,10.3405,10.251,10.2192,10.3789,10.3212,10.3097,10.3789,10.3289,10.2904,10.2789,10.3597,10.3712,10.2789,10.2712,10.2212,10.1279,10.1279,10.0519,9.8981,9.8865,9.798,9.6519,9.7865,9.7221,9.5098,0.0,0.0,9.3515,9.3592,9.3092,9.2363,9.3112,9.244,9.1049,9.0839,8.9929,8.8711,0.0,0.0,0.0,0.0,0.0,0.0,0.0,0.0,0.0,0.0,4.9051,4.8373,0.0,0.0,0.0,0.0,0.0,0.0,0.0,0.0,0.0,5.3626,5.4818,5.5631,5.5939,5.6478,5.6978,5.744,5.8165,5.8736,5.916,5.916,5.916,5.916,5.916,5.916,5.9121,5.8248,5.7863,5.7786,5.6632,5.6165,5.6126,5.5824,0.0,0.0,5.5708,5.8171,6.2089,6.6167,7.2514,7.9238,8.2354,8.4824,8.6863,8.8701,8.997,9.121,9.3172,9.4335,9.4797,9.3912,9.2556,9.0094,8.4986,8.1023,7.7061,7.2322,6.9783,6.7975,6.659,7.1052,7.6284,8.0439,8.617,9.2163,9.798,9.9442,10.069,0.0,10.3093,10.338,10.3905,0.0,0.0,0.0,0.0,10.4405,10.3712,10.4405,10.4482,10.3712,10.2981,10.2212,10.1279,10.1279,10.0789,9.9875,9.9144,9.825,9.7288,9.6903,9.6222,9.5298,9.479,0.0,9.2447,9.3107,9.2511,9.1207,9.1558,9.1123,9.0165,8.9058,8.8051,8.7165,0.0,0.0,0.0,0.0,0.0,0.0,0.0,4.7354,4.9735,5.2705,5.3104,5.2743,5.1755,5.1541,5.13,0.0,0.0,0.0,0.0,0.0,0.0,5.3857,5.4664,5.5285,5.5708,5.6093,5.6324,5.6324,0.0,5.6934,5.6934,5.6934,5.6934,5.6934,5.6934,5.6934,5.6934,5.6516,5.6324,5.6285,5.5862,5.5708,5.5708,5.5708,0.0,0.0,5.6209,5.8555,6.1903,6.4826,7.1168,7.8477,8.2324,8.5324,8.7632,8.8902,9.0517,9.2133,9.3364,9.4335,9.4797,9.3912,9.1441,8.7786,8.2216,7.8015,7.3745,6.8084,6.6295,6.525,6.3551,6.8064,7.3017,7.5976,8.1785,8.8325,9.5172,9.7241,9.95,10.3395,10.4211,10.4585,0.0,0.0,0.0,0.0,0.0,10.5405,10.4607,10.4482,10.4289,10.3905,10.2597,10.1702,10.1279,10.1279,10.0904,10.0106,9.9221,9.8327,9.7471,9.6796,9.6121,9.5347,9.4715,0.0,9.2127,9.2506,9.1976,9.0902,9.1026,9.0846,9.0367,8.9294,8.8462,8.7763,0.0,0.0,0.0,0.0,0.0,0.0,0.0,4.9427,5.2046,5.5324,5.7083,5.7458,5.6015,5.41,5.2745,0.0,0.0,0.0,0.0,0.0,0.0,0.0,0.0,5.5049,5.5708,0.0,0.0,0.0,5.5708,0.0,0.0,0.0,0.0,0.0,5.5708,5.5708,5.5708,5.5708,5.5708,0.0,0.0,5.5978,0.0,0.0,0.0,0.0,0.0,5.844,6.1056,6.332,6.8167,7.4014,7.8246,8.2939,8.7055,8.8141,9.0094,9.2172,9.3172,9.4066,9.4518,9.3615,9.0222,8.553,7.9569,7.5332,7.0794,6.4334,6.3373,6.3207,6.1597,6.5263,6.9484,7.2507,7.7623,8.4069,9.226,9.5011,9.8269,0.0,10.5008,0.0,10.6287,0.0,0.0,0.0,0.0,0.0,10.5405,10.4405,10.3905,10.3905,10.2212,10.1201,10.1111,10.1111,10.0686,9.9979,9.8943,9.8099,9.7388,9.6614,9.5814,9.5025,9.4616,0.0,0.0,9.1929,9.1618,9.0966,9.0862,9.0875,9.0852,8.9905,8.916,8.8569,0.0,0.0,0.0,0.0,0.0,0.0,0.0,5.0962,5.4765,5.8193,5.9277,5.9685,5.9516,5.7206,5.4996,0.0,0.0,0.0,0.0,0.0,0.0,0.0,0.0,0.0,0.0,0.0,0.0,0.0,0.0,0.0,0.0,0.0,0.0,0.0,0.0,0.0,5.5708,5.5708,0.0,0.0,0.0,0.0,0.0,0.0,0.0,0.0,0.0,5.6016,5.6901,6.0941,6.3281,6.5237,6.9513,7.7438,8.5431,8.7055,8.8748,9.0509,9.2172,9.321,9.3615,9.2678,8.9249,8.4562,7.8583,7.3398,6.8374,6.3188,6.1536,6.1427,6.2733,6.4078,6.7325,7.4507,7.6724,8.105,9.1046,9.4455,9.7631,10.211,0.0,0.0,10.6199,0.0,0.0,0.0,0.0,0.0,10.629,10.4789,10.3905,10.3905,10.2212,10.1098,10.0608,10.0608,10.0297,9.9615,9.8021,9.7224,9.7072,9.5502,9.4483,9.3934,9.39,0.0,0.0,9.1434,9.1567,9.1212,9.0735,9.0834,9.1123,8.9802,8.8834,8.814,0.0,0.0,0.0,0.0,0.0,0.0,4.8594,5.1014,5.4168,5.9146,5.9954,6.0029,5.9999,5.9016,5.72,5.4337,0.0,0.0,0.0,0.0,0.0,0.0,0.0,0.0,0.0,0.0,5.6478,5.6478,0.0,0.0,0.0,0.0,0.0,0.0,0.0,0.0,0.0,5.5708,0.0,0.0,0.0,0.0,0.0,0.0,0.0,0.0,0.0,0.0,5.7434,5.8632,6.0594,6.2781,6.3974,6.9217,7.5963,8.1269,8.5091,8.817,9.0962,9.2244,9.2737,9.2372,8.8303,8.3095,7.8206,7.2739,6.7435,6.2938,6.1237,6.0975,6.2247,6.2727,6.48,7.0438,7.1608,7.4989,8.4092,8.7556,9.1663,9.8475,10.1517,0.0,0.0,0.0,0.0,0.0,0.0,0.0,10.6205,10.4617,10.3813,10.3813,10.2122,10.1119,10.0902,10.0615,10.0407,10.0112,9.8931,9.7921,9.7067,9.5905,9.4791,9.3783,9.3466,0.0,0.0,9.1056,9.0918,9.0727,9.0052,8.9892,9.0018,8.9494,8.879,8.8084,0.0,0.0,0.0,0.0,0.0,4.5,4.8828,5.0976,5.3944,5.893,5.9916,6.0129,6.0056,5.9483,5.8108,5.5595,5.5075,0.0,0.0,0.0,0.0,0.0,0.0,0.0,0.0,0.0,5.7132,5.7363,5.8242,0.0,0.0,0.0,0.0,0.0,0.0,0.0,0.0,0.0,0.0,0.0,0.0,0.0,0.0,0.0,0.0,0.0,0.0,0.0,0.0,0.0,0.0,6.0864,6.0242,6.2816,6.7664,7.5877,8.0852,8.4596,8.8572,9.0164,9.0704,9.0742,8.6792,8.1725,7.7289,7.205,6.6974,6.2765,6.1159,6.0788,6.1787,6.1908,6.3269,6.7616,6.8663,7.1804,7.9962,8.3806,8.8353,9.5228,0.0,0.0,0.0,0.0,0.0,0.0,0.0,0.0,0.0,10.4795,10.3884,10.3699,10.2201,10.1294,10.0886,10.0407,10.0101,9.9936,9.8894,9.7894,9.6922,9.6107,9.5222,9.4232,0.0,0.0,0.0,9.1205,9.0833,9.0796,9.0239,9.0016,8.9979,8.9756,8.9161,8.8418,0.0,0.0,0.0,0.0,0.0,0.0,4.7226,5.125,5.4922,5.7578,5.9248,6.0211,6.0211,5.8468,5.7305,5.7187,5.6396,0.0,0.0,0.0,0.0,0.0,0.0,0.0,0.0,0.0,5.744,5.8275,5.9088,5.9473,5.9473,0.0,0.0,0.0,0.0,0.0,0.0,0.0,0.0,0.0,0.0,0.0,0.0,0.0,0.0,0.0,0.0,0.0,0.0,0.0,0.0,0.0,0.0,5.9433,6.2631,7.1993,7.6486,7.9492,8.4682,8.6587,8.7139,8.7074,8.4451,8.0585,7.5476,7.1029,6.6788,6.2578,6.1054,6.0774,6.1728,6.179,6.3162,6.7571,6.9535,7.3142,8.0796,8.5626,8.9602,0.0,0.0,0.0,0.0,0.0,0.0,0.0,0.0,0.0,10.6395,10.5494,10.4505,10.3503,10.261,10.1495,10.0114,9.9658,9.9138,9.8594,9.7251,9.6626,9.6571,9.5754,9.5382,0.0,0.0,0.0,0.0,9.2059,9.1688,9.1688,9.1688,9.1688,9.1576,9.0796,8.9979,8.9161,0.0,0.0,0.0,0.0,0.0,0.0,0.0,4.9258,5.1641,5.4805,5.6149,5.7182,5.8299,5.7806,5.7323,5.72,5.6429,0.0,0.0,0.0,0.0,0.0,0.0,0.0,0.0,5.7126,5.8588,6.0012,6.0864,6.155,6.2083,6.0935,5.9781,0.0,0.0,0.0,0.0,0.0,0.0,0.0,0.0,0.0,0.0,0.0,0.0,0.0,0.0,0.0,0.0,0.0,0.0,0.0,0.0,0.0,0.0,6.4487,6.9798,7.4601,7.8081,7.9936,8.0731,8.024,7.8359,7.5638,7.174,6.8923,6.607,6.2449,6.1472,6.1534,6.2498,6.2606,6.436,6.9797,7.106,7.3836,8.0858,8.5045,0.0,9.3523,9.9587,0.0,0.0,0.0,0.0,0.0,0.0,0.0,10.5482,10.5204,10.4597,10.3677,10.2805,10.1696,10.0288,9.9767,9.9187,9.845,9.7595,9.6936,9.6399,9.6126,0.0,0.0,0.0,0.0,0.0,9.2282,9.1688,9.1688,9.1688,9.1019,9.009,9.0387,8.9644,8.8418,0.0,0.0,0.0,0.0,0.0,0.0,0.0,4.8398,5.0273,5.2695,5.401,5.533,5.6933,5.6711,5.6682,5.7184,5.6519,0.0,0.0,0.0,0.0,0.0,0.0,0.0,5.617,5.7588,5.9435,6.1743,6.2633,6.3474,6.4275,6.3205,6.1749,5.9973,5.9473,0.0,0.0,0.0,0.0,0.0,0.0,0.0,0.0,0.0,0.0,0.0,0.0,0.0,0.0,0.0,0.0,0.0,0.0,0.0,0.0,0.0,6.3652,6.8089,7.3031,7.5212,7.61,7.5927,7.4813,7.2873,6.9519,6.7431,6.5345,6.2299,6.1621,6.1805,6.2418,6.3023,6.4891,6.9192,7.0699,7.3526,7.9942,8.4376,0.0,9.5167,0.0,0.0,0.0,0.0,0.0,0.0,0.0,0.0,10.482,10.4792,10.44,10.3484,10.2607,10.1584,10.0416,9.9603,9.8975,9.845,9.7937,9.7388,9.6899,9.6898,0.0,0.0,0.0,0.0,0.0,9.2876,9.2171,9.2171,9.2171,9.1576,9.0685,9.0536,8.9867,8.8901,0.0,0.0,0.0,0.0,0.0,0.0,0.0,4.8398,5.0312,5.1133,5.2721,5.4394,5.5955,5.543,5.5617,5.7164,0.0,0.0,0.0,0.0,0.0,0.0,0.0,0.0,5.6983,5.7896,6.0044,6.3391,6.4314,6.5282,6.625,6.6211,6.4365,6.1172,6.1095,6.0089,0.0,0.0,0.0,0.0,0.0,0.0,0.0,0.0,0.0,0.0,0.0,0.0,0.0,0.0,0.0,0.0,0.0,0.0,0.0,0.0,0.0,0.0,0.0,7.1666,7.2393,7.3185,7.2846,7.1412,6.8211,6.6292,0.0,6.2089,6.1669,6.1767,6.2021,6.3325,6.5061,6.7156,6.9435,7.3017,7.8987,8.4414,0.0,0.0,0.0,0.0,0.0,0.0,0.0,0.0,0.0,0.0,10.4214,10.4214,10.3806,10.3006,10.2102,10.1302,10.0405,9.9243,9.8562,9.8498,9.8057,9.7817,9.7874,9.7817,0.0,0.0,0.0,0.0,0.0,9.3657,9.2988,9.2988,9.2988,9.2951,9.2728,9.1167,9.0499,9.0202,0.0,0.0,0.0,0.0,0.0,0.0,0.0,0.0,0.0,0.0,5.1471,5.3262,5.4203,5.5309,5.6386,0.0,0.0,0.0,0.0,0.0,0.0,0.0,0.0,0.0,5.6983,5.8473,6.0896,6.4282,6.5782,6.759,6.9706,6.909,6.7321,6.4673,6.4012,6.2397,0.0,0.0,0.0,0.0,0.0,0.0,0.0,0.0,0.0,0.0,0.0,5.6863,0.0,0.0,0.0,0.0,0.0,0.0,0.0,0.0,5.72,5.8079,6.2189,0.0,6.4351,6.4519,6.4932,6.4879,0.0,6.3274,6.3114,6.186,6.2128,6.3197,6.5161,6.5841,6.7943,7.3463,7.5395,7.829,8.4212,9.1062,0.0,0.0,0.0,0.0,0.0,0.0,0.0,0.0,0.0,10.4412,10.3402,10.331,10.3003,10.2312,10.1496,10.0699,9.9808,9.9052,9.8375,9.7817,9.7186,9.7191,9.7662,9.7117,0.0,0.0,0.0,0.0,9.5291,9.3657,9.2988,9.2988,9.2988,9.2579,9.1948,9.1576,9.0647,8.9533,0.0,0.0,0.0,0.0,0.0,0.0,0.0,0.0,0.0,0.0,0.0,5.2882,5.3707,5.4925,0.0,0.0,0.0,0.0,0.0,0.0,0.0,0.0,0.0,5.6285,5.7555,5.8858,6.1358,6.5205,6.6481,6.8404,7.0898,7.009,6.8321,6.5827,6.3782,6.232,0.0,0.0,0.0,0.0,0.0,0.0,0.0,0.0,0.0,0.0,5.5862,5.6247,0.0,5.7324,5.7819,5.8198,0.0,0.0,0.0,0.0,5.6195,5.6569,5.877,6.1051,6.2983,6.3776,6.4328,6.442,6.3541,6.2815,6.2044,6.1211,6.2051,6.3572,6.5719,6.7056,6.954,7.4698,7.6953,8.0879,8.9131,0.0,0.0,0.0,0.0,0.0,0.0,0.0,0.0,0.0,0.0,10.3197,10.25,10.2407,10.2315,10.1988,10.0921,10.0111,9.9664,9.8965,9.8201,9.7448,9.72,9.7235,9.7591,9.6914,9.6852,0.0,0.0,0.0,9.4771,9.3917,9.3099,9.2431,9.2839,9.2468,9.1688,9.1688,9.1167,9.0313,0.0,0.0,0.0,0.0,0.0,0.0,0.0,0.0,0.0,0.0,0.0,0.0,0.0,0.0,0.0,0.0,0.0,0.0,0.0,0.0,0.0,0.0,5.6555,5.6973,5.8858,5.9435,6.1781,6.6096,6.7019,6.8744,7.1091,7.0667,6.8898,6.5936,6.2666,6.1518,6.2095,0.0,0.0,0.0,0.0,0.0,0.0,0.0,0.0,0.0,0.0,0.0,0.0,5.8473,5.8742,5.8544,5.8808,0.0,0.0,0.0,0.0,0.0,5.792,6.1447,6.4825,6.5917,6.6453,6.6476,6.5605,6.3732,6.1975,6.1294,6.2395,6.4107,6.6178,6.8432,7.1183,7.4927,7.8022,8.3438,9.3563,9.7094,10.0091,0.0,0.0,0.0,0.0,0.0,0.0,0.0,0.0,10.1684,10.179,10.179,10.179,10.179,10.0492,9.9739,9.9592,9.8744,9.795,9.7285,9.7466,9.7501,9.737,9.677,9.656,9.6503,0.0,0.0,9.4362,9.4218,9.3269,9.1948,9.2546,9.234,9.1688,9.1688,9.1613,9.1316,0.0,0.0,0.0,0.0,0.0,0.0,0.0,0.0,0.0,0.0,0.0,0.0,0.0,0.0,0.0,0.0,0.0,0.0,0.0,0.0,0.0,5.9127,5.8357,5.905,6.1441,6.0902,6.2672,6.6904,6.8513,7.0244,7.2021,7.3322,7.1437,6.6789,6.4128,6.2627,6.2133,6.282,0.0,0.0,0.0,0.0,0.0,0.0,0.0,0.0,0.0,0.0,0.0,5.6439,5.7627,5.8962,5.6878,0.0,0.0,0.0,0.0,0.0,5.9995,6.3618,6.5872,6.3976,6.5115,6.6476,6.5605,6.5108,6.4764,6.4649,6.5413,6.7286,7.1145,7.2711,7.5233,8.0745,8.5588,9.0735,0.0,0.0,0.0,0.0,0.0,0.0,0.0,0.0,0.0,0.0,0.0,10.2212,10.1591,10.1517,10.1517,10.1517,10.0693,9.9867,9.9206,9.8078,9.7433,9.7285,9.7321,9.7007,9.6342,9.6212,9.6282,9.6366,0.0,9.5192,9.5163,9.4322,9.3486,9.2711,9.2006,9.1705,9.1688,9.1688,9.1279,9.0536,0.0,0.0,0.0,0.0,0.0,0.0,0.0,0.0,0.0,0.0,0.0,0.0,0.0,0.0,0.0,0.0,0.0,0.0,0.0,0.0,6.1089,6.1544,6.166,6.182,6.2095,6.2589,6.4705,6.8513,7.0206,7.1898,7.3514,7.2476,7.0014,6.6365,6.4237,6.3083,6.2781,6.3666,6.4282,0.0,0.0,0.0,0.0,0.0,0.0,0.0,0.0,0.0,0.0,0.0,5.8165,5.9269,5.8058,0.0,0.0,0.0,0.0,0.0,5.8862,6.2455,6.5459,6.5574,6.8203,7.064,7.0266,6.9082,6.8241,6.8699,6.912,7.0266,7.3132,7.5462,7.9169,8.6008,0.0,9.5154,0.0,0.0,0.0,0.0,0.0,0.0,0.0,0.0,0.0,0.0,0.0,0.0,10.1514,10.1514,10.1294,10.0927,10.0099,9.9255,9.8447,9.7464,9.697,9.697,9.7082,9.6953,9.6548,9.5753,9.5696,9.6118,0.0,9.4728,9.4427,9.4499,9.3624,9.2171,9.2162,9.1659,9.1,9.1429,9.1371,9.1,0.0,0.0,0.0,0.0,0.0,0.0,0.0,0.0,0.0,0.0,0.0,0.0,0.0,0.0,0.0,0.0,0.0,0.0,0.0,6.0866,6.1941,6.2974,6.3858,6.4166,6.3903,6.4743,6.6974,7.0591,7.1668,7.3053,7.4623,7.1668,6.8936,6.6397,6.4666,6.3814,6.366,6.4314,6.5089,0.0,0.0,0.0,0.0,0.0,0.0,0.0,0.0,0.0,0.0,0.0,0.0,0.0,0.0,0.0,0.0,5.7436,5.6396,5.6256,5.8486,6.1628,6.4907,6.7531,7.0763,7.362,7.4804,7.3123,7.1756,7.3408,7.3752,7.421,7.573,7.9245,0.0,9.043,9.5025,9.8278,0.0,0.0,0.0,0.0,0.0,0.0,0.0,0.0,0.0,0.0,0.0,0.0,10.1514,10.1514,10.109,10.0319,9.9512,9.8704,9.7916,9.7089,9.6685,9.6685,9.6857,9.6822,9.6601,9.5258,9.5127,9.592,9.5108,9.4424,9.3943,9.4695,9.3692,9.1764,9.2138,9.1546,9.0596,9.1259,9.1593,9.1687,0.0,0.0,0.0,0.0,0.0,0.0,0.0,0.0,0.0,0.0,0.0,0.0,0.0,0.0,0.0,0.0,0.0,0.0,0.0,5.9721,6.0435,6.2095,6.2974,6.5199,6.9052,6.7705,6.8975,7.3238,7.2552,7.3053,7.4661,7.286,7.0667,6.816,6.6474,6.5243,6.4512,6.4589,6.5089,6.582,6.4897,0.0,0.0,0.0,0.0,0.0,0.0,0.0,0.0,0.0,0.0,0.0,0.0,0.0,5.9032,5.8073,5.7212,5.7403,6.144,6.3358,6.5008,6.8287,6.9884,7.1901,7.6638,7.5759,7.508,7.9054,7.9856,8.0162,8.1079,8.5922,9.0735,9.3639,9.7623,10.0413,0.0,0.0,0.0,0.0,0.0,0.0,0.0,0.0,0.0,0.0,0.0,0.0,10.1514,10.1514,10.109,10.0319,9.9512,9.8704,9.7916,9.7089,9.6685,9.6685,9.6705,9.6337,9.5603,9.4704,9.4889,9.5755,9.4945,9.4631,9.4701,9.4668,9.3708,9.2225,9.135,9.1053,9.1151,9.1394,9.1842,9.2222,0.0,0.0,0.0,0.0,0.0,0.0,0.0,0.0,0.0,0.0,0.0,0.0,0.0,0.0,0.0,0.0,0.0,0.0,0.0,5.9485,6.0825,6.2056,6.3903,6.5897,6.8052,6.8975,7.1014,7.4238,7.4476,7.4361,7.393,7.2745,7.0559,6.7552,6.6942,6.6211,6.5397,6.5397,6.5897,6.6519,6.5166,0.0,0.0,0.0,0.0,0.0,0.0,0.0,0.0,0.0,5.7997,5.9478,5.81,5.9134,6.0441,5.8486,5.7275,5.7052,5.9224,6.3083,6.6797,6.8058,7.1794,7.5768,7.8261,7.9245,8.085,8.5091,8.555,8.5473,8.6314,8.9141,9.2198,9.472,9.8655,10.1481,0.0,0.0,0.0,0.0,0.0,0.0,0.0,0.0,0.0,0.0,0.0,0.0,10.1514,10.1514,10.0907,9.9585,9.9255,9.8484,9.7163,9.6832,9.6685,9.6685,9.6685,9.6539,9.6208,9.4887,9.4777,9.555,9.4227,9.3713,9.3749,9.3786,9.3158,9.2124,9.1225,9.1172,9.1523,9.1237,9.1604,9.2178,0.0,0.0,0.0,0.0,0.0,0.0,0.0,0.0,0.0,0.0,0.0,0.0,0.0,0.0,0.0,0.0,0.0,0.0,5.701,5.8632,6.0248,6.1633,6.3634,6.5442,6.7058,6.936,7.1783,7.4315,7.5707,7.5553,7.3853,7.2745,7.0944,6.8674,6.7859,6.7359,6.7051,6.6513,6.6596,6.6981,6.5551,6.4474,0.0,0.0,0.0,0.0,0.0,0.0,0.0,0.0,5.7775,5.9261,5.8215,5.9286,6.0599,5.8779,5.8421,5.8727,5.9338,6.3579,6.8172,6.9242,7.359,7.8213,8.0706,8.2569,8.5053,8.9561,8.9829,8.96,9.0708,9.1854,0.0,0.0,9.9305,0.0,0.0,0.0,0.0,0.0,0.0,0.0,0.0,0.0,0.0,0.0,0.0,0.0,0.0,10.1294,10.0503,9.9145,9.8851,9.808,9.6722,9.6685,9.6685,9.6685,9.6428,9.6318,9.6282,9.4923,9.4593,9.507,9.3712,9.3235,9.3474,9.329,9.2757,9.1965,9.1485,9.1359,9.1381,9.1027,9.1209,9.1652,0.0,0.0,0.0,0.0,0.0,0.0,0.0,0.0,0.0,0.0,0.0,0.0,0.0,0.0,0.0,0.0,0.0,0.0,5.6933,5.6983,5.8132,6.0671,6.1633,6.3634,6.6981,6.8783,7.093,7.3507,7.6015,7.6361,7.4623,7.2976,7.2175,7.2059,6.9552,6.8891,6.9552,6.7827,6.7096,6.7019,6.6244,6.5397,6.4436,0.0,0.0,0.0,0.0,0.0,0.0,0.0,5.7529,5.7156,5.9676,5.9852,5.914,5.9102,6.0898,6.2884,6.2884,6.5337,6.8746,7.2138,7.4889,7.8328,8.4212,8.554,8.7001,9.2121,9.2465,9.2389,9.4108,9.4403,0.0,9.663,0.0,0.0,0.0,0.0,0.0,0.0,0.0,0.0,0.0,0.0,0.0,0.0,0.0,0.0,0.0,10.0686,9.9916,9.9145,9.83,9.7493,9.6722,9.6685,9.6685,9.6685,9.5914,9.5492,9.5455,9.4666,9.4299,9.4226,9.3455,9.3565,9.4226,9.3418,9.2574,9.1822,9.202,9.1488,9.0647,9.0843,9.079,9.0592,0.0,0.0,0.0,0.0,0.0,0.0,0.0,0.0,0.0,0.0,0.0,0.0,0.0,0.0,0.0,0.0,0.0,0.0,5.6076,5.667,5.7594,5.8973,6.1018,6.2563,6.3557,6.6404,6.9706,7.3507,7.4238,7.4053,7.2937,7.2444,7.1245,6.9552,6.9975,6.9321,6.7827,6.7327,6.7096,6.7096,6.6827,6.5859,6.4474,0.0,0.0,0.0,0.0,0.0,0.0,0.0,0.0,0.0,5.7748,6.0047,6.2096,5.9147,6.0439,6.2655,6.144,6.5299,7.019,7.2444,7.8443,8.4584,8.7498,8.8634,9.0506,9.5587,9.639,9.6199,9.6172,9.6172,0.0,0.0,0.0,0.0,0.0,0.0,0.0,0.0,0.0,0.0,0.0,0.0,0.0,0.0,0.0,0.0,0.0,10.0686,9.9916,9.9145,9.83,9.7493,9.6722,9.6685,9.6685,9.6685,9.6465,9.6061,9.5455,9.4079,9.3455,9.3455,9.3198,9.3235,9.3455,9.3198,9.2574,9.1822,9.1876,9.1711,9.1363,9.0866,9.0628,9.0519,0.0,0.0,0.0,0.0,0.0,0.0,0.0,0.0,0.0,0.0,5.6601,5.6601,0.0,0.0,0.0,0.0,0.0,0.0,5.5724,5.6209,5.717,5.8698,6.0242,6.1864,6.3557,6.6596,6.9244,7.1468,7.2122,7.2014,7.1206,7.1905,7.136,6.9975,7.1321,7.0706,6.8597,6.8282,6.775,6.7096,6.7096,6.6481,6.5474,0.0,0.0,0.0,0.0,0.0,0.0,0.0,0.0,0.0,5.7193,5.9001,6.095,5.972,6.1745,6.4496,6.481,6.9319,7.4507,7.6876,8.2455,8.8186,9.1548,9.2951,9.4632,9.8338,9.8567,9.8071,9.7929,9.7623,0.0,0.0,0.0,0.0,0.0,0.0,0.0,0.0,0.0,0.0,0.0,0.0,0.0,0.0,0.0,0.0,0.0,10.0283,9.9438,9.8668,9.7823,9.7199,9.6685,9.6685,9.6539,9.6208,9.6208,9.5621,9.452,9.3859,9.3198,9.2611,9.3272,9.3418,9.3125,9.3455,9.2868,9.1803,9.1803,9.1583,9.1253,9.0776,9.0592,9.0537,0.0,0.0,0.0,0.0,0.0,0.0,0.0,0.0,0.0,0.0,5.6601,5.6601,0.0,0.0,0.0,0.0,0.0,0.0,0.0,5.5785,5.694,5.9396,5.9858,6.1973,6.6051,6.8321,6.909,6.8276,6.9898,7.036,6.9744,7.1321,7.2098,7.2136,7.2976,7.2322,7.0514,6.9706,6.8359,6.675,6.6827,6.6827,6.6596,6.4974,0.0,0.0,0.0,0.0,0.0,0.0,0.0,0.0,5.7665,5.7466,5.7511,6.0408,6.3847,6.74,7.0503,7.5051,7.9827,8.3486,8.6619,9.0211,9.5751,9.7662,9.8682,10.0298,9.937,9.8567,9.9343,9.8846,9.8567,0.0,0.0,0.0,0.0,0.0,0.0,0.0,0.0,0.0,0.0,0.0,0.0,0.0,0.0,0.0,0.0,9.9438,9.8668,9.7897,9.7126,9.6685,9.6685,9.6685,9.6318,9.5602,9.5528,9.4684,9.3235,9.3896,9.3345,9.2024,9.3602,9.3822,9.3161,9.3969,9.3308,9.1803,9.1803,9.1363,9.0702,9.0629,9.0592,9.0592,0.0,0.0,0.0,0.0,0.0,0.0,0.0,0.0,0.0,0.0,0.0,0.0,0.0,0.0,0.0,0.0,0.0,0.0,0.0,5.6324,5.7555,5.9435,6.2743,6.5551,6.7814,6.7744,6.7558,6.7366,6.8436,6.9199,6.9706,7.0706,7.1168,7.1206,7.2091,7.079,6.7866,6.7051,6.5705,6.416,6.4859,6.4743,6.4006,6.3018,6.2403,0.0,0.0,0.0,0.0,0.0,0.0,0.0,5.7632,5.8657,5.946,5.888,6.251,6.7018,6.8363,7.2452,7.7764,8.3754,8.9638,9.4643,9.723,9.8502,9.9381,10.0413,10.0298,10.0107,10.0298,10.0183,0.0,0.0,0.0,0.0,0.0,0.0,0.0,0.0,0.0,0.0,0.0,0.0,0.0,0.0,0.0,0.0,9.9365,9.8594,9.808,9.7916,9.7126,9.6685,9.6685,9.6685,9.6612,0.0,9.5785,9.4997,9.4042,9.3565,9.3161,9.2868,9.3859,9.3822,9.3161,9.3969,9.3308,9.1803,9.1803,9.1693,9.1473,9.0849,9.0592,9.0554,0.0,0.0,0.0,0.0,0.0,0.0,0.0,0.0,0.0,0.0,0.0,0.0,0.0,0.0,0.0,0.0,0.0,0.0,0.0,5.6516,5.8286,6.1198,6.4628,6.6705,6.7205,6.6744,6.6327,6.5897,6.6359,6.743,6.9122,7.0744,7.1745,7.2168,7.2168,7.029,6.7058,6.625,6.4666,6.2858,6.4089,6.4083,6.3198,6.2403,6.1595,6.071,5.9396,0.0,0.0,0.0,0.0,0.0,0.0,0.0,5.8657,5.9001,6.186,6.5605,6.886,7.3713,7.9704,8.7269,9.2083,9.5407,9.7127,9.8158,9.8999,9.984,10.0298,10.0604,10.0604,10.0604,0.0,0.0,0.0,0.0,0.0,0.0,0.0,0.0,0.0,0.0,0.0,0.0,0.0,0.0,0.0,9.8924,9.8557,9.8117,9.7713,9.7346,9.6906,9.6685,9.6685,9.6685,9.6318,9.5547,9.5511,9.4887,9.3712,9.2868,9.2721,9.3125,9.3932,9.3822,9.3161,9.3969,9.3308,9.1803,9.1803,9.1803,9.173,9.1326,9.1179,9.116,0.0,0.0,0.0,0.0,0.0,0.0,0.0,0.0,0.0,0.0,0.0,0.0,0.0,0.0,0.0,0.0,0.0,0.0,0.0,5.6786,5.9132,6.2929,6.5397,6.6365,6.5705,6.5513,6.5166,6.4589,6.4589,6.6276,6.9507,7.1206,7.2591,7.3661,7.2476,7.0251,6.7244,6.5827,6.3865,6.1749,6.3012,6.3089,6.2352,6.1518,6.0441,5.9204,5.8357,5.8154,5.8395,5.9082,0.0,0.0,0.0,0.0,5.6823,5.9078,6.1019,6.3618,6.8975,7.5471,8.2607,9.0478,9.3371,9.4747,9.6324,9.7318,9.8147,9.8999,9.9801,10.0413,10.0604,0.0,0.0,0.0,0.0,0.0,0.0,0.0,0.0,0.0,0.0,0.0,0.0,0.0,0.0,0.0,0.0,9.8432,9.7888,9.7773,9.746,9.6895,9.6762,9.6685,9.6685,9.6575,9.5878,9.4703,9.5254,9.4666,9.3088,9.2501,9.2537,9.3161,9.4079,9.3969,9.3161,9.3969,9.3308,9.1803,9.1803,9.1803,9.1822,9.1912,9.1965,9.2001,0.0,0.0,0.0,0.0,0.0,0.0,0.0,0.0,0.0,0.0,5.6601,5.6601,0.0,0.0,0.0,0.0,0.0,0.0,5.5719,0.0,0.0,6.2172,6.3974,6.4897,6.4782,6.4045,6.3968,6.4589,6.4589,6.7782,7.3815,7.1937,7.2322,7.443,7.2129,7.0014,6.7968,6.4211,6.1556,5.9819,5.9313,5.9083,5.8852,5.8017,5.8017,5.8357,5.7478,5.7631,5.8304,5.9063,5.8202,0.0,0.0,0.0,5.5747,5.6785,5.8848,6.1409,6.4389,7.3246,8.2951,8.8453,9.2111,9.4643,9.556,9.6439,9.728,0.0,9.8961,9.9763,10.0489,0.0,0.0,0.0,0.0,0.0,0.0,0.0,0.0,0.0,0.0,0.0,0.0,0.0,0.0,0.0,9.7016,9.721,9.7717,9.7174,9.7081,9.7549,9.7027,9.6685,9.6685,9.6025,9.5914,9.6355,9.5804,9.4666,9.3125,9.3712,9.3639,9.3198,9.4703,9.4483,9.3161,9.3969,9.3308,9.1803,9.1803,9.1803,9.1857,9.2454,9.269,9.2819,0.0,0.0,0.0,0.0,0.0,0.0,0.0,0.0,0.0,0.0,0.0,5.66,0.0,0.0,0.0,0.0,0.0,0.0,5.6417,5.7934,0.0,6.1979,6.2826,6.3211,6.3211,6.2358,6.232,6.3211,6.2704,6.6667,7.4661,7.3084,7.4976,7.9477,7.5014,7.2091,7.0167,6.4519,6.1095,5.9435,5.8627,5.9977,6.2054,5.8379,5.8944,6.1241,5.7571,5.6478,5.6871,5.7644,5.7353,5.676,5.7072,0.0,0.0,0.0,5.739,6.0492,6.7293,7.3599,8.0047,8.746,9.044,9.2007,9.3803,9.4872,9.5751,9.6515,9.7394,9.8388,0.0,0.0,0.0,0.0,0.0,0.0,0.0,0.0,0.0,0.0,0.0,0.0,0.0,0.0,0.0,0.0,9.7391,9.7809,9.7686,9.7792,9.7755,9.7686,9.739,9.7082,9.6685,9.5914,9.5474,9.5327,9.4997,9.4446,9.3786,9.4593,9.452,9.3822,9.452,9.4189,9.3125,9.3492,9.2905,9.1803,9.1803,9.1803,9.184,9.2143,9.2488,9.2884,0.0,0.0,0.0,0.0,0.0,0.0,0.0,0.0,0.0,0.0,0.0,0.0,0.0,0.0,0.0,0.0,0.0,0.0,5.6693,0.0,0.0,0.0,6.121,6.1248,6.0831,6.0364,6.0594,6.1441,6.1248,6.6013,7.5361,7.5161,7.8823,8.5247,7.8861,7.4822,7.2399,6.6058,6.2633,6.1358,6.0521,6.2394,6.5376,6.2272,6.3284,6.5572,5.9941,5.7757,5.7441,0.0,0.0,0.0,0.0,0.0,0.0,0.0,0.0,5.9147,6.7744,7.1803,7.5586,8.3983,8.7231,8.8988,9.1548,9.2962,9.4032,0.0,9.5828,9.6783,0.0,0.0,0.0,0.0,0.0,0.0,0.0,0.0,0.0,0.0,0.0,0.0,0.0,0.0,0.0,0.0,9.8142,9.8577,9.824,9.8508,9.8449,9.7888,9.7707,9.7285,9.6621,9.6083,9.529,9.4299,9.4703,9.4813,9.463,9.5437,9.5474,9.4923,9.4923,9.4446,9.3712,9.3492,9.2905,9.2097,9.1877,9.1893,9.2072,9.2229,9.272,9.3308,0.0,0.0,0.0,0.0,0.0,0.0,0.0,0.0,0.0,0.0,0.0,0.0,5.6583,5.6463,5.6338,5.6122,5.6094,0.0,0.0,0.0,0.0,0.0,0.0,0.0,5.7291,5.8011,5.8813,5.9627,6.1248,6.7212,7.7215,7.8746,8.3516,9.0479,8.2901,7.77,7.4238,6.9052,6.6789,6.6622,6.5685,6.5453,6.6207,7.0662,7.2004,7.0854,6.5757,6.345,0.0,0.0,0.0,0.0,0.0,5.6091,5.5435,0.0,0.0,0.0,6.0981,6.5184,6.9739,7.5844,8.1576,8.6352,8.8912,9.0746,9.2427,9.4108,9.4479,0.0,0.0,0.0,0.0,0.0,0.0,0.0,0.0,0.0,0.0,0.0,0.0,0.0,0.0,0.0,0.0,0.0,9.867,9.8975,9.9573,9.9035,9.8599,9.8386,9.777,9.7072,9.6414,9.6566,9.5841,9.4299,9.5841,9.6171,9.5455,9.6282,9.6612,9.6575,9.6575,9.6135,9.5308,9.4556,9.3749,9.2941,9.2134,9.2214,9.2819,9.3394,9.401,9.4667,0.0,0.0,0.0,0.0,0.0,0.0,0.0,0.0,0.0,0.0,0.0,0.0,0.0,5.6369,5.6194,5.6215,5.6064,0.0,0.0,0.0,0.0,0.0,0.0,0.0,5.8588,5.8396,5.8698,5.9511,5.9627,6.4282,7.3206,7.4361,7.7823,8.2978,8.1362,8.0246,7.9054,7.1245,6.8244,6.8737,6.829,7.0369,7.3622,7.2693,7.4829,7.7513,7.139,0.0,0.0,0.0,0.0,0.0,5.7524,5.6511,5.5396,5.5396,5.5785,5.6969,6.0599,6.3121,6.6254,7.2711,7.7526,8.1499,8.4556,8.8262,9.1204,9.1843,9.2798,0.0,0.0,0.0,0.0,0.0,0.0,0.0,0.0,0.0,0.0,0.0,0.0,0.0,0.0,0.0,0.0,0.0,0.0,9.9856,9.971,9.9843,9.9704,9.9241,9.8984,9.8319,9.7119,9.7699,9.7417,9.6352,9.7454,9.7827,9.7549,9.742,9.7041,9.6579,9.6656,9.6245,9.5418,9.463,9.3822,9.3125,9.3308,9.3466,9.3669,9.4435,9.5044,9.5501,0.0,0.0,0.0,0.0,0.0,0.0,0.0,0.0,5.7019,5.7019,0.0,0.0,0.0,0.0,5.6887,5.6622,5.64,5.6126,5.5714,5.5708,0.0,0.0,0.0,0.0,5.9473,5.8973,5.9127,5.9935,5.9396,6.3051,7.0514,7.1668,7.4598,7.89,7.8361,7.9361,8.1054,7.4553,7.1975,7.2315,7.3023,7.5448,7.8683,7.8654,8.0918,8.3359,0.0,0.0,0.0,0.0,0.0,0.0,0.0,5.7428,5.5396,5.5396,5.5976,5.7014,5.8994,6.0752,6.3618,7.0113,7.317,7.6074,8.1738,8.5167,8.7689,8.9409,9.109,0.0,0.0,0.0,0.0,0.0,0.0,0.0,0.0,0.0,0.0,0.0,0.0,0.0,0.0,0.0,0.0,0.0,0.0,0.0,9.9999,10.0387,10.0297,9.9606,9.9373,9.8785,9.7806,9.8411,9.8416,9.7906,9.8416,9.8717,9.8664,9.7942,9.7334,9.6816,9.6918,9.64,9.5455,9.4923,9.441,9.3951,9.4448,9.4701,9.4846,9.5629,9.6229,9.6628,0.0,0.0,0.0,0.0,0.0,0.0,0.0,5.8501,5.7909,5.7947,0.0,0.0,0.0,0.0,0.0,5.7482,5.7253,5.6747,5.5824,5.5785,5.6132,0.0,0.0,5.955,5.9627,5.9588,5.9973,6.0825,6.0825,6.3782,6.9513,7.1206,7.4668,7.9238,7.4361,7.4938,7.9469,7.8592,7.7907,7.7654,7.9807,8.0396,8.08,8.8797,9.0511,0.0,8.4791,8.2491,0.0,7.3265,0.0,0.0,0.0,5.8765,5.5473,5.5435,5.6014,5.6479,0.0,0.0,0.0,6.7477,6.8325,7.0351,8.0286,0.0,8.1729,8.6849,0.0,0.0,0.0,0.0,0.0,0.0,0.0,0.0,0.0,0.0,0.0,0.0,0.0,0.0,0.0,0.0,0.0,0.0,9.9381,9.9763,10.0604,10.0604,10.0183,9.9458,9.8808,9.8445,9.8445,9.8664,9.8778,9.8778,9.8778,9.8778,9.8741,9.7846,9.7455,9.738,9.7387,9.6713,9.5531,9.5549,9.553,9.5495,9.5388,9.5753,9.6343,9.7031,9.7654,9.8147,0.0,0.0,0.0,0.0,0.0,6.3409,6.2941,6.1571,6.081,0.0,0.0,0.0,6.1496,6.1887,6.2017,6.166,6.1052,5.9787,5.7703,5.7588,5.7703,5.7934,5.955,6.1012,6.2237,6.1666,6.1518,6.1749,6.1095,6.1979,6.4249,6.5936,6.8436,7.1584,7.2014,7.2629,7.3283,7.1822,7.4976,8.0739,7.8883,8.1986,0.0,0.0,0.0,0.0,0.0,8.8907,8.646,0.0,7.7926,7.1199,0.0,0.0,5.7084,5.6434,5.7275,5.8116,5.6664,0.0,0.0,0.0,0.0,0.0,0.0,0.0,0.0,8.2378,0.0,0.0,0.0,0.0,0.0,0.0,0.0,0.0,0.0,0.0,0.0,0.0,0.0,0.0,0.0,0.0,0.0,0.0,9.9037,9.9763,10.0604,10.0604,10.0489,10.0298,10.008,10.0008,10.0008,10.0012,10.0101,10.0101,10.0101,10.0101,10.0088,9.9376,9.8389,9.7279,9.7372,9.6871,9.604,9.6802,9.6741,9.6277,9.682,9.7348,9.7901,9.8695,9.9023,9.9037,0.0,0.0,6.849,6.7978,6.7073,6.6328,6.5937,6.4726,6.4088,0.0,0.0,0.0,6.4904,6.6273,6.6385,6.4557,6.3628,6.205,5.9511,5.9011,5.8973,5.9319,6.0935,6.282,6.4859,6.4095,6.3865,6.4172,6.2589,6.2089,6.2627,6.3974,6.5391,6.6853,6.7975,6.9013,6.9699,6.7276,7.1238,7.9269,8.1055,0.0,0.0,9.053,9.2832,0.0,0.0,0.0,9.1688,8.9572,8.2798,0.0,0.0,6.3312,6.0637,5.8734,5.9873,6.1287,5.9224,5.9911,6.1554,0.0,0.0,0.0,0.0,7.0724,0.0,0.0,0.0,0.0,0.0,0.0,0.0,0.0,0.0,0.0,0.0,0.0,0.0,0.0,0.0,0.0,0.0,9.7127,9.7727,9.8071,9.8923,9.9763,10.0604,10.0604,10.0604,10.0604,10.0604,10.0604,10.0604,10.0604,10.0604,10.0604,10.0604,10.0604,10.0592,9.9871,9.9061,9.8136,9.8204,9.7615,9.6667,9.8003,9.7862,9.7001,9.8113,9.847,9.8548,9.9657,10.0009,9.9916,0.0,0.0,6.9814,6.9843,6.9919,6.9723,6.8942,6.8083,6.7845,0.0,6.8106,6.8152,6.9791,7.1629,7.1251,6.7481,6.6013,6.4166,6.1556,6.0473,6.0242,6.0902,6.2551,6.4551,6.6904,6.6436,6.6436,6.6981,6.4705,6.3506,6.3314,6.4083,6.4397,6.4282,6.3622,6.5006,6.7699,6.5378,6.8493,7.567,8.3874,8.7147,0.0,0.0,9.6351,9.58,9.6959,9.6937,9.5893,9.2803,8.555,0.0,0.0,6.8929,6.5681,6.2135,6.3472,6.5528,6.3006,6.3587,6.5536,0.0,0.0,0.0,7.1068,7.019,6.954,0.0,0.0,0.0,0.0,0.0,0.0,0.0,0.0,0.0,0.0,0.0,0.0,0.0,0.0,0.0,9.5484,9.6248,9.7089,9.7918,9.8846,9.9649,10.0298,10.0413,10.0489,10.0489,10.0489,10.0489,10.0604,10.0604,10.0604,10.0604,10.0604,10.0604,10.0604,9.984,9.9458,9.9381,9.9381,9.8625,9.7487,9.9018,9.8829,9.7666,9.9149,9.9268,9.8805,10.0094,10.0604,10.0604,7.0,7.1443,7.2536,7.2534,7.308,7.3471,7.3354,7.2573,7.2489,7.3735,7.4635,7.6283,7.9254,7.763,7.5984,7.5137,7.1745,6.8321,6.5096,6.3435,6.2358,6.1864,6.3435,6.4897,6.6096,6.7321,6.7321,6.6134,6.5628,6.4666,6.3314,6.3468,6.3205,6.2595,6.3089,6.366,6.4615,6.9355,7.3398,7.6839,7.9256,0.0,9.4116,9.5438,9.8271,10.14,10.0295,9.9798,9.888,0.0,8.8683,8.3744,0.0,0.0,0.0,6.6865,0.0,6.993,6.737,6.7935,6.8776,6.6674,0.0,0.0,6.4573,6.5566,6.7706,0.0,0.0,0.0,0.0,0.0,0.0,0.0,0.0,0.0,0.0,0.0,0.0,0.0,0.0,0.0,9.4643,9.5369,9.621,9.7089,9.8541,9.9152,9.8605,9.9266,9.961,9.961,9.961,9.9954,10.0604,10.0604,10.0604,10.0604,10.0604,10.0604,10.0604,10.0413,9.9992,9.9381,9.9381,9.922,9.8974,9.9317,9.896,9.8293,9.9301,9.9898,10.0195,10.0492,10.0604,10.0604,7.1247,7.2729,7.4172,7.5031,7.554,7.6242,7.7609,7.6987,7.7342,8.0123,8.2375,8.3378,8.2378,8.1593,8.0054,7.7522,7.4553,7.136,6.8013,6.6167,6.482,6.4019,6.4782,6.6244,6.8359,6.8821,6.9052,6.9058,6.7327,6.5628,6.3929,6.3929,6.4372,6.5135,6.4757,6.5987,6.8401,7.0137,7.3029,7.7054,8.3238,0.0,9.6072,9.85,10.0994,10.3099,10.2209,10.1292,9.9687,9.3803,9.044,0.0,0.0,7.8939,7.7602,0.0,7.2864,7.4201,0.0,0.0,7.2062,7.0771,0.0,0.0,0.0,0.0,6.7133,7.0916,0.0,0.0,0.0,0.0,0.0,0.0,0.0,0.0,0.0,0.0,0.0,0.0,0.0,0.0,9.3726,9.4529,9.5522,9.6783,9.7662,9.8158,9.8109,9.8502,9.8961,9.9381,9.9381,9.9801,10.0604,10.0604,10.0604,10.0604,10.0604,10.0604,10.0604,10.0604,10.0413,9.9992,9.9992,9.9763,9.9419,9.984,9.9572,9.8997,9.9835,9.9805,9.9446,10.0298,10.0107,9.9458,7.2263,7.3588,7.5188,7.6594,7.7247,7.8251,8.036,8.0076,8.1173,8.5516,8.8738,8.9247,8.5618,8.6055,8.5055,8.1285,7.8323,7.5361,7.2322,6.9898,6.8205,6.7398,6.6898,6.7975,7.0821,7.0129,7.0129,7.0982,6.8366,6.625,6.4628,6.4936,6.6045,6.7739,6.7268,6.9369,7.3191,7.1147,7.3544,7.9607,0.0,9.3653,9.462,10.0295,10.2488,10.2603,10.3202,10.2285,9.9992,9.4796,0.0,9.0544,8.4824,8.3563,0.0,0.0,0.0,0.0,0.0,0.0,0.0,0.0,0.0,7.1833,0.0,0.0,0.0,7.1947,0.0,0.0,0.0,0.0,0.0,0.0,0.0,0.0,0.0,0.0,0.0,0.0,0.0,0.0,0.0,9.2618,9.3841,9.6019,9.556,9.5828,9.7307,9.7536,9.8006,9.8884,9.9075,9.9534,10.0413,10.0489,10.0604,10.0604,10.0604,10.0604,10.0604,10.0604,10.0604,10.0604,10.0604,10.0183,9.9687,10.0298,10.0183,9.9687,10.0298,9.9763,9.8758,10.0107,9.9752,9.8758,7.3157,7.4486,7.5697,7.5893,7.7706,7.9238,7.955,7.9972,8.2033,8.6836,9.0242,9.313,9.5518,9.3941,9.3095,9.4057,8.7786,8.2939,8.0977,7.6438,7.3469,7.2661,7.0475,6.9783,7.0898,7.0129,6.8706,6.6635,6.6942,6.625,6.4628,6.6134,6.659,6.6301,6.9771,7.2039,7.3445,7.595,8.1656,0.0,9.2776,9.165,0.0,9.6789,9.9851,10.0183,10.3202,10.3202,10.128,0.0,9.6324,9.4146,0.0,8.7957,0.0,0.0,0.0,0.0,0.0,0.0,0.0,0.0,7.9025,0.0,0.0,0.0,7.1259,6.8203,0.0,0.0,0.0,0.0,0.0,0.0,0.0,0.0,0.0,0.0,0.0,0.0,0.0,0.0,0.0,8.8071,8.9284,9.3229,9.0784,9.0784,9.4632,9.5484,9.6286,9.7165,9.7891,9.8655,9.9534,10.0183,10.0604,10.0604,10.0604,10.0604,10.0604,10.0604,10.0604,10.0604,10.0604,10.0489,10.0489,10.0604,10.0489,10.0489,10.0604,10.0489,10.0286,10.0489,10.0489,10.0286,7.3313,7.4607,7.5822,7.629,7.7131,7.8594,8.1077,8.6205,9.0125,9.1059,9.4945,9.7942,9.8904,9.6711,9.5672,9.6903,0.0,8.8671,0.0,0.0,7.8823,7.6515,7.3514,7.2276,7.3091,7.086,6.9398,6.8783,6.7205,6.6051,6.5359,6.6058,6.8268,7.1664,7.3407,7.7344,8.2571,8.1557,8.3427,0.0,0.0,0.0,0.0,10.0016,10.4195,10.389,10.4807,10.4386,10.2705,0.0,9.6515,0.0,0.0,0.0,0.0,0.0,0.0,0.0,0.0,0.0,0.0,0.0,0.0,0.0,0.0,0.0,7.0724,0.0,0.0,0.0,0.0,0.0,0.0,0.0,0.0,0.0,0.0,0.0,0.0,0.0,0.0,0.0,0.0,0.0,0.0,0.0,8.7689,8.8224,9.1996,9.3917,9.5293,9.6133,9.6974,9.8044,9.9381,9.9725,10.0107,10.0604,10.0604,10.0604,10.0604,10.0604,10.0604,10.0604,10.0604,10.0604,10.0604,10.0604,10.0604,10.0604,10.0604,10.0298,9.9954,10.0413,9.9981,9.9293,7.3561,7.4698,7.5908,7.6651,7.7077,7.8752,8.3092,9.0239,9.5026,9.4785,9.8557,10.1597,10.2404,10.0798,0.0,0.0,9.898,9.5464,0.0,0.0,8.4728,8.1974,7.8023,0.0,0.0,7.3115,7.1245,7.0898,6.8244,6.6936,6.6936,6.6936,6.9585,7.4435,7.6546,8.1687,8.8594,8.6758,8.7494,9.0036,9.2025,9.3054,9.4299,10.3087,10.6679,10.6794,10.622,10.5303,10.3699,9.8923,9.7585,0.0,9.4185,0.0,0.0,0.0,0.0,0.0,8.6734,0.0,0.0,0.0,0.0,0.0,0.0,0.0,0.0,0.0,0.0,0.0,0.0,0.0,0.0,0.0,0.0,0.0,0.0,0.0,0.0,0.0,0.0,0.0,0.0,0.0,0.0,0.0,0.0,8.5158,8.9971,9.2225,9.3955,9.5216,9.6324,9.7471,9.8693,9.9163,9.9687,10.0298,10.0489,10.0604,10.0604,10.0604,10.0604,10.0604,10.0604,10.0604,10.0604,10.0604,10.0604,10.0604,10.0604,10.0183,9.9801,10.0413,9.9828,9.8949,7.4294,7.5096,7.6023,7.6668,7.8034,8.06,8.529,8.9073,9.2835,9.6865,9.9673,0.0,0.0,0.0,0.0,0.0,0.0,10.4505,10.1909,0.0,9.1538,0.0,0.0,8.1592,0.0,7.747,7.4207,7.0898,7.0014,6.959,6.959,6.959,7.0088,7.1279,7.8547,8.3741,8.7245,9.1132,9.7012,10.3584,10.2094,10.4883,10.9404,0.0,10.4119,10.6908,10.6908,0.0,0.0,10.2311,10.1215,0.0,0.0,0.0,0.0,0.0,0.0,0.0,0.0,0.0,0.0,8.2607,0.0,0.0,0.0,0.0,7.463,0.0,0.0,0.0,0.0,0.0,0.0,6.9425,0.0,0.0,0.0,0.0,0.0,0.0,0.0,0.0,0.0,0.0,0.0,0.0,7.9321,0.0,8.8912,9.0201,9.1843,9.4365,9.6057,9.6936,9.6974,9.8579,9.9431,9.9469,10.0183,10.0604,10.0604,10.0604,10.0604,10.0604,10.0604,10.0604,10.0604,10.0604,10.0604,10.0604,10.0604,10.0604,10.0604,10.0604,10.0604,10.0489,7.4852,7.5645,7.5945,7.491,7.6006,7.9478,8.6704,9.2595,9.8173,0.0,0.0,0.0,0.0,11.3988,11.41,0.0,0.0,11.0486,10.7408,10.2609,0.0,0.0,0.0,8.7735,0.0,0.0,7.8246,7.4284,7.2322,7.1052,7.0475,6.9851,7.0895,7.3499,7.9344,8.4988,9.0367,0.0,0.0,0.0,0.0,10.5418,11.05,0.0,0.0,10.8513,10.8016,10.6985,0.0,10.4119,10.2579,10.128,10.0489,9.8502,9.6515,9.6772,9.5866,0.0,0.0,0.0,9.3994,8.7231,0.0,0.0,0.0,0.0,0.0,0.0,0.0,0.0,0.0,0.0,7.1344,7.019,6.9273,0.0,0.0,0.0,0.0,0.0,0.0,0.0,0.0,0.0,0.0,0.0,7.8566,0.0,8.6505,9.0249,9.2656,9.3497,9.5178,9.6324,9.6898,9.8006,9.8846,9.9431,10.0183,10.0604,10.0604,10.0604,10.0604,10.0604,10.1203,10.1089,10.0604,10.1203,10.1089,10.0604,10.0604,10.0604,10.0604,10.0604,10.0604,10.0604,7.6565,7.6953,7.6945,7.5707,7.8279,8.2862,8.9872,9.6942,0.0,0.0,11.0479,0.0,11.8915,0.0,11.7602,0.0,11.7911,11.4821,11.0913,10.7917,0.0,10.2293,9.7938,0.0,0.0,0.0,0.0,7.9069,7.6577,7.4731,7.3541,7.1692,7.2295,7.5099,7.9819,8.5437,9.1701,9.6592,10.0298,0.0,0.0,10.729,0.0,0.0,11.0194,10.9303,0.0,10.8093,10.7099,10.58,10.4616,10.3584,10.3011,10.11,9.9114,9.9037,9.8006,9.6821,9.621,9.6477,0.0,9.0326,8.7766,0.0,7.8337,0.0,0.0,0.0,0.0,0.0,0.0,0.0,0.0,7.1824,6.9846,6.7293,0.0,6.3503,0.0,0.0,0.0,0.0,0.0,0.0,7.168,7.5959,7.7038,7.9704,0.0,0.0,9.1854,9.3077,9.4452,9.556,9.6439,9.7547,9.8376,9.8961,10.0107,10.0604,10.0604,10.0604,10.0604,10.0604,10.1509,10.1394,10.0718,10.1903,10.1712,10.0604,10.0898,10.0909,10.0604,10.0604,10.0604,10.0604,7.9272,7.9184,7.9416,7.9455,8.455,0.0,0.0,0.0,10.7318,0.0,11.3284,11.6584,12.0014,12.0108,12.0588,12.2209,12.0708,0.0,11.2806,11.1709,0.0,0.0,10.4285,10.2216,9.8878,0.0,0.0,0.0,8.2375,8.0153,7.8337,7.4919,7.4105,7.5599,7.9898,8.5045,9.0888,9.8491,10.468,10.9494,11.0309,11.0691,11.0691,11.0691,11.0194,10.9494,10.9379,10.8882,10.8093,10.729,10.6997,10.6679,10.4998,10.4004,10.3011,10.1292,10.0183,9.9228,9.7623,9.7165,9.6172,9.2073,0.0,0.0,0.0,0.0,8.3715,0.0,0.0,0.0,0.0,0.0,0.0,7.4231,7.1412,6.7821,0.0,0.0,0.0,0.0,0.0,0.0,0.0,0.0,6.9158,7.4821,7.4622,7.7182,0.0,0.0,8.9561,9.2924,9.3917,9.4796,9.5598,9.728,9.8109,9.8109,9.9801,10.0604,10.0604,10.0604,10.0604,10.0718,10.1585,10.1509,10.0795,10.2514,10.2285,10.0795,10.1585,10.1521,10.0718,10.0604,10.0604,10.0604,8.0764,8.4551,8.821,0.0,8.8298,9.0441,0.0,0.0,0.0,0.0,11.7095,12.021,12.4315,12.3992,12.3715,12.4098,12.3003,0.0,0.0,0.0,0.0,11.3915,10.9601,10.6787,10.5804,9.8877,0.0,9.0187,0.0,7.9999,7.8278,7.5376,7.3603,7.2997,7.8429,8.3429,8.8262,9.5866,10.3114,10.9494,11.0309,11.0691,0.0,0.0,11.0576,11.0309,10.9608,10.9303,10.901,10.8093,10.7902,10.7711,10.6603,10.5686,10.4807,10.3699,10.2896,10.2094,10.1712,10.11,10.0107,9.7738,9.4796,9.1625,0.0,0.0,0.0,0.0,0.0,0.0,0.0,0.0,0.0,0.0,7.1901,0.0,0.0,0.0,0.0,0.0,0.0,0.0,0.0,0.0,6.9425,7.1565,7.3858,7.7573,8.3037,0.0,0.0,9.2045,9.3612,9.4796,9.5598,9.728,9.8109,9.8109,9.9801,10.0604,10.0604,10.1292,10.1203,10.0718,10.282,10.2896,10.17,10.3393,10.3508,10.2591,10.2782,10.2705,10.24,10.11,10.0604,10.0604,8.5049,0.0,0.0,9.7211,0.0,0.0,10.3199,10.5686,0.0,11.5597,11.8801,0.0,12.3881,12.4793,12.5186,12.5186,12.4389,0.0,0.0,0.0,0.0,11.6617,11.3801,11.1709,11.0512,10.3707,0.0,9.369,0.0,8.2309,7.8731,7.6084,7.4358,7.3628,7.8393,8.2837,8.7422,9.6859,10.3687,10.8398,11.008,11.0691,0.0,11.0691,11.0691,11.0614,11.0118,11.0003,10.9812,10.901,10.8704,10.8589,10.7711,10.6908,10.6106,10.5189,10.4386,10.3584,10.329,10.2782,10.2209,10.0795,9.8693,9.6122,9.2951,9.2569,9.2045,0.0,0.0,0.0,0.0,0.0,0.0,0.0,0.0,0.0,0.0,0.0,0.0,0.0,0.0,0.0,0.0,0.0,6.8203,6.9769,7.2338,7.57,0.0,0.0,0.0,9.0593,9.2733,9.4567,9.6133,9.7471,9.83,9.8693,9.9992,10.0604,10.0604,10.1089,10.1292,10.1292,10.3087,10.3317,10.2591,10.431,10.431,10.3214,10.3214,10.3214,10.3099,10.2094,10.1483,10.1215,9.1201,0.0,0.0,0.0,0.0,0.0,0.0,11.0918,0.0,11.6507,0.0,12.1923,12.1782,12.4196,12.5798,12.5798,0.0,12.3419,12.0509,12.1612,12.0719,11.7003,11.7202,11.6193,11.39,10.8613,0.0,0.0,0.0,8.5158,7.9342,7.6786,7.5434,7.5318,7.8672,8.3028,8.852,9.9572,10.5303,10.729,10.9697,11.0691,11.0691,11.0691,11.0691,11.0691,11.0691,11.0691,11.0576,10.9799,10.9608,10.9379,10.8589,10.7787,10.6908,10.6106,10.5189,10.4386,10.3699,10.3393,10.3202,10.24,10.2094,10.0707,9.6313,9.5243,9.472,9.2962,9.0211,8.9054,0.0,0.0,0.0,0.0,0.0,0.0,0.0,0.0,0.0,0.0,0.0,0.0,0.0,0.0,0.0,6.8699,7.0312,7.2796,0.0,0.0,0.0,8.9027,9.1625,9.4146,9.6706,0.0,9.8541,9.9431,10.0183,10.0604,10.0604,10.0795,10.1292,10.2006,10.3087,10.352,10.352,10.5112,10.4807,10.3508,10.3508,10.3508,10.3508,10.3393,10.2896,10.2197,9.8019,0.0,0.0,0.0,0.0,11.431,11.6312,11.6991,11.7886,12.0108,12.3691,12.5798,12.5197,12.5516,12.5798,12.5798,12.5722,0.0,0.0,0.0,0.0,12.2105,12.0104,11.8485,11.7377,10.971,10.3379,0.0,0.0,8.4404,7.9243,7.672,7.4762,7.359,7.6953,8.3907,9.3524,10.0489,0.0,10.8093,11.0003,11.0691,11.0691,11.0691,11.0691,11.0691,11.0691,11.0691,11.0691,11.05,11.05,11.0309,10.9506,10.8589,10.7787,10.6908,10.6106,10.5406,10.5303,10.4692,10.4195,10.4004,10.2896,10.17,10.0783,9.9981,9.9037,9.7345,9.6019,9.407,9.0593,0.0,0.0,0.0,0.0,0.0,0.0,0.0,0.0,0.0,0.0,0.0,0.0,0.0,0.0,0.0,0.0,0.0,0.0,0.0,0.0,0.0,9.0708,0.0,0.0,0.0,9.8541,9.9431,10.0183,10.0604,10.0604,10.2094,10.24,10.2006,10.431,10.4883,10.431,10.5303,10.5482,10.5303,10.5303,10.5303,10.5189,10.4501,10.4119,10.389,0.0,0.0,0.0,0.0,0.0,0.0,0.0,12.3215,0.0,12.2596,12.3712,12.4613,12.4683,12.5411,12.5989,12.6395,12.6104,12.5592,12.521,12.479,12.4279,12.3911,12.1504,0.0,11.8906,11.241,10.6297,10.0718,0.0,0.0,7.9254,7.7114,7.5233,7.3896,7.9885,8.7182,9.5369,0.0,0.0,10.7711,10.9812,11.0691,11.0691,11.0691,11.0691,11.0691,11.0691,11.0691,11.0691,11.0691,11.0691,11.0614,11.0194,10.9506,10.8704,10.7787,10.6985,10.622,10.5788,10.5418,10.4998,10.4501,10.3813,10.3087,10.2705,10.1903,10.0795,9.9114,9.812,9.5817,9.0326,8.6237,0.0,0.0,0.0,0.0,0.0,0.0,0.0,0.0,0.0,0.0,0.0,0.0,0.0,0.0,0.0,0.0,0.0,0.0,0.0,0.0,0.0,0.0,0.0,0.0,0.0,9.9992,10.0413,10.0604,10.0604,10.1903,10.2514,10.2705,10.431,10.4986,10.5112,10.5482,10.5711,10.5711,10.5711,10.5711,10.5597,10.5189,10.5112,10.4998,0.0,11.4708,0.0,0.0,12.0811,0.0,12.4888,12.8011,12.8808,12.5009,12.4105,12.399,12.4488,12.5612,12.6586,12.7312,12.67,12.628,12.6089,12.5401,12.5019,12.479,12.2688,12.1198,12.0281,11.5505,10.9812,0.0,0.0,0.0,8.1127,7.8863,7.7373,7.6944,8.447,0.0,0.0,0.0,10.5189,10.7596,10.9812,11.0691,11.0691,11.0691,11.0691,11.0691,11.0691,11.0691,11.0691,11.0691,11.0691,11.0691,11.0691,11.0118,10.9303,10.8589,10.7787,10.6985,10.6182,10.5991,10.5711,10.4921,10.4501,10.4195,10.3393,10.2514,10.1394,9.9763,9.8426,9.5855,9.0326,8.7422,0.0,0.0,0.0,0.0,0.0,0.0,0.0,0.0,0.0,0.0,0.0,0.0,0.0,0.0,0.0,0.0,7.3055,7.5921,7.9856,0.0,0.0,9.2187,9.6057,0.0,9.8949,10.0604,10.0604,10.0604,10.0604,10.1712,10.2591,10.329,10.4195,10.5112,10.5711,10.5711,10.5711,10.5711,10.5711,10.5711,10.5711,10.5711,10.5711,10.5597,0.0,0.0,0.0,0.0,0.0,0.0,12.6788,12.9808,13.0903,12.8205,12.8488,12.8588,12.79,12.7999,12.8114,12.8191,12.8114,12.7808,12.7006,12.6891,12.6509,12.5707,12.4714,12.3797,12.2994,11.8715,11.3595,0.0,0.0,0.0,0.0,8.3181,8.2455,0.0,0.0,0.0,0.0,10.3622,10.6908,10.9315,11.0309,11.0691,11.0691,11.0691,11.0691,11.0691,11.0691,11.0691,11.0691,11.0691,11.0691,11.0691,11.0691,11.0118,10.9379,10.9303,10.8704,10.7902,10.6985,10.6794,10.6603,10.58,10.4998,10.4195,10.3393,10.2514,10.1394,9.9763,9.7509,9.449,9.0096,9.0287,8.9332,0.0,0.0,0.0,0.0,0.0,0.0,0.0,0.0,0.0,0.0,0.0,0.0,0.0,0.0,0.0,7.3811,7.5119,7.8414,8.4212,0.0,9.0708,9.3421,9.6542,9.8949,10.0604,10.0604,10.0604,10.0718,10.2285,10.3087,10.329,10.4921,10.5597,10.5711,10.5711,10.5711,10.5711,10.5711,10.5711,10.5711,10.5711,10.5711,10.5711,0.0,0.0,0.0,0.0,0.0,0.0,0.0,13.1698,13.2279,13.0789,13.0407,13.0216,12.9795,12.8916,12.8496,12.8993,12.8611,12.7999,12.7197,12.7082,12.67,12.5783,12.4981,12.4279,12.3988,12.0893,11.66,0.0,0.0,0.0,0.0,0.0,0.0,0.0,0.0,9.961,10.4004,10.6297,10.8882,11.1723,11.1493,11.1799,11.2105,11.1684,11.1493,11.1379,11.0895,11.0691,11.0691,11.0691,11.0691,11.0691,11.0691,11.05,11.0118,10.9621,10.9201,10.8691,10.7902,10.7711,10.7596,10.729,10.6488,10.58,10.5495,10.4004,10.2285,10.11,9.8502,9.556,9.2847,9.1243,8.9867,0.0,0.0,0.0,0.0,0.0,0.0,0.0,0.0,0.0,0.0,0.0,0.0,0.0,0.0,0.0,0.0,0.0,0.0,8.1881,0.0,9.0517,9.3077,9.6428,9.8949,10.0604,10.0604,10.0909,10.1394,10.2591,10.3699,10.4692,10.5418,10.5711,10.5711,10.5711,10.5711,10.5711,10.5711,10.5711,10.5711,10.5711,10.5711,10.5711,12.67,0.0,12.5291,0.0,12.8605,12.8905,13.2294,13.3311,13.3502,13.289,13.2088,13.1285,13.0903,12.9719,12.9299,12.991,12.9184,12.8305,12.7503,12.7197,12.67,12.5783,12.521,0.0,12.4905,12.2688,11.9594,11.5811,10.9889,0.0,0.0,0.0,0.0,0.0,10.1788,10.4807,10.8093,10.9201,11.0997,11.3213,11.2601,11.2716,11.3085,11.2601,11.2181,11.1914,11.1302,11.0882,11.0691,11.0691,11.0691,11.0691,11.0691,11.0691,11.0576,11.0003,10.9812,10.9621,10.8819,10.8589,10.8513,10.8284,10.7481,10.6794,10.6603,10.4807,10.2705,10.1089,9.8923,9.6668,9.4747,9.2225,9.0478,9.0669,0.0,0.0,0.0,0.0,0.0,0.0,0.0,7.3284,0.0,0.0,0.0,0.0,0.0,0.0,0.0,0.0,0.0,0.0,0.0,0.0,0.0,9.6821,9.919,10.0604,10.0909,10.1292,10.1891,10.3011,10.431,10.5711,10.5711,10.5711,10.5711,10.5711,10.5711,10.5711,10.5711,10.5711,10.5711,10.5711,10.5711,10.5711,12.8222,12.8409,12.9208,13.1622,13.2011,13.2585,13.4304,13.461,13.461,13.461,13.3807,13.2585,13.098,13.0789,13.0789,13.0789,12.9986,12.9184,12.829,12.7503,12.67,0.0,0.0,12.5798,12.5798,12.4102,12.2803,12.1886,0.0,0.0,10.9112,0.0,10.3114,10.5686,10.7405,10.9086,11.0806,11.241,11.3213,11.32,11.32,11.32,11.32,11.32,11.2716,11.199,11.199,11.1417,11.0691,11.0691,11.0691,11.0691,11.0691,11.0691,11.0691,11.0691,11.0691,11.05,10.9608,10.9379,10.9188,10.8398,10.7481,10.6679,10.5915,10.4386,10.2209,9.8835,9.8109,9.7345,9.4861,9.365,9.1969,8.8683,0.0,0.0,0.0,0.0,0.0,0.0,0.0,7.272,7.5204,0.0,0.0,0.0,0.0,0.0,0.0,0.0,0.0,8.6533,9.002,0.0,9.4365,9.77,9.9801,10.0604,10.1521,10.1891,10.2006,10.3622,10.4921,10.5711,10.5711,10.5711,10.5711,10.5711,10.5711,10.5711,10.5711,10.5711,10.5711,10.5711,10.5711,10.5711,13.0711,13.1399,13.1996,13.2791,13.3387,13.3998,13.4495,13.5106,13.5297,13.4686,13.438,13.3502,13.1897,13.1209,13.0789,0.0,13.0598,12.9795,0.0,12.8114,12.7312,12.5913,12.5798,12.5798,12.5798,12.5287,12.4293,12.288,0.0,0.0,0.0,11.0614,11.0602,11.2487,11.2487,11.3098,11.4091,11.3518,11.39,11.4894,11.4283,11.4397,11.4817,11.4283,11.39,11.3595,11.3022,11.2296,11.1608,11.1608,11.1188,11.0691,11.0691,11.0691,11.0691,11.0691,11.0691,11.0614,11.0385,11.0309,11.0194,11.0003,10.9201,10.8398,10.7596,10.5189,10.24,9.9572,9.8502,9.7689,9.6363,9.4949,9.3459,9.1778,9.1003,0.0,0.0,0.0,0.0,0.0,0.0,7.6961,0.0,7.6227,0.0,0.0,0.0,0.0,0.0,0.0,0.0,0.0,9.002,0.0,9.5216,9.8006,9.9801,10.0604,10.1521,10.2502,10.3622,10.4807,10.5406,10.5711,10.5711,10.5711,10.5711,10.5711,10.5711,10.5711,10.5711,10.5711,10.5711,10.5711,10.5711,10.5711,13.2394,13.3005,13.3387,13.3693,13.4189,13.4686,13.4992,13.5603,13.5718,13.5183,13.4801,13.4113,13.2699,13.1782,0.0,13.0789,13.0483,12.9795,12.842,12.8305,12.7617,12.5913,12.6089,12.6089,12.5798,0.0,0.0,12.4217,12.2001,11.9517,11.6804,11.6002,11.6002,11.669,11.6206,11.6193,11.6613,11.5582,11.5505,11.6117,11.562,11.5505,11.562,11.5085,11.4779,11.4397,11.39,11.3213,11.241,11.2105,11.1608,11.1188,11.1188,11.1009,11.0691,11.0691,11.0691,11.0691,11.0691,11.0691,11.0691,11.0691,11.0003,10.8997,10.7596,10.5189,10.2603,10.0298,9.8923,9.7841,9.705,9.5255,9.3715,9.3191,9.1423,8.9513,8.7842,0.0,0.0,0.0,0.0,0.0,0.0,8.0009,0.0,0.0,0.0,0.0,0.0,0.0,0.0,8.7536,9.2121,0.0,9.7012,9.8884,10.0107,10.0604,10.1788,10.3317,10.4921,10.5495,10.5711,10.5711,10.5711,10.5711,10.5711,10.5711,10.5711,10.5711,10.5711,10.5711,10.5711,10.5711,10.5711,10.5711,13.3387,13.3387,13.3693,0.0,13.4686,0.0,13.5794,13.5794,13.5794,13.5794,13.5106,13.4189,13.3311,13.2585,13.182,13.0903,0.0,0.0,0.0,12.829,12.7617,12.5989,12.6586,12.6586,12.5798,12.5798,12.5798,12.5798,12.4179,12.2612,12.1007,12.0205,11.9288,11.8614,11.8499,11.8423,11.8423,11.8308,11.7798,11.6995,11.6995,11.6499,11.5696,11.5696,11.52,11.4601,11.4601,11.4015,11.3213,11.241,11.2105,11.199,11.2105,11.1493,11.0806,11.0806,11.0691,11.0691,11.0691,11.0691,11.0691,11.0691,11.0003,10.8806,10.6285,10.4501,10.2908,10.11,9.937,9.7918,9.7127,9.4911,9.3191,9.3115,9.0975,8.8749,8.7106,0.0,0.0,0.0,0.0,0.0,0.0,8.3563,8.4518,0.0,0.0,0.0,0.0,0.0,8.6553,9.3,9.5598,9.7738,9.9458,10.0298,10.0718,10.0909,10.2514,10.4081,10.5711,10.5711,10.5711,10.5711,10.5711,10.5711,10.5711,10.5711,10.5711,10.5711,10.5711,10.5711,10.58,10.5711,10.5711,10.58,0.0,0.0,13.5297,13.5603,13.5603,13.5718,13.5909,13.5297,13.4915,13.4915,13.4686,13.3998,13.2508,13.2814,13.2394,13.0903,13.0598,13.0177,12.9299,12.8687,12.7808,12.6815,12.6409,12.5974,12.5798,12.5798,12.5798,12.5798,12.4714,12.3988,12.3591,12.2803,12.1886,12.1084,12.0511,11.9785,11.9211,11.8614,11.7798,11.6995,11.6995,11.6499,11.5696,11.5696,11.5582,11.5391,11.5391,11.4894,11.4206,11.3977,11.3098,11.2105,11.2716,11.241,11.1684,11.1684,11.1188,11.0691,11.0691,11.0691,11.0691,11.0691,11.0003,10.8882,10.6985,10.58,10.4425,10.2094,10.0298,9.8846,9.7956,9.5778,9.3868,9.3229,9.0975,8.895,8.7918,8.6314,0.0,0.0,8.531,8.5349,8.4699,8.6199,8.6658,0.0,0.0,0.0,0.0,8.9447,9.1052,9.3906,9.5904,9.8006,10.0298,10.1215,10.2197,10.3508,10.389,10.4692,10.5711,10.5711,10.5711,10.5711,10.5711,10.5711,10.5711,10.5711,10.5711,10.5711,10.5711,10.6106,10.6488,10.5903,10.6106,10.6488,13.5183,13.5603,13.5909,13.5909,13.5909,13.5909,13.5909,13.5488,13.5183,13.5183,13.5183,13.4495,13.2814,13.3005,13.2585,13.0903,13.0789,13.0483,12.9696,12.949,12.8687,12.7197,12.7403,12.7021,12.5783,12.6204,12.6204,12.5798,12.5287,12.4905,12.4508,12.4102,12.3185,12.2001,12.1504,12.0893,12.009,11.9594,11.8906,11.8103,11.7683,11.711,11.6308,11.5887,11.5696,11.5696,11.5696,11.5391,11.5008,11.4588,11.39,11.3213,11.3709,11.3213,11.2601,11.2983,11.2296,11.1302,11.1302,11.0997,11.0691,11.0691,11.0003,10.9124,10.7787,10.6603,10.5189,10.3381,10.1406,9.9687,9.8846,9.6363,9.3994,9.2695,9.0708,8.8874,8.7689,8.704,0.0,8.7192,8.8023,8.8481,8.8377,8.96,8.9829,8.8492,0.0,0.0,9.1586,9.3229,9.4567,9.5473,9.7165,9.9075,10.1215,10.2094,10.3317,10.4998,10.4616,10.5303,10.6794,10.6412,10.6488,10.6794,10.6794,10.6794,10.6794,10.6794,10.6794,10.6794,10.6794,10.7099,10.7405,10.6985,10.7099,10.7405,13.5909,13.5909,13.5909,13.5909,13.5909,13.5909,13.5909,13.5794,13.5718,13.5488,13.5488,13.4801,13.3081,13.3005,13.2508,13.0903,13.0789,13.0483,12.9795,13.0292,12.9681,12.7579,12.8687,12.8305,12.6013,12.6586,12.6509,12.5798,12.5798,12.5401,12.4714,12.4714,12.3911,12.2383,12.2321,12.1695,12.1007,12.0893,12.032,11.9403,11.8805,11.7989,11.711,11.6193,11.5887,11.5887,11.5696,11.5696,11.5582,11.4894,11.4588,11.4512,11.4588,11.4091,11.3595,11.4397,11.3595,11.2296,11.2181,11.1608,11.0895,11.0691,11.0118,10.9392,10.8589,10.729,10.5903,10.4807,10.282,10.0795,9.9763,9.6859,9.4032,9.2274,9.0478,8.8759,8.7221,0.0,8.8759,8.96,9.0544,9.151,9.2312,9.3038,9.3229,9.2618,9.3955,9.4823,9.4938,9.6554,9.7471,9.7471,9.8846,10.0413,10.2323,10.3087,10.4386,10.5915,10.5303,10.6106,10.8207,10.7405,10.7481,10.8207,10.8207,10.8207,10.8207,10.8207,10.8207,10.8207,10.8207,10.8284,10.8398,10.8207,10.8284,10.8398,13.5909,13.5909,13.5909,13.5909,13.5909,13.5909,13.5909,13.5297,13.4495,13.3807,13.3693,13.3081,13.14,13.182,13.1897,13.0903,13.0789,13.0712,13.0598,13.0101,12.9619,12.9184,12.8802,12.7999,12.6891,12.628,12.5898,12.5798,12.5798,12.5707,12.5592,12.5592,12.5096,12.4102,12.3414,12.2612,12.181,12.1084,12.032,11.9517,11.9403,11.8791,11.7989,11.711,11.6804,11.669,11.6002,11.5696,11.5696,11.5582,11.5085,11.4588,11.5314,11.5008,11.4512,11.5314,11.4817,11.3977,11.3213,11.241,11.1608,11.0895,11.0576,11.0309,10.9379,10.8997,10.8195,10.5991,10.4616,10.3087,10.0795,9.7662,9.4872,9.3153,9.0861,8.8988,8.8033,0.0,9.0517,9.1319,9.2847,9.4146,9.4911,9.514,9.5446,9.6057,9.6363,9.6821,9.7498,9.9114,9.9992,9.9992,10.0298,10.1597,10.4004,10.4921,10.58,10.6679,10.729,10.7787,10.8207,10.8093,10.8093,10.8207,10.8207,10.8207,10.8207,10.8207,10.8207,10.8207,10.8207,10.8589,10.9112,10.8513,10.8589,10.9112,13.5909,13.5909,13.5909,13.5909,13.5909,13.5909,13.5909,13.5603,13.5183,13.4801,13.4304,13.3502,13.2279,13.2088,13.1706,13.0903,13.0789,13.0789,13.0789,13.0483,13.0116,12.9619,12.9604,12.9108,12.7808,12.6891,12.628,12.5798,12.5798,12.5798,12.5798,12.5798,12.5287,12.4508,12.4102,12.3185,12.2001,12.158,12.1007,12.0205,11.9708,11.9288,11.8906,11.7989,11.7416,11.6995,11.711,11.6499,11.5811,11.6804,11.6193,11.5314,11.6117,11.5811,11.52,11.5582,11.5085,11.4206,11.2907,11.2296,11.1799,11.0882,11.0691,11.05,10.9608,10.9379,10.8997,10.7405,10.5991,10.4616,10.3011,9.9916,9.7241,9.6019,9.3306,0.0,0.0,9.1739,9.2427,9.3688,9.4987,9.6057,9.6859,9.6936,9.7127,9.7509,9.7967,9.8617,9.9408,10.0592,10.1712,10.2591,10.3087,10.389,10.5112,10.6412,10.7481,10.8207,10.8207,10.8704,10.9506,10.9086,10.9086,10.9506,10.9506,10.9506,10.9506,10.9506,10.9506,10.9506,10.9506,10.9812,11.0118,10.9697,10.9812,11.0003,13.5909,13.5909,13.5909,13.5909,13.5909,13.5909,13.5909,13.5909,13.5794,13.5603,13.4992,13.4304,13.3387,13.2585,13.182,13.1209,13.0903,13.0789,13.0789,13.0789,13.0483,12.991,13.0292,12.9795,12.829,12.7503,12.67,12.5798,12.5798,12.5798,12.5798,12.5798,12.5401,12.479,12.4599,12.372,12.2306,12.2077,12.1504,12.0688,12.009,11.9785,11.9708,11.8906,11.818,11.7607,11.8103,11.7377,11.6499,11.7798,11.7377,11.6384,11.711,11.669,11.6002,11.6002,11.5391,11.4487,11.2983,11.241,11.2105,11.1188,11.0806,11.05,10.9889,10.9685,10.9506,10.8589,10.752,10.6208,10.5189,10.24,9.9878,9.8617,0.0,0.0,0.0,9.4414,9.4872,9.6554,9.7547,9.8388,9.9228,9.9305,9.9305,9.9305,9.9916,10.0604,10.1406,10.2311,10.3622,10.5189,10.5686,10.6106,10.6297,10.7711,10.8819,10.9379,10.901,10.9506,11.0691,11.0003,11.0118,11.0691,11.0691,11.0691,11.0691,11.0691,11.0691,11.0691,11.0691,11.0691,11.0691,11.0691,11.0691,11.0691,13.5909,13.5909,13.5909,13.5909,13.5909,13.5909,13.5909,13.5909,13.5603,13.4801,13.461,13.4304,13.3387,13.2585,13.2088,13.2011,13.1285,13.0789,13.0789,13.0789,13.0789,13.0712,13.0116,12.9299,12.8305,12.7503,12.67,12.5798,12.5798,12.5798,12.5798,12.5798,12.5798,12.5722,12.4905,12.3988,12.3185,12.2306,12.1504,12.0816,12.0702,12.0702,12.0587,11.9708,11.9403,11.9211,11.8485,11.8194,11.8103,11.8308,11.8194,11.8103,11.8194,11.7607,11.6919,11.6919,11.6308,11.5391,11.4601,11.3709,11.2894,11.2105,11.1302,11.0691,11.0614,11.0614,11.0385,10.9494,10.9188,10.8577,10.6985,10.4577,10.2094,9.9687,0.0,0.0,9.5598,9.6783,9.8338,9.9992,10.1012,10.1903,10.2705,10.2782,10.2782,10.2782,10.2908,10.3278,10.4119,10.4909,10.622,10.7902,10.7214,10.7214,10.8016,10.8895,10.9303,10.9379,11.0194,11.0576,11.0691,11.0614,11.0614,11.0691,11.0691,11.0691,11.0691,11.0691,11.0691,11.0691,11.0691,11.0691,11.0691,11.0691,11.0691,11.0691,13.5909,13.5909,13.5718,13.5183,13.5488,13.5718,13.5183,13.5603,13.5794,13.5412,13.4495,13.3708,13.3311,13.2088,13.1285,13.1285,13.098,13.0789,13.0789,13.0789,13.0789,13.0789,12.9986,12.9184,12.8305,12.7503,12.67,12.5798,12.5798,12.5798,12.5798,12.5798,12.5798,12.5798,12.5478,12.479,12.3988,12.372,12.3109,12.2383,12.2383,12.2001,12.1504,12.1198,12.0396,11.9517,11.9785,11.9211,11.8499,11.9479,11.9211,11.8423,11.8906,11.8485,11.7798,11.7798,11.7607,11.7186,11.6881,11.5505,11.3786,11.2983,11.2487,11.2105,11.1608,11.1493,11.1302,11.0385,10.9812,10.9188,10.8589,10.6794,10.5392,10.4883,0.0,10.0909,10.0986,10.0718,10.0707,10.128,10.2209,10.2782,10.3214,10.3214,10.3393,10.389,10.4386,10.5112,10.5915,10.6794,10.7787,10.8882,10.8589,10.8589,10.8882,10.9812,11.0194,11.0194,11.05,11.0691,11.0691,11.0691,11.0691,11.0691,11.0691,11.0691,11.0691,11.0691,11.0691,11.0691,11.0691,11.0691,11.0691,11.0691,11.0691,11.0691,13.5909,13.5909,13.5718,13.5106,13.5297,13.5412,13.5106,13.5106,13.5183,13.5488,13.4189,13.3311,13.3311,13.2011,13.1209,13.1209,13.098,13.0789,13.0789,13.0789,13.0789,13.0789,12.9986,12.9184,12.8305,12.7503,12.67,12.5798,12.5798,12.5798,12.5798,12.5798,12.5798,12.5798,12.5798,12.5287,12.4508,12.4508,12.3988,12.33,12.33,12.2803,12.2001,12.2001,12.1084,12.0014,12.0893,12.0281,11.9288,12.0702,12.0205,11.9211,11.9708,11.9288,11.86,11.8423,11.8308,11.8308,11.8308,11.7009,11.5391,11.4321,11.3582,11.3098,11.2487,11.2181,11.1799,11.1188,11.0385,10.9812,10.9812,10.8589,10.7787,10.8093,10.5991,10.459,10.5112,10.4195,10.3622,10.3801,10.4386,10.4807,10.4807,10.4807,10.4998,10.5609,10.6106,10.6794,10.7596,10.8513,10.9201,10.9812,10.9812,10.9812,10.9812,11.0385,11.0691,11.0691,11.0691,11.0691,11.0691,11.0691,11.0691,11.0691,11.0691,11.0691,11.0691,11.0691,11.0691,11.0691,11.0691,11.0691,11.0691,11.0691,11.0691,11.0691,13.5909,13.5909,13.5909,13.5909,13.5183,13.4915,13.5794,13.438,13.3578,13.4495,13.3807,13.3311,13.3311,13.2585,13.2088,13.2088,13.1285,13.0789,13.0789,13.0789,13.0789,13.0789,12.9986,12.9184,12.8305,12.7503,12.67,12.5798,12.5798,12.5798,12.5798,12.5798,12.5798,12.5798,12.5798,12.5287,12.4508,12.4508,12.3988,12.33,12.33,12.2803,12.2001,12.2001,12.1504,12.0893,12.1695,12.1504,12.0893,12.1695,12.1504,12.0816,12.0816,12.0205,11.9403,11.8614,11.8308,11.8308,11.8308,11.8308,11.7888,11.6117,11.4512,11.32,11.32,11.2601,11.199,11.199,11.1302,11.0691,11.0691,11.0003,10.9112,10.8322,10.7481,10.6908,10.6908,10.6908,10.7214,10.8093,10.8207,10.8207,10.8207,10.8207,10.8207,10.8207,10.8207,10.8589,10.9379,11.0194,11.0691,11.0691,11.0691,11.0691,11.0691,11.0691,11.0691,11.0691,11.0691,11.0691,11.0691,11.0691,11.0691,11.0691,11.0691,11.0691,11.0691,11.0691,11.0691,11.0691,11.0691,11.0691,11.0691,11.0691,11.0691,11.0691,13.5909,13.5909,13.5718,13.5106,13.4801,13.4686,13.4915,13.3998,13.3578,13.4495,13.3311,13.2508,13.2508,13.1706,13.1209,13.1209,13.098,13.0789,13.0789,13.0789,13.0483,12.9986,12.9108,12.8611,12.8305,12.6891,12.6104,12.5798,12.5798,12.5798,12.5798,12.5798,12.5798,12.5798,12.5798,12.5722,12.5401,12.5401,12.5287,12.511,12.511,12.4484,12.3797,12.3797,12.33,12.2612,12.2803,12.2803,12.2612,12.2803,12.2803,12.2612,12.2612,12.2001,12.1198,12.1021,12.0511,12.009,12.009,11.9594,11.8715,11.6995,11.6179,11.562,11.4397,11.39,11.3404,11.2181,11.1799,11.1417,11.0806,11.05,11.0194,11.0003,10.9697,10.9392,10.8704,10.8704,10.8513,10.8207,10.8207,10.8207,10.8207,10.8207,10.8398,10.8997,10.9583,11.008,11.0309,11.0576,11.0691,11.0691,11.0691,11.0691,11.0691,11.0691,11.0691,11.0691,11.0691,11.0691,11.0691,11.0691,11.0691,11.0691,11.0691,11.0691,11.0691,11.0691,11.0691,11.0691,11.0691,11.0691,11.0691,11.0691,11.0691,11.0691,13.5488,13.5412,13.5183,13.4686,13.4113,13.3807,13.4495,13.3311,13.2585,13.3502,13.2394,13.1591,13.1591,13.1094,13.0789,13.0789,13.0789,13.0712,13.0292,13.0292,12.9986,12.9108,12.8305,12.7808,12.7808,12.6509,12.5798,12.5798,12.5798,12.5798,12.5798,12.5798,12.5798,12.5798,12.5798,12.5798,12.5798,12.5798,12.5798,12.5798,12.5798,12.5287,12.4508,12.4508,12.3988,12.33,12.3682,12.3605,12.33,12.3682,12.3605,12.33,12.33,12.2918,12.2497,12.2497,12.1886,12.1313,12.1313,12.0702,11.9708,11.8294,11.7721,11.7186,11.5811,11.52,11.4588,11.3289,11.2716,11.2296,11.1799,11.1417,11.1188,11.1188,11.0882,11.05,11.0003,10.9889,10.9697,10.9201,10.9201,10.9201,10.9201,10.9201,10.9392,10.9889,11.0385,11.0691,11.0691,11.0691,11.0691,11.0691,11.0997,11.1188,11.1188,11.1188,11.0997,11.0691,11.0691,11.0691,11.0691,11.0691,11.0691,11.0691,11.0691,11.0691,11.0691,11.0691,11.0691,11.0691,11.0691,11.0691,11.0691,11.0691,11.0691,11.0691,13.461,13.4495,13.4495,13.4495,13.3196,13.2623,13.4189,13.2394,13.1094,13.2011,13.1285,13.0789,13.0789,13.0789,13.0789,13.0789,13.0789,13.0483,12.9696,12.9619,12.9184,12.8191,12.7503,12.7082,12.7006,12.6204,12.5798,12.5798,12.5798,12.5798,12.5798,12.5798,12.5798,12.5798,12.5798,12.5798,12.5798,12.5798,12.5798,12.5798,12.5798,12.5287,12.4599,12.4599,12.4217,12.3605,12.4408,12.4102,12.3605,12.4408,12.4102,12.3491,12.3491,12.3491,12.3414,12.3414,12.2803,12.2077,12.2077,12.1504,12.0702,11.9899,11.9097,11.8308,11.7301,11.6422,11.5582,11.4779,11.39,11.3289,11.32,11.2601,11.2105,11.2105,11.1417,11.0882,11.0806,11.0806,11.0806,11.0691,11.0691,11.0691,11.0691,11.0691,11.0691,11.0691,11.0691,11.0691,11.0691,11.0806,11.0806,11.0806,11.1684,11.2105,11.2105,11.2105,11.1684,11.0882,11.0806,11.0691,11.0806,11.0691,11.0691,11.0691,11.0691,11.0691,11.0691,11.0691,11.0691,11.0691,11.0691,11.0691,11.0691,11.0691,11.0691,11.0691,13.3578,13.3578,13.3578,13.3578,13.2814,13.2394,13.3387,13.2011,13.1094,13.2011,13.1285,13.0789,13.0789,13.0789,13.0789,13.0789,13.0789,13.0483,12.9696,12.9619,12.8878,12.7388,12.7197,12.6777,12.6089,12.5913,12.5798,12.5798,12.5798,12.5798,12.5798,12.5798,12.5798,12.5798,12.5798,12.5798,12.5798,12.5798,12.5798,12.5798,12.5798,12.5722,12.5478,12.5478,12.5401,12.5287,12.5492,12.5401,12.5287,12.5492,12.5401,12.5301,12.5301,12.479,12.4217,12.4217,12.3682,12.2994,12.2994,12.2383,12.1695,12.1504,12.0893,11.9899,11.8409,11.7301,11.6499,11.562,11.4779,11.4015,11.3276,11.3098,11.2894,11.2894,11.2792,11.241,11.1799,11.1684,11.1493,11.0806,11.0691,11.0691,11.0691,11.0691,11.0691,11.0691,11.0691,11.0691,11.0691,11.1302,11.1684,11.1684,11.2487,11.2894,11.2894,11.2894,11.2779,11.2588,11.1302,11.1124,11.1684,11.0997,11.0691,11.0691,11.0691,11.0691,11.0691,11.0691,11.0691,11.0691,11.0691,11.0691,11.0691,11.0691,11.0691,11.0691,13.2814,13.2699,13.2699,13.2699,13.2011,13.1782,13.2585,13.1591,13.098,13.14,13.1094,13.0789,13.0789,13.0789,13.0789,13.0789,13.0789,13.0483,12.9696,12.9184,12.8382,12.7197,12.67,12.628,12.5798,12.5798,12.5798,12.5798,12.5798,12.5798,12.5798,12.5798,12.5798,12.5798,12.5798,12.5798,12.5798,12.5798,12.5798,12.5798,12.5798,12.5798,12.5798,12.5798,12.5798,12.5798,12.5798,12.5798,12.5798,12.5798,12.5798,12.5798,12.5798,12.5478,12.5096,12.5096,12.4484,12.3911,12.3911,12.33,12.2497,12.2077,12.1695,12.0893,11.9288,11.8485,11.7798,11.6613,11.6002,11.5391,11.4588,11.4091,11.3786,11.3786,11.3518,11.3098,11.2601,11.2601,11.241,11.1914,11.1608,11.1188,11.0691,11.0691,11.0691,11.0691,11.0691,11.0691,11.0691,11.1493,11.199,11.199,11.3213,11.3786,11.3786,11.3786,11.4015,11.4397,11.2716,11.2105,11.2601,11.2105,11.1914,11.1914,11.1493,11.1302,11.1302,11.0895,11.0691,11.0691,11.0691,11.0691,11.0691,11.0691,11.0691,11.0691,13.2011,13.1897,13.1897,13.1897,13.1285,13.1018,13.1782,13.1285,13.0789,13.0789,13.0789,13.0789,13.0789,13.0789,13.0789,13.0789,13.0789,13.0483,12.9696,12.8916,12.8114,12.7082,12.6395,12.5989,12.5798,12.5798,12.5798,12.5798,12.5798,12.5798,12.5798,12.5798,12.5798,12.5798,12.5798,12.5798,12.5798,12.5798,12.5798,12.5798,12.5798,12.5798,12.5798,12.5798,12.5798,12.5798,12.5798,12.5798,12.5798,12.5798,12.5798,12.5798,12.5798,12.5798,12.5798,12.5798,12.5287,12.4714,12.4714,12.4102,12.33,12.2612,12.2306,12.181,12.0281,11.9708,11.9097,11.7721,11.7301,11.6995,11.6117,11.5391,11.4894,11.4703,11.4091,11.3595,11.3391,11.3404,11.3404,11.32,11.2601,11.1914,11.0997,11.0882,11.0895,11.0691,11.0691,11.0806,11.0882,11.1684,11.2296,11.241,11.39,11.4703,11.4703,11.4703,11.5008,11.5696,11.4321,11.3595,11.3404,11.3289,11.32,11.3213,11.2487,11.2105,11.1914,11.1188,11.0806,11.0691,11.0691,11.0691,11.0691,11.0691,11.0691,11.0691,13.098,13.098,13.098,13.098,13.0903,13.0789,13.098,13.0903,13.0789,13.0789,13.0789,13.0789,13.0789,13.0789,13.0789,13.0789,13.0789,13.0483,12.9696,12.9505,12.8687,12.7197,12.7006,12.6586,12.5798,12.5798,12.5798,12.5798,12.5798,12.5798,12.5798,12.5798,12.5798,12.5798,12.5798,12.5798,12.5798,12.5798,12.5798,12.5798,12.5798,12.5798,12.5798,12.5798,12.5798,12.5798,12.5798,12.5798,12.5798,12.5798,12.5798,12.5798,12.5798,12.5798,12.5798,12.5798,12.5707,12.5592,12.5592,12.4981,12.4293,12.4217,12.3605,12.288,12.1886,12.0511,11.9403,11.9211,11.86,11.7912,11.6995,11.6676,11.6422,11.5696,11.5391,11.5085,11.4397,11.4283,11.4015,11.3289,11.3085,11.2716,11.1914,11.1799,11.1493,11.0818,11.0691,11.0997,11.1799,11.2601,11.3404,11.4091,11.5085,11.5505,11.5505,11.5505,11.5582,11.5696,11.5505,11.5008,11.4283,11.3518,11.32,11.32,11.3098,11.2601,11.199,11.1914,11.1379,11.0691,11.0691,11.0691,11.0691,11.0691,11.0691,11.0691,13.0789,13.0789,13.0789,13.0789,13.0789,13.0789,13.0789,13.0789,13.0789,13.0789,13.0789,13.0789,13.0789,13.0407,12.991,12.9413,12.9413,12.9299,12.8916,12.8496,12.7885,12.7082,12.6586,12.6204,12.5798,12.5798,12.5798,12.5798,12.5798,12.5798,12.5798,12.5798,12.5798,12.5798,12.5798,12.5798,12.5798,12.5798,12.5798,12.5798,12.5798,12.5798,12.5798,12.5798,12.5798,12.5798,12.5798,12.5798,12.5798,12.5798,12.5798,12.5798,12.5798,12.5798,12.5798,12.5798,12.5798,12.5798,12.5798,12.5478,12.5096,12.4599,12.4217,12.3797,12.288,12.181,12.0587,11.9708,11.9211,11.8715,11.7912,11.7683,11.7416,11.6613,11.6422,11.6117,11.5314,11.52,11.4894,11.4015,11.39,11.3595,11.2792,11.2716,11.2487,11.2105,11.2105,11.2296,11.2601,11.348,11.4091,11.4487,11.5314,11.5696,11.5696,11.5696,11.5696,11.5696,11.5696,11.5505,11.52,11.4817,11.4588,11.4588,11.4091,11.3709,11.3289,11.241,11.1799,11.1379,11.0895,11.0691,11.0691,11.0691,11.0691,11.0691]}]]